[[{"header":{"parameterUnit":"m.s-1","parameterCategory":1,"la1":30.6,"la2":28.766,"lo1":-90.7593,"lo2":-88.6598,"dx":0.0162,"dy":0.0183,"nx":116,"ny":114,"refTime":"2022-11-10T06:00:00:Z","depth":0,"parameterNumber":2,"parameterNumberName":"U-component_of_WINDS"},"data":[0.0,0.0,0.0,0.0,0.0,0.0,0.0,0.0,0.0,0.0,0.0,0.0,0.0,0.0,0.0,0.0,0.0,0.0,0.0,0.0,0.0,0.0,0.0,0.0,0.0,0.0,0.0,0.0,0.0,0.0,0.0,0.0,0.0,0.0,0.0,0.0,0.0,0.0,0.0,0.0,0.0,0.0,0.0,0.0,0.0,0.0,0.0,0.0,0.0,0.0,0.0,0.0,0.0,0.0,0.0,0.0,0.0,0.0,0.0,0.0,0.0,0.0,0.0,0.0,0.0,0.0,0.0,0.0,0.0,0.0,0.0,0.0,0.0,0.0,0.0,0.0,0.0,0.0,0.0,0.0,0.0,0.0,0.0,0.0,0.0,0.0,0.0,0.0,0.0,0.0,0.0,0.0,0.0,0.0,0.0,0.0,0.0,0.0,0.0,0.0,0.0,0.0,0.0,0.0,0.0,0.0,0.0,0.0,0.0,0.0,0.0,0.0,0.0,0.0,0.0,0.0,0.0,0.0,0.0,0.0,0.0,0.0,0.0,0.0,0.0,0.0,0.0,0.0,0.0,0.0,0.0,0.0,0.0,0.0,0.0,0.0,0.0,0.0,0.0,0.0,0.0,0.0,0.0,0.0,0.0,0.0,0.0,0.0,0.0,0.0,0.0,0.0,0.0,0.0,0.0,0.0,0.0,0.0,0.0,0.0,0.0,0.0,0.0,0.0,0.0,0.0,0.0,0.0,0.0,0.0,0.0,0.0,0.0,0.0,0.0,0.0,0.0,0.0,0.0,0.0,0.0,0.0,0.0,0.0,0.0,0.0,0.0,0.0,0.0,0.0,0.0,0.0,0.0,0.0,0.0,0.0,0.0,0.0,0.0,0.0,0.0,0.0,0.0,0.0,0.0,0.0,0.0,0.0,0.0,0.0,0.0,0.0,0.0,0.0,0.0,0.0,0.0,0.0,0.0,0.0,0.0,0.0,0.0,0.0,0.0,0.0,0.0,0.0,0.0,0.0,0.0,0.0,0.0,0.0,0.0,0.0,0.0,0.0,0.0,0.0,0.0,0.0,0.0,0.0,0.0,0.0,0.0,0.0,0.0,0.0,0.0,0.0,0.0,0.0,0.0,0.0,0.0,0.0,0.0,0.0,0.0,0.0,0.0,0.0,0.0,0.0,0.0,0.0,0.0,0.0,0.0,0.0,0.0,0.0,0.0,0.0,0.0,0.0,0.0,0.0,0.0,0.0,0.0,0.0,0.0,0.0,0.0,0.0,0.0,0.0,0.0,0.0,0.0,0.0,0.0,0.0,0.0,0.0,0.0,0.0,0.0,0.0,0.0,0.0,0.0,0.0,0.0,0.0,0.0,0.0,0.0,0.0,0.0,0.0,0.0,0.0,0.0,0.0,0.0,0.0,0.0,0.0,0.0,0.0,0.0,0.0,0.0,0.0,0.0,0.0,0.0,0.0,0.0,0.0,0.0,0.0,0.0,0.0,0.0,0.0,0.0,0.0,0.0,0.0,0.0,0.0,0.0,0.0,0.0,0.0,0.0,0.0,0.0,0.0,0.0,0.0,0.0,0.0,0.0,0.0,0.0,0.0,0.0,0.0,0.0,0.0,0.0,0.0,0.0,0.0,0.0,0.0,0.0,0.0,0.0,0.0,0.0,0.0,0.0,0.0,0.0,0.0,0.0,0.0,0.0,0.0,0.0,0.0,0.0,0.0,0.0,0.0,0.0,0.0,0.0,0.0,0.0,0.0,0.0,0.0,0.0,0.0,0.0,0.0,0.0,0.0,0.0,0.0,0.0,0.0,0.0,0.0,0.0,0.0,0.0,0.0,0.0,0.0,0.0,0.0,0.0,0.0,0.0,0.0,0.0,0.0,0.0,0.0,0.0,0.0,0.0,0.0,0.0,0.0,0.0,0.0,0.0,0.0,0.0,0.0,0.0,0.0,0.0,0.0,0.0,0.0,0.0,0.0,0.0,0.0,0.0,0.0,0.0,0.0,0.0,0.0,0.0,0.0,0.0,0.0,0.0,0.0,0.0,0.0,0.0,0.0,0.0,0.0,0.0,0.0,0.0,0.0,0.0,0.0,0.0,0.0,0.0,0.0,0.0,0.0,0.0,0.0,0.0,0.0,0.0,0.0,0.0,0.0,0.0,0.0,0.0,0.0,0.0,0.0,0.0,0.0,0.0,0.0,0.0,0.0,0.0,0.0,0.0,0.0,0.0,0.0,0.0,0.0,0.0,0.0,0.0,0.0,0.0,0.0,0.0,0.0,0.0,0.0,0.0,0.0,0.0,0.0,0.0,0.0,0.0,0.0,0.0,0.0,0.0,0.0,0.0,0.0,0.0,0.0,0.0,0.0,0.0,0.0,0.0,0.0,0.0,0.0,0.0,0.0,0.0,0.0,0.0,0.0,0.0,0.0,0.0,0.0,0.0,0.0,0.0,0.0,0.0,0.0,0.0,0.0,0.0,0.0,0.0,0.0,0.0,0.0,0.0,0.0,0.0,0.0,0.0,0.0,0.0,0.0,0.0,0.0,0.0,0.0,0.0,0.0,0.0,0.0,0.0,0.0,0.0,0.0,0.0,0.0,0.0,0.0,0.0,0.0,0.0,0.0,0.0,0.0,0.0,0.0,0.0,0.0,0.0,0.0,0.0,0.0,0.0,0.0,0.0,0.0,0.0,0.0,0.0,0.0,0.0,0.0,0.0,0.0,0.0,0.0,0.0,0.0,0.0,0.0,0.0,0.0,0.0,0.0,0.0,0.0,0.0,0.0,0.0,0.0,0.0,0.0,0.0,0.0,0.0,0.0,0.0,0.0,0.0,0.0,0.0,0.0,0.0,0.0,0.0,0.0,0.0,0.0,0.0,0.0,0.0,0.0,0.0,0.0,0.0,0.0,0.0,0.0,0.0,0.0,0.0,0.0,0.0,0.0,0.0,0.0,0.0,0.0,0.0,0.0,0.0,0.0,0.0,0.0,0.0,0.0,0.0,0.0,0.0,0.0,0.0,0.0,0.0,0.0,0.0,0.0,0.0,0.0,0.0,0.0,0.0,0.0,0.0,0.0,0.0,0.0,0.0,0.0,0.0,0.0,0.0,0.0,0.0,0.0,0.0,0.0,0.0,0.0,0.0,0.0,0.0,0.0,0.0,0.0,0.0,0.0,0.0,0.0,0.0,0.0,0.0,0.0,0.0,0.0,0.0,0.0,0.0,0.0,0.0,0.0,0.0,0.0,0.0,0.0,0.0,0.0,0.0,0.0,0.0,0.0,0.0,0.0,0.0,0.0,0.0,0.0,0.0,0.0,0.0,0.0,0.0,0.0,0.0,0.0,0.0,0.0,0.0,0.0,0.0,0.0,0.0,0.0,0.0,0.0,0.0,0.0,0.0,0.0,0.0,0.0,0.0,0.0,0.0,0.0,0.0,0.0,0.0,0.0,0.0,0.0,0.0,0.0,0.0,0.0,0.0,0.0,0.0,0.0,0.0,0.0,0.0,0.0,0.0,0.0,0.0,0.0,0.0,0.0,0.0,0.0,0.0,0.0,0.0,0.0,0.0,0.0,0.0,0.0,0.0,0.0,0.0,0.0,0.0,0.0,0.0,0.0,0.0,0.0,0.0,0.0,0.0,0.0,0.0,0.0,0.0,0.0,0.0,0.0,0.0,0.0,0.0,0.0,0.0,0.0,0.0,0.0,0.0,0.0,0.0,0.0,0.0,0.0,0.0,0.0,0.0,0.0,0.0,0.0,0.0,0.0,0.0,0.0,0.0,0.0,0.0,0.0,0.0,0.0,0.0,0.0,0.0,0.0,0.0,0.0,0.0,0.0,0.0,0.0,0.0,0.0,0.0,0.0,0.0,0.0,0.0,0.0,0.0,0.0,0.0,0.0,0.0,0.0,0.0,0.0,0.0,0.0,0.0,0.0,0.0,0.0,0.0,0.0,0.0,0.0,0.0,0.0,0.0,0.0,0.0,0.0,0.0,0.0,0.0,0.0,0.0,0.0,0.0,0.0,0.0,0.0,0.0,0.0,0.0,0.0,0.0,0.0,0.0,0.0,0.0,0.0,0.0,0.0,0.0,0.0,0.0,0.0,0.0,0.0,0.0,0.0,0.0,0.0,0.0,0.0,0.0,0.0,0.0,0.0,0.0,0.0,0.0,0.0,0.0,0.0,0.0,0.0,0.0,0.0,0.0,0.0,0.0,0.0,0.0,0.0,0.0,0.0,0.0,0.0,0.0,0.0,0.0,0.0,0.0,0.0,0.0,0.0,0.0,0.0,0.0,0.0,0.0,0.0,0.0,0.0,0.0,0.0,0.0,0.0,0.0,0.0,0.0,0.0,0.0,0.0,0.0,0.0,0.0,0.0,0.0,0.0,0.0,0.0,0.0,0.0,0.0,0.0,0.0,0.0,0.0,0.0,0.0,0.0,0.0,0.0,0.0,0.0,0.0,0.0,0.0,0.0,0.0,0.0,0.0,0.0,0.0,0.0,0.0,0.0,0.0,0.0,0.0,0.0,0.0,0.0,0.0,0.0,0.0,0.0,0.0,0.0,0.0,0.0,0.0,0.0,0.0,0.0,0.0,0.0,0.0,0.0,0.0,0.0,0.0,0.0,0.0,0.0,0.0,0.0,0.0,0.0,0.0,0.0,0.0,0.0,0.0,0.0,0.0,0.0,0.0,0.0,0.0,0.0,0.0,0.0,0.0,0.0,0.0,0.0,0.0,0.0,0.0,0.0,0.0,0.0,0.0,0.0,0.0,0.0,0.0,0.0,0.0,0.0,0.0,0.0,0.0,0.0,0.0,0.0,0.0,0.0,0.0,0.0,0.0,0.0,0.0,0.0,0.0,0.0,0.0,0.0,0.0,0.0,0.0,0.0,0.0,0.0,0.0,0.0,0.0,0.0,0.0,0.0,0.0,0.0,0.0,0.0,0.0,0.0,0.0,0.0,0.0,0.0,0.0,0.0,0.0,0.0,0.0,0.0,0.0,0.0,0.0,0.0,0.0,0.0,0.0,0.0,0.0,0.0,0.0,0.0,0.0,0.0,0.0,0.0,0.0,0.0,0.0,0.0,0.0,0.0,0.0,0.0,0.0,0.0,0.0,0.0,0.0,0.0,0.0,0.0,0.0,0.0,0.0,0.0,0.0,0.0,0.0,0.0,0.0,0.0,0.0,0.0,0.0,0.0,0.0,0.0,0.0,0.0,0.0,0.0,0.0,0.0,0.0,0.0,0.0,0.0,0.0,0.0,0.0,0.0,0.0,0.0,0.0,0.0,0.0,0.0,0.0,0.0,0.0,0.0,0.0,0.0,0.0,0.0,0.0,0.0,0.0,0.0,0.0,0.0,0.0,0.0,0.0,0.0,0.0,0.0,0.0,0.0,0.0,0.0,0.0,0.0,0.0,0.0,0.0,0.0,0.0,0.0,0.0,0.0,0.0,0.0,0.0,0.0,0.0,0.0,0.0,0.0,0.0,0.0,0.0,0.0,0.0,0.0,0.0,0.0,0.0,0.0,0.0,0.0,0.0,0.0,0.0,0.0,0.0,0.0,0.0,0.0,0.0,0.0,0.0,0.0,0.0,0.0,0.0,0.0,0.0,0.0,0.0,0.0,0.0,0.0,0.0,0.0,0.0,0.0,0.0,0.0,0.0,0.0,0.0,0.0,0.0,0.0,0.0,0.0,0.0,0.0,0.0,0.0,0.0,0.0,0.0,0.0,0.0,0.0,0.0,0.0,0.0,0.0,0.0,0.0,0.0,0.0,0.0,0.0,0.0,0.0,0.0,0.0,0.0,0.0,0.0,0.0,0.0,0.0,0.0,0.0,0.0,0.0,0.0,0.0,0.0,0.0,0.0,0.0,0.0,0.0,0.0,0.0,0.0,0.0,0.0,0.0,0.0,0.0,0.0,0.0,0.0,0.0,0.0,0.0,0.0,0.0,0.0,0.0,0.0,0.0,0.0,0.0,0.0,0.0,0.0,0.0,0.0,0.0,0.0,0.0,0.0,0.0,0.0,0.0,0.0,0.0,0.0,0.0,0.0,0.0,0.0,0.0,0.0,0.0,0.0,0.0,0.0,0.0,0.0,0.0,6.0309,0.0,0.0,0.0,0.0,0.0,0.0,0.0,0.0,0.0,0.0,0.0,0.0,0.0,0.0,0.0,0.0,0.0,0.0,0.0,0.0,0.0,0.0,0.0,0.0,3.5723,3.6507,3.7252,3.7319,0.0,0.0,0.0,0.0,0.0,0.0,0.0,3.7916,3.8261,3.843,3.843,4.0216,4.2083,4.3842,4.2333,4.0798,3.9291,0.0,0.0,0.0,0.0,0.0,0.0,0.0,0.0,0.0,0.0,0.0,0.0,0.0,0.0,0.0,0.0,0.0,0.0,0.0,0.0,0.0,0.0,0.0,0.0,0.0,0.0,0.0,0.0,0.0,0.0,0.0,0.0,0.0,0.0,0.0,0.0,0.0,0.0,0.0,0.0,0.0,0.0,0.0,0.0,0.0,0.0,0.0,0.0,0.0,0.0,0.0,0.0,0.0,0.0,0.0,0.0,0.0,0.0,0.0,0.0,0.0,0.0,0.0,0.0,0.0,0.0,0.0,0.0,0.0,0.0,0.0,6.0792,0.0,0.0,0.0,0.0,0.0,0.0,0.0,0.0,0.0,0.0,0.0,0.0,0.0,0.0,0.0,0.0,0.0,0.0,0.0,0.0,0.0,3.45,3.6378,3.6722,3.7054,3.7652,3.7713,3.7821,3.8052,3.8086,0.0,0.0,0.0,0.0,3.8458,3.8943,3.9457,3.9999,4.2922,4.5391,4.7368,4.7233,4.6244,4.4471,4.2266,0.0,0.0,0.0,0.0,0.0,0.0,0.0,0.0,0.0,0.0,0.0,0.0,0.0,0.0,0.0,0.0,0.0,0.0,0.0,0.0,0.0,0.0,0.0,0.0,0.0,0.0,0.0,0.0,0.0,0.0,0.0,0.0,0.0,0.0,0.0,0.0,0.0,0.0,0.0,0.0,0.0,0.0,0.0,0.0,0.0,0.0,0.0,0.0,0.0,0.0,0.0,0.0,0.0,0.0,0.0,0.0,0.0,0.0,0.0,0.0,0.0,0.0,0.0,6.7767,6.8134,6.732,6.6799,6.6616,6.6616,6.4016,6.5381,6.9089,0.0,0.0,0.0,0.0,0.0,0.0,0.0,0.0,0.0,0.0,0.0,0.0,0.0,0.0,0.0,0.0,0.0,0.0,0.0,0.0,3.5436,3.5746,3.6372,3.6829,3.6925,3.6959,3.75,3.8774,3.8842,0.0,0.0,0.0,4.01,4.0758,4.0235,4.1223,4.3863,4.6827,4.8748,4.9635,4.9018,4.8883,4.9127,4.6894,4.4723,4.2807,0.0,0.0,0.0,0.0,0.0,0.0,0.0,0.0,0.0,0.0,0.0,0.0,0.0,0.0,0.0,0.0,0.0,0.0,0.0,0.0,0.0,0.0,0.0,0.0,0.0,0.0,0.0,0.0,0.0,0.0,0.0,0.0,0.0,0.0,0.0,0.0,0.0,0.0,0.0,0.0,0.0,5.162,5.5687,0.0,0.0,0.0,0.0,0.0,0.0,0.0,0.0,0.0,0.0,0.0,0.0,0.0,6.4684,6.7901,6.8157,6.8678,6.9493,7.1101,7.1461,7.0683,7.1277,7.1945,7.2429,6.9302,0.0,6.7063,6.8318,0.0,0.0,0.0,0.0,0.0,0.0,0.0,0.0,0.0,0.0,0.0,0.0,0.0,0.0,0.0,0.0,0.0,0.0,0.0,0.0,0.0,3.7962,3.882,3.9248,4.0438,4.1088,4.0878,4.0838,0.0,0.0,4.0703,4.0865,4.1197,4.213,4.4303,4.768,4.8992,5.0447,5.1995,5.1691,5.1683,5.1961,5.1014,4.8376,4.4742,4.5507,0.0,0.0,0.0,0.0,0.0,0.0,0.0,0.0,0.0,0.0,0.0,0.0,0.0,0.0,0.0,0.0,0.0,0.0,0.0,0.0,0.0,0.0,0.0,0.0,0.0,0.0,0.0,0.0,0.0,0.0,0.0,0.0,0.0,0.0,0.0,0.0,0.0,0.0,0.0,5.0942,5.3924,5.7705,5.6911,5.6113,0.0,0.0,0.0,0.0,0.0,0.0,0.0,0.0,0.0,6.724,6.6549,6.743,7.0206,7.069,7.1321,7.2136,7.3303,7.3443,7.2679,7.301,7.3384,7.3604,7.2209,7.1211,7.0484,6.9743,6.9112,6.8481,0.0,0.0,0.0,0.0,6.4224,6.434,0.0,0.0,0.0,0.0,0.0,0.0,0.0,0.0,0.0,0.0,0.0,0.0,3.8593,4.006,4.1251,4.2016,4.3443,4.3721,4.2401,4.2293,4.1988,4.1231,4.1366,4.1569,4.1772,4.4357,4.7233,5.0371,5.0955,5.2232,5.405,5.405,5.405,5.405,5.405,5.1378,4.688,4.7597,4.6515,4.4147,0.0,0.0,0.0,0.0,0.0,0.0,0.0,0.0,0.0,0.0,0.0,0.0,0.0,0.0,0.0,0.0,0.0,0.0,0.0,0.0,0.0,0.0,0.0,0.0,0.0,0.0,0.0,0.0,0.0,0.0,0.0,0.0,0.0,0.0,0.0,0.0,0.0,5.4188,5.6508,5.9753,5.9627,5.9164,0.0,0.0,0.0,0.0,0.0,0.0,6.5845,6.6582,6.7945,7.0003,6.9249,6.9865,7.2167,7.2577,7.3061,7.3656,7.4272,7.4294,7.3714,7.3714,7.3824,7.4001,7.4001,7.4001,7.3817,7.1211,7.058,7.1123,6.9509,6.8054,6.6769,6.6586,6.6543,6.6543,0.0,0.0,0.0,0.0,0.0,0.0,0.0,0.0,0.0,0.0,0.0,3.9377,4.0859,4.2341,4.3565,4.4371,4.3842,4.3125,4.2361,4.2293,4.1988,4.1231,4.188,4.2557,4.3288,4.6913,4.9552,5.1133,5.3315,5.4803,5.5597,5.5597,5.5597,5.5597,5.5597,5.3441,4.994,5.0668,4.9315,4.6532,4.5508,0.0,0.0,0.0,0.0,0.0,0.0,0.0,0.0,0.0,0.0,0.0,0.0,0.0,0.0,0.0,0.0,0.0,0.0,0.0,0.0,0.0,0.0,0.0,0.0,0.0,0.0,0.0,0.0,0.0,0.0,0.0,0.0,0.0,0.0,0.0,0.0,0.0,0.0,6.2272,6.4917,0.0,0.0,0.0,0.0,6.4474,6.5339,6.6635,6.8159,6.8276,6.9821,7.3177,7.2319,7.2684,7.4517,7.3807,7.3478,7.3514,7.3678,7.3751,7.3714,7.3714,7.4111,7.4837,7.4837,7.4837,7.4757,7.3854,7.2606,7.1123,6.9509,6.8385,6.7811,6.9309,6.986,7.0293,0.0,0.0,0.0,3.4969,3.5093,3.5205,3.5205,3.5661,3.618,3.6722,3.891,4.0629,4.113,4.4234,4.6399,4.6718,4.7752,4.7921,4.6684,4.571,4.4864,4.414,4.3396,4.4478,4.7631,4.9484,5.1607,5.4109,5.493,5.5428,5.5699,5.5699,5.5699,5.5699,5.5699,5.4964,5.3678,5.3484,5.1928,4.9534,4.8206,4.6832,0.0,0.0,0.0,0.0,0.0,0.0,0.0,0.0,0.0,0.0,0.0,0.0,0.0,0.0,0.0,0.0,0.0,0.0,0.0,0.0,0.0,0.0,0.0,0.0,0.0,0.0,0.0,0.0,0.0,0.0,0.0,0.0,0.0,0.0,0.0,0.0,0.0,6.0927,6.3704,0.0,6.3544,6.5668,6.7058,6.6896,6.9203,7.1069,7.2089,7.2211,7.2594,7.3275,7.2966,7.3076,7.3721,7.36,7.3755,7.4283,7.4396,7.447,7.447,7.447,7.4617,7.4903,7.4903,7.4903,7.4867,7.4581,7.414,7.3546,7.2995,7.2599,7.2386,7.2966,7.3186,7.3333,0.0,0.0,0.0,3.5026,3.5207,3.548,3.5932,3.6479,3.7263,3.8482,4.0561,4.2516,4.4045,4.7075,4.924,4.9747,5.0863,5.0728,4.8774,4.7725,4.6515,4.4978,4.4911,4.6778,5.0752,5.1581,5.3332,5.608,5.608,5.6215,5.6452,5.6452,5.6452,5.6452,5.6452,5.6316,5.6046,5.5547,5.4194,5.219,5.0431,4.8571,4.6544,0.0,0.0,0.0,0.0,0.0,0.0,0.0,0.0,0.0,0.0,0.0,0.0,0.0,0.0,0.0,0.0,0.0,0.0,0.0,0.0,0.0,0.0,0.0,0.0,0.0,0.0,0.0,0.0,0.0,0.0,0.0,0.0,0.0,0.0,0.0,5.9886,6.0517,6.3425,6.5235,6.4851,6.6879,6.8854,7.0346,7.2066,7.3384,7.4067,7.392,7.3606,7.3135,7.3089,7.319,7.3544,7.3652,7.4005,7.4524,7.467,7.4885,7.5141,7.5141,7.5318,7.5635,7.5635,7.5666,7.5711,7.5711,7.5711,7.5674,7.5124,7.4903,7.4903,7.4903,7.4903,7.4903,0.0,0.0,3.343,3.3967,3.4519,3.5299,3.6613,3.6829,3.8143,4.1792,4.2956,4.5148,4.9567,5.0803,5.1877,5.3374,5.2807,5.1108,4.8184,4.7954,4.6628,4.3686,4.6425,4.9409,5.23,5.3179,5.4659,5.6833,5.6867,5.7239,5.7924,5.7967,5.7967,5.7924,5.7924,5.7509,5.6833,5.6833,5.5996,5.4473,5.2224,5.0423,4.8706,0.0,0.0,0.0,0.0,0.0,0.0,0.0,0.0,0.0,0.0,0.0,0.0,0.0,0.0,0.0,0.0,0.0,0.0,0.0,0.0,0.0,0.0,0.0,0.0,0.0,0.0,0.0,0.0,0.0,0.0,0.0,0.0,0.0,5.8593,6.03,6.1292,6.1381,6.4686,6.7552,6.9162,6.9964,7.1648,7.4716,7.3568,7.3051,7.3803,7.312,7.2802,7.3021,7.2834,7.3241,7.4215,7.4223,7.4259,7.4296,7.4454,7.4926,7.5684,7.572,7.6253,7.7166,7.7166,7.7252,7.7384,7.7347,7.7384,7.7208,7.5637,7.5014,7.5014,7.505,7.5058,7.5058,3.3333,3.4179,3.492,3.5131,3.5769,3.6357,3.6733,3.7252,3.8531,4.117,4.3565,4.6136,4.8984,5.1446,5.3036,5.3441,5.3315,5.2359,5.0423,4.9273,4.8097,4.673,4.9518,5.1995,5.3932,5.5243,5.6461,5.7586,5.8143,5.8515,5.8718,5.9235,5.9201,5.8684,5.8684,5.8287,5.7586,5.7586,5.7036,5.6089,5.493,5.3239,5.1217,0.0,0.0,0.0,0.0,0.0,0.0,0.0,0.0,0.0,0.0,0.0,0.0,0.0,0.0,0.0,0.0,0.0,0.0,0.0,0.0,0.0,0.0,0.0,0.0,0.0,0.0,0.0,0.0,0.0,0.0,0.0,5.8628,5.9839,6.1058,6.1701,6.2468,6.3572,6.6063,6.7651,6.7594,6.8729,7.0062,7.1576,7.1211,7.1565,7.3025,7.2845,7.2976,7.3636,7.3611,7.3965,7.4848,7.4986,7.5342,7.596,7.6668,7.7113,7.7361,7.7944,7.837,7.8601,7.8601,7.8744,7.8868,7.8723,7.8865,7.9001,7.7965,7.7598,7.7635,7.823,7.845,7.8376,3.3049,3.3893,3.4785,3.5349,3.6037,3.6822,3.7598,3.7821,3.9269,4.3064,4.4783,4.7015,5.0507,5.2469,5.3509,5.3509,5.29,5.1877,5.0397,4.918,4.8901,4.9713,5.1995,5.4135,5.5928,5.7137,5.8084,5.8804,5.9259,5.9462,5.9462,5.9911,5.9868,5.9462,5.9462,5.9235,5.8804,5.849,5.8118,5.7669,5.6925,5.5099,5.2773,5.2325,5.1243,4.9822,4.9078,4.8482,4.7909,4.6722,0.0,0.0,0.0,0.0,0.0,0.0,0.0,0.0,0.0,0.0,0.0,0.0,0.0,0.0,0.0,0.0,0.0,0.0,0.0,0.0,0.0,0.0,0.0,0.0,6.0544,6.2314,6.3864,6.3644,6.3742,6.4911,6.6234,6.7106,6.7344,6.8098,6.9226,7.0758,7.0466,7.0948,7.2648,7.2356,7.27,7.3871,7.3897,7.4626,7.6077,7.6231,7.668,7.7478,7.8015,7.8283,7.8319,7.8784,7.9044,0.0,7.912,7.922,7.9377,7.9261,7.9344,0.0,0.0,0.0,0.0,0.0,7.9294,7.9184,3.2252,3.3031,3.4039,3.5104,3.5869,3.6849,3.8426,3.8336,4.006,4.5725,4.6073,4.7759,5.2799,5.3441,5.3509,5.3509,5.2089,5.0592,4.9221,4.8665,4.9645,5.2435,5.4033,5.5827,5.7992,5.8684,5.9361,6.0114,6.0182,6.025,6.025,6.0317,6.0317,6.025,6.025,6.0182,6.0047,5.9394,5.9115,5.9056,5.833,5.6359,5.389,5.389,5.2968,5.1607,5.098,5.0304,4.9619,4.88,0.0,0.0,0.0,0.0,0.0,0.0,0.0,0.0,0.0,0.0,0.0,0.0,0.0,0.0,0.0,0.0,0.0,0.0,0.0,0.0,0.0,0.0,0.0,0.0,6.14,6.3802,6.643,6.5652,6.5087,6.574,6.5808,6.6378,6.7855,6.7918,6.8842,7.1053,7.0603,7.0854,7.2392,0.0,0.0,0.0,0.0,7.5174,7.7311,7.7443,7.7857,7.858,7.8731,7.8847,7.8847,7.8919,7.9078,7.9241,7.9241,7.9335,7.9442,7.9417,7.9425,7.9467,7.9556,7.9734,7.9821,7.9116,7.8794,7.8626,3.373,3.4748,3.5633,3.5899,3.6521,3.6965,3.677,3.8012,4.0247,4.3818,4.5632,4.8105,5.2097,5.3112,5.3509,5.3509,5.2089,5.0837,4.994,5.0879,5.2266,5.4067,5.5581,5.7137,5.8752,5.8921,5.9361,6.0114,6.0757,6.1061,6.1095,6.167,6.1637,6.1061,6.1061,6.0723,6.008,5.9945,5.9877,5.98,5.909,5.7737,5.6156,5.6156,5.5606,5.482,5.4659,5.4524,5.4211,5.2866,5.2325,5.1995,5.0736,4.983,0.0,0.0,0.0,0.0,0.0,0.0,0.0,0.0,0.0,0.0,0.0,0.0,0.0,0.0,0.0,0.0,0.0,0.0,0.0,6.2439,6.4502,6.6159,6.6734,6.6565,6.643,6.6565,6.6599,6.6943,6.7823,6.79,6.8349,6.9472,6.9945,7.0631,7.1586,7.2669,7.3686,7.4689,7.5277,7.5839,7.629,7.7029,7.7518,7.767,0.0,0.0,7.9671,8.0323,8.0666,8.0702,8.0702,8.078,8.0955,8.078,8.0815,8.0908,8.0423,8.0343,8.0508,8.0353,7.9974,7.9449,3.4627,3.5221,3.5763,3.6189,3.6827,3.7255,3.7169,3.8041,3.9882,4.3119,4.416,4.6133,5.0204,5.0668,5.0837,5.1217,5.0533,5.0093,5.0109,5.186,5.3754,5.5624,5.7094,5.8414,5.953,5.9936,6.0511,6.124,6.1637,6.1839,6.1849,6.2221,6.2188,6.1839,6.1839,6.1646,6.124,6.0858,6.0689,6.0622,5.9868,5.8887,5.7872,5.7476,5.7137,5.6765,5.6384,5.6249,5.608,5.4955,5.4591,5.4456,5.3704,5.2697,5.1522,0.0,0.0,0.0,0.0,0.0,0.0,0.0,0.0,0.0,0.0,0.0,0.0,0.0,0.0,5.8118,5.8863,0.0,6.3081,6.3453,6.5381,6.6937,6.7309,6.7343,6.7343,6.7343,6.7343,6.7658,6.8436,6.8842,6.9225,6.9631,7.068,7.149,7.1895,7.2976,7.3975,7.4827,7.522,7.5778,7.6596,7.7052,7.7502,7.7911,7.9131,7.994,8.0427,8.1244,8.1865,8.2287,8.2287,8.2133,8.1824,8.1309,8.1146,8.1216,8.0895,8.0921,8.1175,8.1259,8.0837,8.0165,3.5293,3.5385,3.5622,3.631,3.6766,3.7096,3.7375,3.7989,3.9462,4.2303,4.3006,4.4627,4.8195,4.8299,4.8225,4.8545,4.9112,4.9695,5.0278,5.257,5.4896,5.7128,5.838,5.9428,6.0317,6.1095,6.1806,6.2391,6.2526,6.2618,6.2618,6.2618,6.2618,6.2618,6.2618,6.2526,6.2357,6.1782,6.1501,6.1434,6.0655,5.9868,5.9124,5.8389,5.8026,5.7823,5.7248,5.6833,5.6553,5.6249,5.5936,5.5767,5.6046,5.5133,5.3644,5.208,5.0592,0.0,0.0,0.0,0.0,0.0,0.0,0.0,0.0,5.635,5.7433,5.8906,5.9776,6.0477,6.1061,6.2811,6.412,6.412,6.5753,6.7208,6.7827,6.803,6.8199,6.8335,6.8233,6.8436,6.9248,6.9969,7.0477,7.0612,7.1853,7.2597,7.2597,7.3319,7.4037,7.4745,7.4904,7.5612,7.69,7.709,7.751,7.8157,7.8925,7.9667,8.0448,8.1078,8.1776,8.2503,8.2503,8.2143,8.1494,8.0818,8.0566,8.0593,8.0746,8.0994,8.1266,8.1501,8.1165,8.0459,3.5868,3.601,3.6174,3.6423,3.6044,3.5541,3.4983,3.7455,3.9516,3.9969,4.3678,4.6511,4.7054,4.8187,4.8376,4.7165,4.945,5.0998,5.1066,5.3805,5.6443,5.8641,5.8912,5.9665,6.1129,6.1917,6.2323,6.2391,6.3047,6.3386,6.3386,6.3386,6.3386,6.3386,6.3386,6.3024,6.2391,6.2323,6.2289,6.2221,6.1467,6.0689,5.9911,5.9158,5.8457,5.79,5.7823,5.6934,5.6003,5.7239,5.6799,5.5944,5.7239,5.663,5.5158,5.3678,5.2156,5.0626,4.9146,5.0304,5.2164,5.3145,5.5209,5.7451,0.0,6.0597,6.2086,6.3565,6.4454,6.4962,6.5063,6.5831,6.6419,6.6419,6.7174,6.7793,6.7895,6.8504,6.9214,6.9868,6.935,6.9248,7.0003,7.0737,7.1436,7.209,7.2913,7.3387,7.3387,7.4086,7.4527,7.4632,7.5254,7.5686,7.5871,7.6701,7.7172,7.7252,7.8124,7.8566,7.867,7.8776,7.8863,7.8966,7.8966,7.8931,7.8814,7.8744,7.8709,7.8779,7.9505,7.9817,7.9984,8.0425,8.0271,7.9895,3.5965,3.6124,3.6243,3.6453,3.5937,3.5218,3.4448,3.6604,3.8459,3.8803,4.1299,4.3548,4.4805,4.5824,4.6191,4.5582,4.8206,5.0288,5.1133,5.4008,5.6519,5.8287,5.9191,5.9936,6.0588,6.1782,6.2391,6.2391,6.2719,6.2854,6.2854,6.2854,6.2854,6.2854,6.2854,6.2695,6.2391,6.2391,6.2391,6.2357,6.2042,6.1197,6.008,5.9776,5.893,5.7789,5.6934,5.6206,0.0,5.6418,5.6215,5.5969,5.7442,5.69,5.5395,5.3915,5.2697,5.1987,5.2697,5.3272,5.4329,5.7306,5.8626,5.9674,6.1627,6.2922,6.3971,6.5019,6.5831,6.6339,6.6339,6.6599,6.6937,6.7377,6.7692,6.8199,6.9113,6.953,7.0161,7.1345,7.121,7.1142,7.1447,7.1751,7.2259,7.2981,7.3713,7.4153,7.4153,7.483,7.5236,7.5236,7.554,7.5709,7.5709,7.6101,7.6311,7.6311,7.7137,7.7808,7.8363,7.9245,8.0159,8.1067,8.0565,8.0686,8.1149,8.0724,8.0547,8.0582,8.0912,8.1124,8.1185,8.0953,8.0809,8.0723,3.6029,3.6187,3.6275,3.6214,3.566,3.5007,3.4373,3.5971,3.737,3.7741,3.967,4.1688,4.361,4.4114,4.4391,4.4594,4.6928,4.912,5.0803,5.3534,5.5944,5.7832,5.9133,5.9902,6.0114,6.1612,6.2289,6.2086,6.2482,6.2685,6.2685,6.2685,6.2685,6.2685,6.2685,6.2594,6.2391,6.2391,6.2391,6.2391,6.2188,6.1298,6.008,5.9868,5.8761,5.7137,5.6071,5.5428,5.509,5.509,5.482,5.4718,5.6224,5.5674,5.4279,5.3408,5.2773,5.2807,5.509,5.5775,5.6731,6.0622,6.1603,6.2076,6.3724,6.4671,6.5358,6.5899,6.644,6.6802,6.6802,6.6971,6.7275,6.7793,6.8267,6.891,7.0037,7.0375,7.0906,7.1988,7.2293,7.2462,7.2665,7.2902,7.324,7.3759,7.4492,7.4987,7.5224,7.554,7.5811,7.6014,7.5811,7.5709,7.5709,7.5912,7.6014,7.6048,7.6826,7.7574,7.8235,7.931,8.0465,8.1584,8.1016,8.1118,8.1725,8.1186,8.0975,8.0975,8.0975,8.1182,8.1408,8.0861,8.1433,8.2436,3.6156,3.6352,3.6299,3.5629,3.499,3.4536,3.4489,3.5662,3.6535,3.6539,3.9978,4.2979,4.4415,4.3951,4.3808,4.4552,4.5988,4.7815,4.9973,5.23,5.4871,5.7755,5.8626,5.9361,6.008,6.1612,6.2052,6.1332,6.2777,6.3477,6.3477,6.3477,6.3477,6.3477,6.3477,6.3081,6.2391,6.2391,6.2391,6.2357,6.1637,6.0858,6.0013,5.9327,5.766,5.5767,5.5733,5.4786,5.3577,5.3577,5.2554,5.1607,5.3137,5.2596,5.1472,5.2131,5.2334,5.2807,5.509,5.7255,5.9428,6.1782,6.3947,6.5537,6.5605,6.6203,6.6734,6.6768,6.6768,6.6802,6.6802,6.7377,6.7861,6.7895,6.9157,7.0139,7.0206,7.0804,7.13,7.1334,7.1943,7.2665,7.3387,7.4119,7.4547,7.4547,7.5236,7.6014,7.6792,7.6115,7.6048,7.6826,7.6115,7.5709,7.5709,7.6454,7.686,7.686,7.7616,7.7979,7.8003,7.8071,7.8083,7.8154,7.812,7.8145,7.8169,7.8135,7.8123,7.8123,7.8123,7.8658,7.9373,7.9373,8.178,8.4991,3.6068,3.6297,3.6422,3.6207,3.5599,3.5175,3.5175,3.5538,3.5966,3.6381,3.9542,0.0,0.0,0.0,0.0,0.0,4.5954,4.7334,4.8571,5.1175,5.3585,5.5624,5.7349,5.8626,5.9361,6.0351,6.0757,6.052,6.0984,6.1221,6.1221,6.1221,6.1221,6.1221,6.1221,6.1129,6.0858,6.0858,6.0858,6.0858,6.0588,5.9471,5.7881,5.7636,5.6181,5.4118,0.0,5.2385,5.1979,5.1979,5.1641,5.1539,5.3585,5.3179,5.2291,5.4042,5.4549,5.5369,5.9133,6.1052,6.2405,6.415,6.5527,6.644,6.644,6.6633,6.6802,6.6802,6.6802,6.6937,6.7444,6.7726,6.8233,6.9259,6.9868,7.0375,7.0872,7.1131,7.1672,7.2631,7.2981,7.3624,7.4842,7.4728,7.5021,7.6048,7.5845,7.6048,7.686,7.6149,7.5811,7.6082,7.6352,7.6487,7.6487,7.7232,7.765,7.765,7.7887,7.8259,7.872,7.872,7.8991,7.9477,7.9477,7.9806,8.0381,8.0381,8.0381,8.0381,8.0381,8.0572,8.0821,8.0821,8.2395,8.4363,3.6163,3.6344,3.6515,3.6515,3.5937,0.0,0.0,0.0,0.0,0.0,0.0,0.0,0.0,0.0,0.0,0.0,0.0,4.6455,4.7455,4.9518,5.142,5.2925,5.4846,5.6122,5.6587,5.7611,5.8118,5.8118,5.8939,5.9302,5.9345,5.9844,6.0114,6.0114,6.0114,6.0114,6.0114,6.0114,5.9945,5.9665,5.9124,5.7915,5.635,5.5809,5.4389,0.0,5.1573,5.0863,5.0423,5.0423,5.0423,5.0769,5.2773,5.3078,5.3205,5.5741,5.6486,5.7399,6.1637,6.3318,6.4231,6.573,6.643,6.6802,6.6802,6.6802,6.6802,6.6802,6.6802,6.7039,6.776,6.8132,6.8741,7.0003,7.0646,7.1041,7.1267,7.174,7.2326,7.3015,7.359,7.4255,7.5202,7.5134,7.5393,7.6386,7.598,7.6048,7.686,7.642,7.6251,7.6487,7.7029,7.7299,7.7299,7.801,7.853,7.88,7.88,7.9025,7.9486,7.9486,7.9756,8.0209,8.0209,8.0529,8.1087,8.1087,8.1087,8.1087,8.1087,8.1087,8.1087,8.1087,8.1795,8.272,3.6437,3.6476,3.6515,0.0,0.0,0.0,0.0,0.0,0.0,0.0,0.0,0.0,0.0,0.0,0.0,0.0,0.0,0.0,4.659,4.7421,4.8503,4.9906,5.1386,5.2198,5.2232,5.3721,5.4473,5.4473,5.6639,5.7654,5.7721,5.9099,5.9776,5.9776,5.9776,5.9776,5.9776,5.9776,5.9361,5.8616,5.7196,5.6147,5.5327,5.3915,5.2427,5.11,5.11,5.0194,4.9011,4.9011,4.9112,4.9484,5.0998,5.2528,5.4355,5.7282,5.8161,5.9007,6.2675,6.4197,6.5043,6.6464,6.6802,6.6802,6.6802,6.6724,6.67,6.67,6.6667,6.6869,6.759,6.8436,6.9282,7.0003,7.1379,7.2124,7.1436,7.2563,7.3218,7.2597,7.3736,7.4615,7.4649,7.5303,7.5709,7.5709,0.0,7.6082,7.6893,7.6927,7.7244,7.7988,7.8022,7.8056,7.8056,7.8788,7.952,8.0209,8.0209,8.0209,8.0209,8.0209,8.0209,8.0242,8.0242,8.0276,8.031,8.031,8.031,8.031,8.031,8.0276,8.0242,8.0242,8.0242,8.0465,0.0,0.0,0.0,0.0,0.0,0.0,0.0,0.0,0.0,0.0,0.0,0.0,0.0,0.0,0.0,0.0,0.0,0.0,4.5149,4.6353,4.7488,4.8436,4.9864,5.0913,5.1472,5.2401,5.2875,5.2875,5.4059,5.4634,5.4634,5.5006,5.5166,5.5166,5.5166,5.5166,5.5166,5.5166,5.5065,5.4862,5.449,5.3543,5.2317,5.1945,5.0871,4.9552,4.9552,4.9315,4.9011,4.9011,5.0499,5.2706,5.4727,5.6384,5.8075,6.053,6.1637,6.2642,6.5246,6.6092,6.6328,6.67,6.6802,6.6802,6.6802,6.5956,6.5155,6.5155,6.4705,6.4569,6.5324,6.6948,6.847,6.9248,7.0635,7.1706,7.209,7.2428,7.3037,7.3939,7.4378,7.4818,7.5371,7.5574,7.5709,7.5709,7.5709,7.6284,7.765,7.7198,7.7244,7.7988,7.8517,7.8822,7.8822,7.9566,8.0006,8.0209,8.0209,8.0209,8.0209,8.0209,8.0492,8.1033,8.1033,8.1325,8.182,8.182,8.182,8.182,8.182,8.1494,8.1033,8.1033,8.0661,8.0259,0.0,0.0,0.0,0.0,0.0,0.0,0.0,0.0,0.0,0.0,0.0,0.0,0.0,0.0,0.0,0.0,0.0,0.0,0.0,4.5379,4.6015,4.6447,4.7564,4.8368,4.8766,4.9526,4.9898,4.9898,5.098,5.1522,5.1547,5.219,5.2494,5.2494,5.2494,5.2494,5.2528,5.2833,5.2799,0.0,0.0,5.1784,5.0668,5.0364,4.9721,4.9011,4.9011,4.9011,4.9315,5.1277,5.2841,5.4465,5.734,5.8829,6.0071,6.3,6.3666,6.3984,6.6193,6.6802,6.6802,6.6802,6.6802,6.6633,6.599,6.5178,6.441,6.3768,6.3555,6.3825,6.4884,6.6609,6.8267,6.9383,7.0804,7.1921,7.2326,7.2969,7.3668,7.4514,7.4886,7.5371,7.6149,7.6217,7.6352,7.6702,7.642,7.6589,7.7481,7.7739,7.8077,7.8483,7.9194,7.9587,7.9587,8.0006,8.0344,8.0695,8.0695,8.0851,8.1156,8.1156,8.1393,8.1765,0.0,8.2035,8.2395,8.2395,8.2192,8.19,8.19,8.1473,8.083,8.083,8.056,8.0209,0.0,0.0,0.0,0.0,0.0,0.0,0.0,0.0,0.0,3.9676,4.0855,4.2153,4.3514,4.4215,0.0,0.0,0.0,0.0,0.0,0.0,4.4608,4.4608,4.5203,4.5561,4.5561,4.6285,4.6658,4.6658,4.8037,4.8714,4.8748,5.0025,5.0634,5.0634,5.0634,5.0634,5.066,5.1311,5.1209,5.0626,5.0728,5.0364,4.9737,0.0,4.9011,4.9011,4.9011,4.9052,4.983,5.4211,5.5344,5.5556,5.9336,6.0689,6.1467,6.4725,6.485,6.4367,6.6294,6.6802,6.6802,6.6802,6.6802,6.6396,6.4952,6.4444,6.3903,6.2391,6.2618,6.3487,6.486,6.6417,6.7963,6.9496,7.0906,7.1954,7.2326,7.3499,7.4412,7.4717,7.5405,7.6115,7.6826,7.6995,7.7312,7.7954,7.7515,7.7198,7.7198,7.8403,7.9147,7.9249,7.987,8.0209,8.0209,8.031,8.0661,8.1304,8.1405,8.1765,8.2395,8.2395,8.2462,8.253,8.253,0.0,8.2665,8.2598,8.2171,8.1575,8.1473,8.0999,8.0344,8.0344,8.0276,8.0209,0.0,0.0,0.0,0.0,0.0,0.0,0.0,0.0,0.0,0.0,4.1851,4.2853,0.0,0.0,0.0,0.0,0.0,0.0,0.0,0.0,0.0,4.4608,4.4702,4.4804,4.4804,4.55,4.5906,4.5906,4.6752,4.7199,4.7199,4.7436,4.7571,4.7571,4.7571,4.7571,4.7564,4.7706,4.7673,4.7605,4.8233,4.8394,4.8326,4.8808,4.9011,0.0,4.9011,4.939,5.0515,5.4389,5.6012,5.7171,6.1525,6.3768,6.486,6.5503,6.5967,6.6328,6.67,6.6802,6.6802,6.6802,6.6802,6.6396,6.4952,6.3676,6.2357,6.0825,6.0588,6.096,6.1907,6.3768,6.5662,6.714,6.8132,6.9553,7.2056,7.2631,7.3477,7.5303,7.6217,7.6758,7.6893,7.7447,7.7853,7.7988,7.845,7.8708,7.8708,7.8945,7.9384,8.0006,8.0141,8.0209,8.0209,8.0796,8.1169,8.1317,8.19,8.2259,8.2395,8.2395,8.2733,8.3321,8.3321,0.0,8.4187,8.3545,8.3219,8.305,8.2441,8.1765,8.1101,8.1101,8.0716,8.0209,0.0,0.0,0.0,0.0,0.0,0.0,0.0,3.9076,3.9984,4.1318,4.1789,4.2497,4.3885,4.4384,4.4447,0.0,0.0,0.0,0.0,0.0,0.0,4.4608,4.4608,4.4608,4.4608,4.4939,4.5135,4.5135,0.0,4.5657,4.5657,4.5657,4.5657,4.5657,4.5657,4.5657,4.5684,4.6049,4.6244,4.6278,4.7022,4.7556,4.7954,4.8293,4.8672,0.0,4.9011,4.9458,5.0549,5.3543,5.5572,5.7645,6.254,6.4816,6.5605,6.5233,6.5933,6.6633,6.5855,6.6497,6.7377,6.7377,6.7681,6.7309,6.4637,6.3497,6.2313,6.0003,5.9844,6.0452,6.1637,6.3362,6.5077,6.6565,6.7749,6.9417,7.2022,7.2732,7.3646,7.5473,7.642,7.7063,7.7447,7.8145,7.872,7.9139,7.9464,7.9486,7.9114,7.9452,7.9837,8.0175,8.0209,8.0378,8.0763,8.1101,8.1676,8.2454,8.2813,8.3172,8.3531,8.3531,8.3748,8.4052,8.4052,0.0,8.4546,8.3795,8.3287,8.2847,8.2103,8.1359,8.0729,8.0729,8.0513,8.0209,0.0,0.0,0.0,0.0,0.0,0.0,3.9322,3.9621,4.0138,4.1347,4.1501,4.1893,4.2961,4.3849,4.4143,0.0,0.0,0.0,0.0,0.0,0.0,0.0,0.0,0.0,4.4608,0.0,0.0,4.4608,4.4608,0.0,0.0,0.0,0.0,0.0,4.4608,4.4608,4.4642,4.5203,4.5466,0.0,0.0,4.7158,4.7684,0.0,0.0,0.0,0.0,4.9593,5.0642,5.2773,5.5074,5.7814,6.2245,6.4241,6.4928,6.4681,6.5425,6.6125,6.529,6.6339,6.7692,6.7861,6.8267,6.7715,6.4289,6.3386,6.2439,5.9588,5.9597,6.0554,6.212,6.3463,6.485,6.6328,6.759,6.9248,7.1819,7.2665,7.3691,7.5473,7.6555,7.7367,7.7954,7.8822,7.9587,8.0175,8.0209,7.9938,7.9384,7.9904,8.0209,8.0209,8.0209,8.056,8.1304,8.1473,8.2218,8.349,8.3659,8.4052,8.4614,8.4614,8.4614,8.458,8.4424,0.0,0.0,8.3389,8.2678,8.2103,8.1372,8.0729,8.0209,8.0209,8.0209,8.0209,0.0,0.0,0.0,0.0,0.0,0.0,3.9384,4.003,4.0656,4.1401,4.1501,4.155,4.1681,4.2831,4.3588,0.0,0.0,0.0,0.0,0.0,0.0,0.0,0.0,0.0,0.0,0.0,0.0,4.4608,4.4608,0.0,0.0,0.0,0.0,0.0,0.0,4.4608,4.4608,4.4668,0.0,0.0,0.0,0.0,0.0,0.0,0.0,0.0,0.0,4.989,5.1336,5.2968,5.5412,5.8127,5.9945,6.1501,6.2966,6.4241,6.4715,6.5053,6.6261,6.6768,6.7072,6.7726,6.7444,6.6396,6.4052,6.299,6.1849,5.9496,5.9597,6.0554,6.212,6.3057,6.4096,6.5571,6.5909,6.7252,7.0894,7.147,7.2552,7.5371,7.7007,7.7921,7.7988,7.9274,8.0141,8.0175,8.0209,8.0175,8.0107,8.0175,8.0209,8.0209,8.0209,8.056,8.1304,8.1968,8.2712,8.3524,8.4187,8.4512,8.4614,8.4614,8.4614,8.4546,8.3883,0.0,0.0,8.2082,8.1473,8.1338,8.0593,8.0242,8.0209,8.0209,8.0209,8.0209,0.0,0.0,0.0,0.0,0.0,0.0,3.9929,4.0329,4.0586,4.0846,4.0888,4.0888,4.0888,4.1714,4.2466,4.2862,0.0,0.0,0.0,0.0,0.0,0.0,0.0,0.0,0.0,0.0,4.4608,4.4608,4.4608,0.0,0.0,0.0,0.0,0.0,0.0,4.4608,4.4608,4.4608,0.0,0.0,0.0,0.0,0.0,0.0,0.0,0.0,0.0,0.0,5.1302,5.1911,5.4118,5.6689,5.7264,5.849,5.9988,6.1467,6.3193,6.4546,6.4241,6.5764,6.7658,6.8436,6.8741,6.8132,6.5425,6.459,6.3642,6.095,6.0612,6.1163,6.2188,6.299,6.3825,6.4884,6.6146,6.803,7.0894,7.2045,7.3578,7.6115,7.7345,7.7988,7.7988,7.9329,8.0209,8.0209,8.0209,8.0209,8.0209,8.0209,8.0209,8.0209,8.0209,8.056,8.1304,8.2035,8.253,8.2834,8.4052,8.439,8.395,8.395,8.395,8.3896,8.3139,0.0,0.0,8.1744,8.1304,8.1236,8.0479,8.0209,8.0209,8.0209,8.0209,8.0209,0.0,0.0,0.0,0.0,0.0,3.8953,4.0298,4.0513,4.0513,4.0513,4.0513,4.0513,4.0513,4.1108,4.1705,4.2157,4.3469,0.0,0.0,0.0,0.0,0.0,0.0,0.0,0.0,0.0,4.4608,4.4608,4.4608,4.4608,0.0,0.0,4.4608,4.4608,0.0,0.0,0.0,0.0,0.0,0.0,0.0,0.0,0.0,0.0,0.0,0.0,0.0,0.0,0.0,0.0,0.0,5.5124,5.5564,5.6553,5.7924,5.9607,6.1603,6.3226,6.3101,6.4952,6.7286,6.8741,6.8988,6.8312,6.618,6.5199,6.4082,6.1772,6.1298,6.1535,6.2255,6.3193,6.3994,6.4512,6.6474,6.8707,7.0996,7.2563,7.4266,7.6284,7.7413,7.7988,7.7988,7.9329,8.0209,8.0209,8.0209,8.0209,8.0209,8.0209,8.0209,8.0209,8.0209,8.056,8.1304,8.1832,8.2171,8.2395,8.3443,8.368,8.3186,8.3389,8.3389,8.3152,8.2644,0.0,0.0,8.127,8.0966,8.0932,8.0412,8.0209,8.0209,8.0209,8.0344,8.0513,0.0,0.0,0.0,0.0,0.0,0.0,4.0298,4.0513,4.0513,4.0513,4.0513,4.0513,4.0513,4.1108,4.1501,4.1509,4.2738,0.0,0.0,0.0,0.0,0.0,0.0,0.0,0.0,0.0,4.4608,4.4608,4.4608,4.4608,4.4608,4.4608,4.4608,4.4608,0.0,0.0,0.0,0.0,0.0,0.0,0.0,0.0,4.8984,0.0,0.0,0.0,0.0,0.0,0.0,0.0,0.0,0.0,0.0,5.6215,5.723,5.9438,6.0114,6.0791,6.3768,6.4613,6.5358,6.8368,6.7421,6.574,6.5717,6.4025,6.2221,6.1467,6.1298,6.1535,6.2255,6.3599,6.458,6.4613,6.6474,6.8707,7.0996,7.2563,7.4063,7.554,7.7075,7.7988,7.7988,7.9329,8.0209,8.0209,8.0209,0.0,8.0209,8.0209,8.0209,8.0209,8.0209,8.056,8.1304,8.1317,8.1676,8.2395,8.2428,8.2428,8.2428,8.3186,8.3084,0.0,0.0,0.0,0.0,8.0526,8.0209,8.0209,8.0209,8.0209,8.0209,8.0209,8.0661,8.127,0.0,0.0,0.0,0.0,0.0,0.0,4.036,4.0513,4.0513,4.0513,4.0513,4.0513,4.0513,4.0689,4.0826,4.0826,4.2466,0.0,0.0,0.0,0.0,0.0,0.0,0.0,0.0,4.4608,4.4608,4.4608,4.4608,4.4608,4.4608,4.4608,4.4608,4.4608,4.4608,4.4608,0.0,0.0,0.0,0.0,0.0,4.7665,4.9011,0.0,0.0,0.0,0.0,0.0,0.0,0.0,0.0,0.0,0.0,0.0,0.0,5.8229,5.9312,6.0317,6.1264,6.2279,6.3575,6.5527,6.5493,6.4952,6.4952,6.441,6.3531,6.2323,6.2052,6.2279,6.3014,6.3937,6.4783,6.5266,6.6779,6.8707,7.0996,7.2563,7.4436,7.6973,7.8145,7.8957,7.9431,7.9464,7.9667,8.0175,8.0209,8.0209,8.0209,8.0209,8.0209,8.0209,8.0209,8.031,8.056,8.1033,8.1169,8.0919,8.1921,8.2137,8.1676,8.1879,8.1879,0.0,0.0,0.0,0.0,8.031,8.0209,8.0209,8.0209,8.0209,8.0242,8.0763,8.1101,8.1372,0.0,0.0,0.0,0.0,0.0,0.0,4.039,4.0513,4.0513,4.0513,4.0513,4.0513,4.0513,4.0513,4.0513,4.0513,4.2102,0.0,0.0,0.0,0.0,0.0,0.0,0.0,4.4608,4.4608,4.4608,4.4608,4.4608,4.4608,4.4608,4.4608,4.4608,4.4608,4.4608,4.4608,0.0,0.0,0.0,0.0,4.709,4.7936,4.9011,0.0,0.0,0.0,0.0,0.0,0.0,0.0,0.0,0.0,0.0,0.0,0.0,0.0,5.8533,5.937,5.9945,6.0791,6.2018,6.4072,6.4174,6.3903,6.4478,6.4174,6.3497,6.2594,6.2627,6.2956,6.3419,6.4343,6.5358,6.6349,6.7567,6.9147,7.1402,7.2732,7.4503,7.7244,7.8483,7.9283,7.9735,7.9634,7.9701,8.0175,8.0209,8.0209,8.0209,8.0209,8.0209,8.0209,8.0209,8.0209,8.0209,8.0661,8.0648,8.0209,8.1122,8.1325,8.0898,8.1169,8.1135,0.0,0.0,0.0,0.0,8.0209,8.0209,8.0242,8.0513,8.0627,8.0682,8.1426,8.1879,8.2184,0.0,0.0,0.0,0.0,0.0,0.0,0.0,4.0513,4.0513,4.0513,4.0513,4.0513,4.0513,4.0513,4.0513,4.0513,0.0,0.0,0.0,0.0,0.0,0.0,0.0,0.0,4.4608,4.4608,4.4608,4.4608,4.4608,4.4608,4.4608,4.4608,4.4608,4.4608,4.4608,4.4608,0.0,0.0,0.0,0.0,4.7582,4.8326,0.0,0.0,0.0,0.0,0.0,0.0,0.0,0.0,0.0,0.0,0.0,0.0,0.0,0.0,0.0,0.0,0.0,5.9979,6.0723,6.3565,6.3294,6.2695,6.4106,6.3372,0.0,6.2458,6.3014,6.3511,6.3656,6.485,6.6315,6.7692,6.8673,6.9981,7.2022,7.315,7.4571,7.6792,7.8302,7.9181,7.9181,7.9803,8.0209,8.0209,8.0209,8.0209,8.0209,8.0209,8.0209,8.0209,8.0209,8.0209,8.0209,8.0209,8.0209,8.0209,8.0209,8.0209,8.0209,8.0898,8.0864,0.0,0.0,0.0,0.0,8.0276,8.031,8.0412,8.1101,8.1372,8.1473,8.2205,8.2915,8.349,0.0,0.0,0.0,0.0,0.0,0.0,0.0,0.0,0.0,0.0,4.0513,4.0513,4.0513,4.0513,4.0513,0.0,0.0,0.0,0.0,0.0,0.0,0.0,0.0,0.0,4.4608,4.4608,4.4608,4.4608,4.4608,4.4608,4.4608,4.4608,4.4608,4.4608,4.4608,4.4608,0.0,0.0,0.0,0.0,4.7582,4.8326,0.0,0.0,0.0,0.0,4.9052,4.912,0.0,0.0,0.0,0.0,0.0,0.0,0.0,0.0,5.7485,5.7273,5.8161,0.0,5.9564,6.0858,6.1366,6.1806,0.0,6.2661,6.256,6.3115,6.3386,6.3859,6.4952,6.6373,6.7489,6.7827,6.9519,7.0962,7.1503,7.4187,7.6724,7.8403,7.9397,7.9938,7.9938,8.0107,8.0209,8.0209,8.0209,8.0209,8.0209,8.0209,8.0209,8.0209,8.0209,8.0209,8.0209,8.0209,8.0209,8.0209,8.0209,8.0209,8.0209,8.0378,8.0344,0.0,0.0,0.0,8.1033,8.1033,8.1359,8.1887,8.2056,8.2124,8.2238,8.2983,8.3355,8.3592,0.0,0.0,0.0,0.0,0.0,0.0,0.0,0.0,0.0,0.0,4.0513,4.0513,4.0513,4.0513,0.0,0.0,0.0,0.0,0.0,0.0,0.0,0.0,0.0,4.4608,4.4608,4.4608,4.4608,4.4608,4.4608,4.4608,4.4608,4.4608,4.4608,4.4608,4.4608,4.4804,0.0,0.0,0.0,4.7353,4.8097,0.0,0.0,0.0,0.0,0.0,4.9112,4.9221,0.0,4.9973,5.0845,5.2055,0.0,0.0,0.0,0.0,5.6867,5.69,5.7273,5.8186,5.9182,5.9911,6.0689,6.1501,6.2221,6.2651,6.3024,6.3419,6.4028,6.485,6.6,6.688,6.8064,7.0128,7.0939,7.1774,7.3127,7.5676,7.7705,7.8483,7.9532,8.0209,8.0209,8.0209,8.0209,8.0209,8.0209,8.0209,8.0209,8.0209,8.0209,8.0209,8.0209,8.0209,8.0209,8.0209,8.0209,8.0209,8.0209,8.0209,8.0209,8.0209,8.0378,0.0,0.0,0.0,8.1799,8.1799,8.2035,8.2428,8.278,8.2902,8.297,8.3714,8.3984,8.4018,0.0,0.0,0.0,0.0,0.0,0.0,0.0,0.0,0.0,0.0,0.0,0.0,0.0,0.0,0.0,0.0,0.0,0.0,0.0,0.0,0.0,0.0,4.4608,4.4608,4.4608,4.4608,4.4608,4.4608,4.4608,4.4608,4.4608,4.4608,4.4608,4.4608,4.4709,4.5135,4.5763,4.6616,4.7319,4.7947,4.8706,0.0,0.0,0.0,0.0,0.0,0.0,0.0,0.0,4.994,5.0507,5.1438,5.2866,0.0,0.0,0.0,0.0,0.0,5.6765,5.7974,5.9361,6.0114,6.0892,6.1704,6.2526,6.3115,6.3555,6.3792,6.5019,6.6248,6.7005,6.7614,6.9203,7.2913,7.2631,7.2924,7.5676,7.7176,7.8056,7.8157,7.9363,8.0209,8.0209,8.0209,8.0209,8.0209,8.0209,8.0209,8.0209,8.0209,8.0209,8.0209,8.0209,8.0242,8.0378,8.0242,8.0209,8.0209,8.031,8.0378,8.0378,8.0479,8.0898,8.1473,0.0,0.0,8.2564,8.2564,8.2631,8.28,8.3422,8.3659,8.3761,8.439,8.4614,8.4492,0.0,0.0,0.0,0.0,0.0,0.0,0.0,0.0,0.0,0.0,0.0,0.0,0.0,0.0,0.0,0.0,0.0,0.0,0.0,0.0,0.0,4.4601,4.4608,4.4608,4.4608,4.4608,4.4608,4.4608,4.4608,4.4608,4.4608,4.4608,4.4608,4.4642,4.5263,4.5594,4.5797,4.7143,4.7785,4.7947,4.8706,0.0,0.0,0.0,0.0,0.0,0.0,0.0,0.0,4.9187,5.0059,5.1336,5.2224,0.0,0.0,0.0,0.0,0.0,5.6621,5.8321,6.0114,6.0926,6.167,6.2594,6.3937,6.3859,6.3859,6.5087,6.6552,6.7793,6.8605,7.13,7.3431,7.3488,7.4356,7.5642,7.7413,7.7853,7.8225,7.8843,7.9667,8.0209,8.0209,8.0209,8.0209,8.0209,8.0209,8.0209,8.0209,8.0209,8.0209,8.0209,8.0209,8.0492,8.1135,8.0513,8.0209,8.0209,8.083,8.1135,8.1135,8.1765,8.2124,8.2238,0.0,8.2644,8.3321,8.3321,8.368,8.4275,8.4377,8.4424,8.4444,8.4546,8.4614,8.4424,0.0,0.0,0.0,0.0,0.0,0.0,0.0,0.0,0.0,0.0,0.0,0.0,0.0,0.0,0.0,0.0,0.0,0.0,0.0,0.0,4.3798,4.458,4.4608,4.4608,4.4608,4.4608,4.4608,4.4608,4.4608,4.4608,4.4608,4.5007,4.5203,4.5237,4.5981,4.6508,4.694,4.7616,4.8124,4.8529,0.0,0.0,0.0,0.0,0.0,0.0,0.0,0.0,0.0,0.0,4.9729,5.0736,5.148,0.0,0.0,0.0,0.0,0.0,5.7103,5.8727,6.0689,6.3091,6.3947,6.4353,6.503,6.6203,6.6948,6.6406,6.7489,6.9011,7.0601,7.1943,7.3499,7.5586,7.7176,7.8382,7.9092,7.9206,7.9295,7.9667,8.0006,8.0209,8.0209,8.0209,8.0209,8.0209,8.0209,0.0,8.0763,8.0796,8.0987,8.1393,8.1393,8.1562,8.19,8.1562,8.1393,8.1393,8.1731,8.19,8.19,8.2272,8.2631,8.2983,0.0,8.3422,8.4086,8.4086,8.4289,8.4614,8.4614,8.4614,8.4614,8.4614,8.4356,8.393,0.0,0.0,0.0,0.0,0.0,0.0,0.0,0.0,0.0,0.0,0.0,0.0,0.0,0.0,0.0,0.0,0.0,0.0,0.0,4.2567,4.3229,4.4312,4.4497,4.4608,4.4608,4.477,4.4871,4.4871,4.5041,4.5115,4.5115,4.5676,4.5974,4.6007,4.6718,4.7353,4.7913,4.809,4.8462,4.9011,0.0,0.0,0.0,0.0,0.0,0.0,0.0,0.0,0.0,0.0,0.0,0.0,0.0,0.0,0.0,5.4135,5.5378,5.6452,5.7586,5.937,6.1637,6.4691,6.5571,6.5943,6.6823,6.8684,6.98,6.8392,6.935,7.0973,7.2834,7.3003,7.4052,7.7671,7.9194,8.0006,8.0175,8.0209,8.0209,8.0209,8.0209,8.0276,8.0445,8.0445,8.0513,8.0716,0.0,0.0,8.1541,8.1575,8.1832,8.2395,8.2395,8.2496,8.2665,8.2665,8.2564,8.2395,8.2564,8.2665,8.2665,8.2834,8.3206,8.3761,8.3761,8.4086,8.4614,8.4614,8.4614,8.4614,8.4614,8.4614,8.4614,8.4614,8.4255,8.3727,0.0,0.0,0.0,0.0,0.0,0.0,0.0,0.0,0.0,0.0,0.0,0.0,0.0,0.0,0.0,0.0,0.0,0.0,0.0,4.2746,4.3458,4.3588,4.4229,4.4608,4.4608,4.5263,4.5628,4.5628,4.6319,4.6624,4.6624,4.6691,4.6725,4.6759,4.7488,4.7845,4.7954,4.8638,4.8951,4.9011,4.9011,0.0,0.0,0.0,0.0,0.0,0.0,0.0,0.0,0.0,0.0,0.0,0.0,0.0,5.2604,5.4135,5.6097,5.7755,5.7857,6.052,6.3487,6.4444,6.5199,6.662,7.0083,7.0534,7.0545,7.1751,7.3161,7.4446,7.5303,7.6601,7.7853,7.8843,7.9114,7.9418,8.0107,8.0209,8.0209,8.0209,8.0209,8.0479,8.1135,8.1202,8.1494,8.2192,0.0,0.0,8.2327,8.2327,8.2361,8.2395,8.2395,8.2733,8.3422,8.3422,8.3084,8.2395,8.3084,8.3422,8.3422,8.412,8.4478,8.4512,8.4512,8.4546,8.4614,8.4614,8.4614,8.4614,8.4614,8.4614,8.4614,8.4614,8.458,8.4411,0.0,0.0,0.0,0.0,0.0,0.0,0.0,0.0,0.0,0.0,0.0,0.0,0.0,0.0,0.0,0.0,0.0,0.0,0.0,4.2371,4.3068,4.3466,4.4637,4.5263,4.5263,4.5568,4.594,4.638,4.6658,4.6793,4.6827,4.7252,4.7481,4.7522,4.8266,4.8571,4.8605,4.8875,4.9011,4.9011,4.9011,4.9011,0.0,0.0,0.0,0.0,0.0,0.0,0.0,0.0,4.9492,5.0244,5.0972,5.1716,5.2706,5.4702,5.619,5.7509,5.8896,6.167,6.4806,6.7421,6.8278,6.8887,7.0297,7.2913,7.4672,7.3353,7.4255,7.5676,7.6906,7.7976,7.9092,8.0276,7.9689,7.935,8.0107,8.0581,8.0898,8.0898,8.1291,8.1697,8.1968,8.1968,8.2103,0.0,0.0,0.0,8.305,8.3084,8.3274,8.3734,8.3781,8.3917,8.4187,8.4187,8.4052,8.3781,8.4052,8.4187,8.4187,8.4478,8.4614,8.4614,8.4614,8.4614,8.4614,8.4614,8.4614,8.4614,8.4614,8.4614,8.4614,8.4614,8.4614,8.4546,0.0,0.0,0.0,0.0,0.0,0.0,0.0,0.0,0.0,0.0,0.0,0.0,0.0,0.0,0.0,0.0,0.0,0.0,4.1158,4.2005,4.2614,4.2862,4.4452,4.5369,4.5376,4.5587,4.6192,4.7158,4.7394,4.7496,4.7503,4.7996,4.8259,4.8259,4.8774,4.9011,4.9011,4.9011,4.9011,4.9011,4.9011,4.9011,0.0,0.0,0.0,0.0,0.0,0.0,0.0,0.0,4.983,5.0574,5.1311,5.2224,5.3382,5.5158,5.65,5.7844,5.9903,6.2959,6.6129,6.8371,7.0499,7.1876,7.1205,7.393,7.6263,7.5146,7.6093,7.7367,7.8191,7.8754,7.9418,8.0445,7.9769,7.9418,8.0424,8.0966,8.1372,8.1608,8.2103,8.2496,8.2733,8.2746,0.0,0.0,0.0,0.0,0.0,8.3862,8.4086,8.458,8.4614,8.4614,8.4614,8.4614,8.4614,8.4614,8.4614,8.4614,8.4614,8.4614,8.4614,8.4614,8.4614,8.4614,8.4614,8.4614,8.4614,8.4614,8.4614,8.4614,8.4614,8.4614,8.4614,8.4614,0.0,0.0,0.0,0.0,0.0,0.0,0.0,0.0,0.0,0.0,0.0,0.0,0.0,0.0,0.0,0.0,0.0,0.0,4.0513,4.1763,4.2197,4.1533,4.3518,4.4638,4.4707,4.5362,4.6429,4.7906,4.8631,4.9011,4.9011,4.9011,4.9011,4.9011,4.9011,4.9011,4.9011,4.8977,4.9003,4.9003,4.9003,4.9003,4.8995,0.0,0.0,0.0,0.0,0.0,0.0,0.0,5.06,5.1328,5.2046,5.3348,5.4735,5.5496,5.7161,5.9126,6.0863,6.4453,6.7493,6.6514,7.1197,7.5525,7.3392,7.3227,7.4367,7.7355,7.9147,7.9959,7.9236,7.9101,7.9114,7.9114,7.9114,7.9621,8.1101,8.1304,8.1575,8.2327,8.2428,8.2699,8.3422,8.3524,0.0,0.0,0.0,0.0,0.0,8.4614,8.4614,8.4614,8.4614,8.4614,8.4614,8.4614,8.4614,8.4614,8.4614,8.4614,8.4614,8.4614,8.4614,8.4614,8.4614,8.4614,8.4614,8.4614,8.4614,8.4614,8.4614,8.4614,8.4614,8.4614,8.4614,8.4614,0.0,0.0,0.0,0.0,0.0,0.0,0.0,0.0,0.0,0.0,0.0,0.0,0.0,0.0,0.0,0.0,0.0,0.0,4.0513,4.1302,4.1944,4.2275,4.3799,4.5121,4.6165,4.6865,4.7473,4.7909,4.865,4.9011,4.9011,4.9011,4.9011,4.9011,4.9011,4.9011,4.8987,4.845,4.8217,4.8217,4.8217,4.7918,4.7572,0.0,0.0,0.0,0.0,0.0,0.0,0.0,0.0,0.0,5.1234,5.2907,5.4944,5.6674,5.916,6.1862,6.4475,6.7446,7.0094,7.125,7.2721,7.4135,7.5193,7.5548,7.5666,7.5628,7.7371,7.8715,7.802,7.8569,7.9283,7.9803,7.987,8.0209,8.1169,8.2184,8.2915,8.3152,8.3612,8.4052,8.4255,0.0,0.0,0.0,0.0,0.0,0.0,8.4614,8.4614,8.4614,8.4614,8.4614,8.4614,8.4614,8.4614,8.4614,8.4614,8.4614,8.4614,8.4614,8.4614,8.4614,8.4614,8.4614,8.4614,8.4614,8.4614,8.4614,8.4614,8.4614,8.4614,8.4614,8.4614,8.4614,0.0,0.0,0.0,0.0,0.0,0.0,0.0,0.0,0.0,0.0,4.0513,4.0513,0.0,0.0,0.0,0.0,0.0,0.0,4.0513,4.1133,4.1723,4.2196,4.3528,4.4775,4.5908,4.6958,4.7448,4.7448,4.8193,4.872,4.9011,4.9011,4.8837,4.8569,4.8868,4.8681,4.8138,4.7967,4.7721,4.7448,4.7448,4.7187,4.6939,0.0,0.0,0.0,0.0,0.0,0.0,0.0,0.0,0.0,5.1232,5.3368,5.5645,5.6625,5.976,6.3363,6.5518,6.8161,7.0667,7.2084,7.3046,7.3906,7.4896,7.5656,7.5927,7.514,7.6774,7.8279,7.7888,7.8742,7.9689,8.0141,8.0458,8.0885,8.1629,8.2746,8.3625,8.3883,8.4323,8.4614,8.4614,0.0,0.0,0.0,0.0,0.0,0.0,8.4614,8.4614,8.4614,8.4614,8.4614,8.4614,8.4614,8.4614,8.4614,8.4614,8.4614,8.4614,8.4614,8.4614,8.4614,8.4614,8.4614,8.4614,8.4614,8.4614,8.4614,8.4614,8.4614,8.4614,8.4614,8.4614,8.4614,0.0,0.0,4.0513,0.0,0.0,0.0,0.0,0.0,0.0,4.0513,4.0513,4.0513,0.0,0.0,0.0,4.0513,4.0513,4.0513,4.0513,4.1074,4.1485,4.1674,4.3027,4.4069,4.4692,4.602,4.6741,4.681,4.7523,4.8233,4.8892,4.8829,4.8474,4.7942,4.8521,4.8072,4.6956,4.7464,4.7305,4.6715,4.6715,4.6672,4.6707,4.7481,0.0,0.0,0.0,0.0,0.0,0.0,0.0,0.0,5.1603,5.4099,5.6376,5.5817,5.9411,6.3809,6.5056,6.749,6.9864,7.0603,7.2795,7.4433,7.3401,7.4252,7.5221,7.5106,7.6777,7.8217,7.8165,7.9267,8.0209,8.0276,8.0932,8.1676,8.2395,8.3152,8.3862,8.4512,8.4614,8.4614,0.0,0.0,0.0,0.0,0.0,0.0,0.0,8.4614,8.4614,8.4614,8.4614,8.4614,8.4614,8.4614,8.4614,8.4614,8.4614,8.4614,8.4614,8.4614,8.4614,8.4614,8.4614,8.4614,8.4614,8.4614,8.4614,8.4614,8.4614,8.4614,8.4614,8.4614,8.4614,8.4614,0.0,0.0,4.0513,4.0513,0.0,0.0,0.0,0.0,4.0513,4.0513,4.0513,4.0513,4.0513,4.0513,0.0,4.0513,4.0513,4.0513,4.0513,4.0629,4.1202,4.2325,4.4212,4.5331,4.546,4.5778,4.6234,4.681,4.7523,4.7991,4.812,4.7555,4.7514,4.7893,4.7448,4.743,4.7589,4.6596,4.6069,4.594,4.594,4.5588,4.5225,4.6527,4.657,0.0,0.0,0.0,0.0,0.0,0.0,0.0,5.0112,5.2404,5.4935,5.5888,5.9396,6.3756,6.7334,6.8966,7.0297,7.3089,7.3979,7.4206,7.4376,7.3945,7.3239,7.2118,7.4611,7.6837,7.6292,7.8404,8.0378,8.0966,8.1663,8.2408,8.3152,8.3883,8.4411,8.458,8.4614,8.4614,0.0,0.0,0.0,0.0,0.0,0.0,8.4614,8.4614,8.4614,8.4614,8.4614,8.4614,8.4614,8.4614,8.4614,0.0,8.4614,8.4614,8.4614,8.4614,8.4614,8.4614,8.4614,8.4614,8.4614,8.4614,8.4614,8.4614,8.4614,8.4614,8.4614,8.4614,8.4614,8.4614,0.0,0.0,0.0,0.0,0.0,0.0,0.0,0.0,4.1261,4.0606,4.0513,4.0513,4.0513,4.0513,0.0,0.0,4.0513,4.0513,4.0513,4.0513,4.1129,4.2531,4.4241,4.5179,4.5179,4.5515,4.5895,4.6287,4.6657,4.7026,4.7347,4.6967,4.6804,4.6855,4.6804,4.6614,4.6299,4.5886,4.5488,4.5179,4.5179,4.5154,4.5187,4.6308,4.6705,4.6744,4.7846,0.0,0.0,0.0,0.0,0.0,0.0,0.0,5.4802,5.5513,5.9422,6.4144,6.7042,6.8513,6.9924,7.2703,7.3447,7.3571,7.3876,7.3431,7.2783,7.2075,7.3957,7.5623,7.5285,7.7002,7.8897,8.0232,8.1048,8.2006,8.331,8.412,8.4614,8.4614,8.4614,8.4614,0.0,0.0,0.0,0.0,0.0,8.4614,8.4614,8.4614,8.4614,8.4614,8.4614,8.4614,8.4614,8.4614,8.4614,8.4614,8.4614,8.4614,8.4614,8.4614,8.4614,8.4614,8.4614,8.4614,8.4614,8.4614,8.4614,8.4614,8.4614,8.4614,8.4614,8.4614,8.4614,8.4614,0.0,0.0,0.0,0.0,0.0,0.0,0.0,0.0,0.0,4.0667,4.0513,4.0513,4.0513,4.0513,4.0513,0.0,0.0,0.0,4.0513,4.0729,4.1384,4.2562,4.3873,4.4591,4.4591,4.5206,4.5497,4.5497,4.5497,4.5823,4.6436,4.6436,4.6172,4.5715,4.6216,4.5814,4.4827,4.5317,4.516,4.4622,4.4837,4.5268,4.585,4.6722,4.7329,4.7854,4.86,4.8753,4.8738,4.9576,0.0,0.0,0.0,0.0,5.4648,5.4813,5.8806,6.3556,6.5237,6.7414,6.9704,7.1675,7.2598,7.2999,7.2999,7.2999,7.2999,7.2999,7.3949,7.4786,7.4786,7.5967,7.7511,7.9382,8.0371,8.155,8.3426,8.4221,8.4614,8.4614,8.4614,0.0,0.0,0.0,0.0,0.0,0.0,8.4614,8.4614,8.4614,8.4614,8.4614,8.4614,8.4614,8.4614,8.4614,8.4614,8.4614,8.4614,8.4614,8.4614,8.4614,8.4614,8.4614,8.4614,8.4614,8.4614,8.4614,8.4614,8.4614,8.4614,8.4614,8.4614,8.4614,8.4614,8.4614,0.0,0.0,0.0,0.0,0.0,0.0,0.0,0.0,0.0,0.0,4.0513,4.0513,4.0513,4.0513,4.0513,4.0513,4.0513,4.0513,4.0513,0.0,0.0,4.2593,4.3873,4.4591,4.4591,4.4695,4.4752,4.4752,4.4752,4.4808,4.488,4.488,4.5188,4.5679,4.5132,4.5142,4.5506,4.4974,4.4695,4.4683,4.5874,4.6398,4.6582,4.7885,4.8409,4.8573,4.9314,4.916,4.8738,4.9459,4.9221,0.0,0.0,0.0,5.2385,5.3537,5.6175,5.9339,6.2439,6.6865,7.0982,7.2506,7.2937,7.2999,7.2999,7.2999,7.2999,7.2999,7.3949,7.4786,7.4786,7.6631,7.8667,8.02,8.1417,8.2698,8.4228,8.4546,8.4614,8.4614,8.4614,0.0,0.0,0.0,0.0,0.0,8.4614,8.4614,8.4614,8.4614,8.4614,8.4614,8.4614,8.4614,8.4614,8.4614,8.4614,8.4614,8.4614,8.4614,8.4614,8.4614,8.4614,8.4614,8.4614,8.4614,8.4614,8.4614,8.4614,8.4614,8.4614,8.4614,8.4614,8.4614,8.4614,8.4614,0.0,0.0,0.0,0.0,0.0,0.0,0.0,0.0,0.0,0.0,0.0,4.0513,4.0513,4.0513,4.0513,4.0513,4.0513,4.0513,4.0513,4.1823,4.2593,4.2593,4.3873,4.4591,4.4591,4.4591,4.4591,4.4591,4.4591,4.4591,4.4591,4.4591,4.478,4.5067,4.4752,4.4789,4.5058,4.4742,4.5022,4.5782,4.6367,4.7065,4.7824,4.882,4.9435,4.9866,5.0574,5.0605,5.0389,5.0697,5.0359,4.9897,5.0605,0.0,0.0,0.0,5.6207,5.9082,6.2443,6.7059,7.0952,7.1213,7.2414,7.3461,7.3091,7.2999,7.2999,7.2999,7.371,7.4359,7.4359,7.5222,7.6646,7.8746,8.0131,8.1553,8.3301,8.4143,8.4614,8.4614,8.4614,0.0,0.0,0.0,0.0,0.0,8.4614,8.4614,8.4614,8.4614,8.4614,8.4614,8.4614,8.4614,8.4614,8.4614,8.4614,8.4614,8.4614,8.4614,8.4614,8.4614,8.4614,8.4614,8.4614,8.4614,8.4614,8.4614,8.4614,8.4614,8.4614,8.4614,8.4614,8.4614,8.4614,8.4614,0.0,0.0,0.0,0.0,0.0,0.0,0.0,0.0,0.0,0.0,0.0,4.0707,4.0513,0.0,0.0,0.0,4.0513,4.0513,4.0513,4.1823,4.2593,4.2593,4.3873,4.4591,4.4591,4.4591,4.4591,4.4591,4.4591,4.4591,4.4591,4.4591,4.4591,4.4591,4.4591,4.4591,4.4591,4.4591,4.5382,4.6603,4.6788,4.7773,4.9209,4.9928,5.0739,5.1528,5.2021,5.2194,5.2194,5.201,5.1498,5.1067,5.1744,5.2625,0.0,0.0,0.0,5.9575,6.312,6.6782,6.9751,7.0305,7.1813,7.3199,7.3245,7.3122,7.2999,7.2999,7.3522,7.403,7.4214,7.4498,7.5403,7.7555,7.9215,8.0836,8.2491,8.3797,8.4614,8.4614,8.4614,0.0,0.0,0.0,0.0,0.0,8.4614,8.4614,8.4614,8.4614,8.4614,8.4614,8.4614,8.4614,8.4614,8.4614,8.4614,8.4614,8.4614,8.4614,8.4614,8.4614,8.4614,8.4614,8.4614,8.4614,8.4614,8.4614,8.4614,8.4614,8.4614,8.4614,8.4614,8.4614,8.4614,8.4614,0.0,0.0,0.0,0.0,0.0,0.0,0.0,0.0,0.0,0.0,0.0,4.1278,4.0575,4.0513,4.0513,4.0513,4.0513,4.0513,4.0513,4.1823,4.2593,4.2593,4.3873,0.0,4.4591,4.4591,4.4591,4.4591,4.4591,4.4591,4.4591,4.4591,4.4591,4.4591,4.4591,4.4591,4.4591,4.4591,4.5382,4.6675,4.7281,4.8758,5.0667,5.1344,5.241,5.3537,5.3568,5.3599,5.3506,5.2872,5.2194,5.1775,5.2441,5.2687,5.3025,0.0,0.0,0.0,6.3749,6.5503,6.7073,7.0936,7.149,7.1567,7.3506,7.3461,7.2999,7.2999,7.3522,7.4184,7.483,7.5886,7.6939,7.7757,7.9923,8.1792,8.259,8.3797,8.4614,8.4614,0.0,0.0,0.0,0.0,0.0,0.0,8.4614,8.4614,8.4614,8.4614,8.4614,8.4614,8.4614,8.4614,8.4614,8.4614,8.4614,8.4614,8.4614,8.4614,8.4614,8.4614,8.4614,8.4614,8.4614,8.4614,8.4614,8.4614,8.4614,8.4614,8.4614,8.4614,8.4614,8.4614,8.4614,8.4614,0.0,0.0,0.0,0.0,0.0,0.0,0.0,0.0,0.0,0.0,0.0,0.0,0.0,4.1445,4.1208,4.1208,4.076,4.0698,4.1177,4.2069,4.2786,4.3227,4.4098,4.4591,4.4591,4.4591,4.4591,4.4591,4.4591,4.4591,4.4591,4.4591,4.4591,4.4591,4.4591,4.4591,4.4622,4.5053,4.6028,4.7496,5.0348,5.2225,5.3456,5.5018,5.5911,5.6342,0.0,0.0,5.6435,5.7038,5.625,5.503,5.5277,5.5018,5.4884,5.6269,5.7401,5.8664,6.0991,6.3718,6.615,6.718,6.8858,7.0459,7.1213,7.1521,7.1798,7.226,7.3584,7.4707,7.4953,7.5706,7.6775,7.8312,7.9966,8.1475,8.2557,8.3797,8.4614,8.4614,0.0,0.0,0.0,0.0,0.0,0.0,0.0,8.4614,8.4614,8.4614,8.4614,8.4614,8.4614,8.4614,8.4614,8.4614,8.4614,8.4614,8.4614,8.4614,8.4614,8.4614,8.4614,8.4614,8.4614,8.4614,8.4614,8.4614,8.4614,8.4614,8.4614,8.4614,8.4647,8.5182,8.5384,8.5452,0.0,0.0,0.0,0.0,0.0,0.0,0.0,0.0,0.0,4.3624,0.0,0.0,0.0,0.0,4.1955,4.1955,4.1485,4.1414,4.1885,4.2571,4.3134,4.3584,4.4231,4.4591,4.4591,4.4385,4.4375,4.4591,4.4375,4.4385,4.4591,4.4837,4.4806,4.4622,4.4837,4.4806,4.4652,4.533,4.648,4.8194,5.1148,5.3168,5.4614,5.6927,5.8079,5.8572,0.0,0.0,0.0,0.0,5.9483,5.7802,5.7802,5.6847,5.5973,5.7401,5.7802,5.814,5.9698,6.2456,6.4905,6.5165,6.7258,6.9289,6.9505,7.0443,7.1336,7.1582,7.3245,7.4645,7.4645,7.5415,7.6621,7.8597,7.9974,8.1242,8.2501,8.3797,8.4614,8.4614,0.0,0.0,0.0,0.0,0.0,0.0,0.0,0.0,8.4614,8.4614,8.4614,8.4614,8.4614,8.4614,8.4614,8.4614,8.4614,8.4614,8.4614,8.4614,8.4614,8.4614,8.4614,8.4614,8.4614,8.4614,8.4614,8.4614,8.4614,8.4614,8.4898,8.4999,8.51,8.5892,8.6176,8.623,0.0,0.0,0.0,0.0,0.0,0.0,0.0,0.0,4.4446,4.3769,0.0,0.0,0.0,0.0,0.0,4.2593,4.2593,4.2623,4.2623,4.3236,4.3615,4.3624,4.4261,4.4591,4.4591,4.3984,4.3984,4.4622,4.4015,4.4015,4.4622,4.5299,4.5237,4.4622,4.5268,4.5228,4.4683,4.5361,4.6819,4.8717,0.0,5.1559,5.4256,5.6958,5.8836,6.0283,6.2196,6.3766,0.0,6.3427,0.0,0.0,5.9791,5.7943,5.6034,5.7432,5.7832,5.8264,0.0,0.0,0.0,6.5305,6.6813,6.7982,6.875,7.0443,7.1706,7.1075,7.2552,7.3984,7.3999,7.5108,7.6654,7.8596,7.9972,8.1256,8.2591,8.3811,8.4614,8.4614,0.0,0.0,0.0,0.0,0.0,0.0,8.4614,8.4614,8.4614,8.4614,8.4614,8.4614,8.4614,8.4614,8.4614,8.4614,8.4614,8.4614,8.4614,8.4614,8.4614,8.4614,8.4647,8.4647,8.4647,8.4647,8.4614,8.4614,8.4614,8.4681,8.5452,8.577,8.5905,8.6636,8.6927,8.6927,0.0,0.0,0.0,0.0,0.0,4.6059,4.6059,4.6059,4.5967,0.0,0.0,0.0,4.4797,4.3904,4.3134,4.2623,4.2593,4.2817,4.3297,4.3491,4.383,4.4292,4.4498,4.4591,4.4591,4.4899,4.5145,4.532,4.5628,4.5638,4.533,4.5505,4.5237,4.4622,4.4806,4.5053,4.5391,4.6542,4.7958,4.9815,5.4433,5.7592,0.0,0.0,0.0,0.0,0.0,6.5274,0.0,0.0,6.4888,6.1612,0.0,5.822,5.7401,5.8264,5.851,5.8756,5.9778,0.0,0.0,0.0,0.0,0.0,6.8274,6.8982,6.969,7.1937,7.2876,7.343,7.3907,7.5403,7.7051,7.8525,7.9914,8.1549,8.377,8.4379,8.4614,0.0,0.0,0.0,0.0,0.0,0.0,0.0,8.4614,8.4614,8.4614,8.4614,8.4614,8.4614,8.4614,8.4614,8.4614,8.4614,8.4614,8.4614,8.4614,8.4614,8.4614,8.5215,8.5466,8.5466,8.5466,8.5466,8.5418,8.483,8.4614,8.4614,8.4864,8.5283,8.5905,8.6636,8.7245,8.7786,0.0,0.0,4.6511,4.6234,4.6172,4.6172,4.6172,4.6172,4.6265,0.0,0.0,0.0,4.5638,4.4652,4.3975,4.3864,4.3864,4.415,4.4806,4.4837,4.5022,4.5422,4.5443,4.5443,4.5443,4.5536,4.5751,4.6028,4.5844,4.572,4.5597,4.5597,4.5391,4.5022,4.533,4.5813,4.6511,4.7906,4.9435,0.0,5.513,0.0,0.0,6.3441,6.5705,0.0,0.0,0.0,6.9751,7.0074,6.7658,0.0,0.0,0.0,5.9033,5.8836,5.899,5.9298,5.9698,6.0763,6.1889,6.2289,0.0,0.0,6.6027,6.7151,6.8474,7.0459,7.1075,7.1582,7.2521,7.3997,7.5677,7.7611,7.9205,8.1139,8.3765,8.4153,8.4255,0.0,0.0,0.0,0.0,8.4614,8.4614,8.4614,8.4614,8.4614,8.4614,8.4614,8.4614,8.4614,8.4614,8.4614,8.4614,8.4614,8.4614,8.4614,8.4931,8.51,8.5148,8.5892,8.6264,8.623,8.5939,8.5804,8.5736,8.4931,8.4614,8.4647,8.5303,8.5845,8.6399,8.7414,8.8091,8.8511,0.0,0.0,4.6634,4.6028,4.5936,4.5967,4.6028,4.6059,4.6275,0.0,4.6829,4.648,4.5874,4.5228,4.5053,4.5659,4.572,4.5936,4.6459,4.6542,4.6603,4.6603,4.6521,4.649,4.649,4.5967,4.5998,4.6603,4.5484,4.5237,4.5813,4.5751,4.572,4.5751,4.6419,4.7096,4.7804,4.9281,5.1159,5.3241,5.4214,5.6669,0.0,0.0,6.5797,0.0,7.0813,7.303,7.4214,7.2044,6.9443,0.0,0.0,0.0,0.0,0.0,5.9637,5.9914,5.9914,6.0763,6.1704,6.1766,6.3256,0.0,6.3458,6.5649,6.7925,6.8103,6.856,6.9328,7.0581,7.182,7.3529,7.6107,7.8119,8.0302,8.3007,8.3321,8.3524,0.0,0.0,0.0,8.458,8.4512,8.4512,8.458,8.4614,8.4614,8.4614,8.4614,8.4614,8.4614,8.4614,8.4614,8.4614,8.4614,8.4647,8.4762,8.5452,8.5838,8.5939,8.6704,8.7028,8.6995,8.6332,8.6007,8.5872,8.5067,8.4681,8.4749,8.6115,8.6758,8.7062,8.8375,8.8951,8.9086,4.7373,4.7824,4.8163,4.804,4.8009,4.8194,4.8799,4.8892,4.8964,4.9076,4.8112,4.7373,4.7219,4.6603,4.6275,4.6398,4.6398,4.6234,4.5813,4.6305,4.6603,4.6603,4.609,4.5813,4.5813,4.6213,4.648,4.6603,4.688,4.7096,4.7188,4.6665,4.6398,4.6419,4.7096,4.7773,4.8532,5.0482,5.311,5.6231,5.907,0.0,6.5626,6.8444,7.012,7.0997,7.1075,7.1383,7.1229,0.0,6.772,6.7843,0.0,0.0,0.0,6.275,0.0,6.0609,6.0609,6.0794,6.1132,0.0,0.0,0.0,6.5674,6.6876,6.7964,6.9234,6.9444,6.9535,7.0022,7.1817,7.3637,7.4756,7.7324,7.9976,8.2301,8.2103,8.2002,0.0,0.0,0.0,8.4411,8.4052,8.395,8.4546,8.4614,8.4614,8.4614,8.4614,8.4614,8.4614,8.4614,8.4614,8.4614,8.4614,8.4931,8.5567,8.5736,8.6095,8.669,8.7448,8.7786,8.7786,8.7617,8.7245,8.6636,8.5858,8.5182,8.4614,8.4918,8.5811,8.6927,8.7231,8.8091,8.9086,4.804,4.8666,4.8943,4.8224,4.8378,4.8625,4.8635,4.8635,4.8758,4.9097,4.8543,4.8101,4.8101,4.7496,4.725,4.7558,4.7609,4.7619,4.7629,4.7968,4.8153,4.8153,4.7157,4.6603,4.6603,4.6942,4.7096,4.7096,4.7434,4.7609,4.7588,4.6911,4.6788,4.7127,4.7465,4.8173,4.9343,5.2041,5.5161,5.8448,6.0129,0.0,6.5643,6.8382,7.0274,7.1475,7.1829,7.1937,7.1567,6.9197,6.8397,0.0,0.0,6.392,6.2922,0.0,6.2627,6.1317,0.0,0.0,0.0,6.1717,0.0,0.0,0.0,6.5544,6.6685,6.8341,6.8345,6.8396,6.9744,7.1161,7.2577,7.4045,7.5735,7.7625,7.9904,8.1156,8.2272,0.0,0.0,0.0,8.395,8.3375,8.3253,8.3984,8.4052,8.4221,8.458,8.4614,8.4614,8.4614,8.4614,8.4614,8.4614,8.4999,8.5384,8.5804,8.6548,8.6907,8.6927,8.8023,8.8342,8.7989,8.7989,8.7583,8.6825,8.6108,8.5317,8.4647,8.5033,8.5878,8.6893,8.6893,8.7617,8.8511,4.8717,4.9281,4.9384,4.8389,4.8543,4.8717,4.844,4.8296,4.845,4.9117,4.9086,4.9148,4.9537,4.8748,4.8501,4.9332,4.9148,4.922,4.9661,4.9815,4.9815,4.9703,4.8481,4.7732,4.7609,4.7609,4.7609,4.7609,4.7609,4.7681,4.7773,4.725,4.7281,4.7794,4.8194,4.9158,5.0708,5.4072,5.7365,6.0455,0.0,6.2856,6.512,6.8136,6.9952,7.1075,7.2506,7.2999,7.2783,7.1383,0.0,6.8782,6.7196,6.5335,0.0,0.0,0.0,0.0,0.0,0.0,0.0,0.0,0.0,6.2829,0.0,0.0,0.0,6.7017,6.7042,6.7429,6.9511,7.0419,0.0,0.0,0.0,0.0,0.0,7.9464,0.0,0.0,0.0,0.0,0.0,8.278,8.28,8.3253,8.3558,8.393,8.4356,8.4512,8.4614,8.4614,8.4614,8.4614,8.4614,8.5384,8.5872,8.6041,8.7211,8.755,8.7144,8.8192,8.8342,8.7786,8.7786,8.738,8.6623,8.6041,8.5317,8.4647,8.5317,8.6027,8.669,8.669,8.7144,8.7719,4.9569,4.9631,4.9846,5.0266,4.9908,4.9938,5.1067,5.0728,5.0574,5.124,5.082,5.1128,5.2922,5.1456,5.0851,5.2133,0.0,0.0,4.9723,0.0,5.0339,4.9733,4.8912,4.8224,4.7609,4.7609,4.7609,4.7609,4.7609,4.7886,4.846,4.8409,4.8409,4.8563,5.041,5.1979,5.3487,5.6897,5.9932,0.0,6.641,6.8042,0.0,7.2706,7.2829,7.1075,7.2506,7.2999,7.2783,0.0,7.1967,7.286,0.0,6.8474,6.7106,6.5982,0.0,0.0,0.0,0.0,0.0,0.0,6.2289,0.0,0.0,0.0,0.0,6.6559,0.0,6.8179,6.9044,0.0,0.0,0.0,0.0,0.0,7.3172,7.5642,7.7841,7.8665,0.0,0.0,0.0,8.2644,8.3152,8.2564,8.3748,8.4221,8.3659,8.4255,8.4614,8.4614,8.4614,8.4614,8.4614,8.5384,8.6142,8.6758,8.6927,8.7313,8.7854,8.7367,8.7096,8.7028,8.7028,8.6602,8.5905,8.5838,8.5317,8.4614,8.4681,8.5202,8.5905,8.5905,8.6399,8.6995,4.9784,5.0339,5.0831,5.0728,5.08,5.0913,5.1097,5.0893,5.079,5.1067,5.1221,5.2041,5.406,5.2841,0.0,0.0,0.0,5.4106,0.0,0.0,5.3479,5.3202,5.0236,4.9025,4.9959,4.8809,4.8163,4.8163,4.8604,4.8953,4.922,4.8809,4.9025,4.9928,5.1948,5.3826,5.5757,5.9932,6.2812,0.0,0.0,0.0,0.0,7.2137,7.2537,7.1706,7.3091,7.3337,7.2906,0.0,7.2167,0.0,0.0,0.0,0.0,6.7566,0.0,0.0,0.0,0.0,0.0,0.0,0.0,0.0,6.3906,0.0,6.5754,0.0,0.0,0.0,0.0,0.0,0.0,0.0,7.093,0.0,0.0,0.0,7.4886,0.0,0.0,0.0,0.0,0.0,0.0,0.0,8.1697,8.2293,8.2834,8.3545,8.4153,8.458,8.4614,8.4614,8.4614,8.5384,8.6163,8.6893,8.6893,8.7062,8.7333,8.7028,8.667,8.6298,8.669,8.6467,8.5804,8.5804,8.5317,8.4614,8.4614,8.51,8.5736,8.5283,8.5587,8.6196,5.0328,5.1036,5.1559,5.1067,5.1374,5.1528,5.1036,5.1128,5.1313,5.1498,5.1948,0.0,5.5549,5.4441,0.0,0.0,0.0,5.7352,0.0,0.0,5.6342,5.6527,5.2502,0.0,0.0,5.0502,4.9363,4.9179,4.9538,4.9692,4.9692,4.9528,4.9794,5.0523,5.2902,5.5222,5.766,6.2179,6.5212,6.7227,6.9735,7.0351,6.9889,7.1182,7.1829,7.2152,7.3307,7.3307,7.2783,7.3153,7.2706,0.0,7.2229,0.0,6.8397,0.0,0.0,0.0,6.6443,0.0,0.0,0.0,0.0,0.0,0.0,0.0,0.0,0.0,0.0,0.0,0.0,0.0,0.0,0.0,0.0,7.0345,0.0,7.1571,0.0,0.0,0.0,0.0,0.0,0.0,0.0,0.0,0.0,0.0,8.1731,8.2678,8.3558,8.4289,8.4478,8.4614,8.4614,8.5384,8.6163,8.6893,8.6704,8.669,8.6893,8.6453,8.598,8.5486,8.6048,8.596,8.5452,8.5452,8.5148,8.4614,8.4614,8.4965,8.5384,8.483,8.4965,8.5384,5.1652,5.1682,5.1682,5.1682,5.1682,5.1682,5.1682,5.2225,5.2872,0.0,0.0,0.0,0.0,0.0,0.0,0.0,0.0,5.8756,5.8756,0.0,5.8017,0.0,0.0,5.4553,0.0,5.2625,5.1282,5.0636,5.0,4.9692,4.9733,5.1005,5.0944,4.9877,5.321,5.6195,5.9003,6.3116,6.6765,6.9936,7.2075,7.2506,7.1844,0.0,7.1398,7.209,7.2783,0.0,0.0,7.3522,7.4368,0.0,0.0,0.0,0.0,0.0,0.0,0.0,0.0,0.0,0.0,6.8442,0.0,0.0,0.0,0.0,6.4338,0.0,0.0,0.0,0.0,0.0,0.0,0.0,0.0,0.0,0.0,0.0,0.0,0.0,0.0,0.0,0.0,0.0,0.0,0.0,0.0,0.0,8.0242,8.1663,8.278,8.3524,8.4221,8.4614,8.4614,8.5384,8.6163,8.6893,8.6176,8.6196,8.6859,8.5358,8.4647,8.4647,8.4647,8.4647,8.4647,8.4647,8.4614,8.4614,8.4614,8.4614,8.4647,8.4614,8.4614,8.4614,5.2348,5.2348,5.2348,5.2348,5.2348,5.2502,5.2964,5.321,0.0,0.0,0.0,0.0,0.0,0.0,6.064,0.0,0.0,6.2504,6.3441,6.2425,0.0,0.0,0.0,5.7408,0.0,0.0,5.2933,5.1374,5.0708,5.0585,5.1005,5.0585,5.0851,5.1836,5.5222,5.8485,6.1656,6.4843,0.0,0.0,0.0,7.1198,7.072,0.0,0.0,7.209,7.2752,7.2845,0.0,7.3183,7.3783,7.4184,7.3276,7.2845,7.2445,7.129,7.0443,0.0,0.0,0.0,7.0289,7.0213,0.0,0.0,0.0,0.0,0.0,0.0,0.0,0.0,0.0,0.0,6.6101,0.0,0.0,0.0,0.0,0.0,0.0,0.0,0.0,0.0,0.0,0.0,0.0,0.0,0.0,0.0,0.0,8.0885,8.2251,8.3456,8.4221,8.4614,8.4614,8.4864,8.5642,8.6893,8.5608,8.5675,8.6859,8.529,8.4614,8.4614,8.4614,8.4614,8.4614,8.4614,8.4614,8.4614,8.4614,8.4614,8.4614,8.4614,8.4614,8.4614,5.2687,5.2687,5.2625,5.2379,5.2533,5.3025,0.0,0.0,0.0,0.0,5.7956,0.0,6.2504,0.0,6.2979,0.0,6.5674,6.5397,6.6536,6.5305,0.0,6.6287,6.261,0.0,0.0,0.0,0.0,5.351,5.2329,5.1733,5.1682,5.1067,5.159,5.3179,5.6127,5.9175,6.2319,6.5797,6.8105,0.0,0.0,7.0582,0.0,0.0,7.1829,7.1336,0.0,7.2106,7.1921,7.2152,7.2521,7.286,7.2691,7.2629,7.2598,7.2414,7.2013,7.169,7.1937,7.2013,0.0,7.1998,7.0952,0.0,6.9981,0.0,0.0,0.0,0.0,0.0,0.0,0.0,0.0,0.0,0.0,0.0,0.0,7.0601,0.0,0.0,0.0,0.0,0.0,0.0,0.0,0.0,0.0,0.0,0.0,0.0,8.1291,8.305,8.3815,8.4323,8.4614,8.4614,8.5358,8.6893,8.5324,8.5391,8.6859,8.529,8.4614,8.4614,8.4614,8.4614,8.4614,8.4614,8.4614,8.4614,8.4614,8.4614,8.4614,8.4614,8.4614,8.4614,5.2779,5.281,5.2625,5.201,5.241,0.0,0.0,0.0,5.7136,0.0,5.9175,6.0763,6.275,6.3027,6.4135,6.6782,6.6966,0.0,6.7937,6.6782,0.0,0.0,6.5766,6.4289,6.4949,0.0,0.0,0.0,5.476,5.3045,5.1856,5.2441,5.3087,5.3845,5.5954,5.8387,6.1163,6.5797,6.749,6.7213,6.9228,7.0844,7.1936,7.1229,7.0551,7.009,7.0736,7.0582,7.0151,7.0828,7.1075,7.1229,7.1921,7.2152,7.226,7.2906,7.3091,7.3183,7.383,7.306,7.2352,7.3676,0.0,0.0,0.0,0.0,6.8567,0.0,0.0,0.0,0.0,0.0,0.0,6.7009,0.0,0.0,0.0,0.0,0.0,0.0,0.0,0.0,0.0,0.0,0.0,0.0,0.0,7.5224,0.0,0.0,8.0095,8.2293,8.305,8.3795,8.4546,8.4546,8.5303,8.6758,8.529,8.5405,8.6792,8.529,8.4614,8.4614,8.4614,8.4614,8.4614,8.4614,8.4614,8.4614,8.4614,8.4614,8.4614,8.4614,8.4614,8.4614,5.4091,5.4183,5.4276,0.0,5.4822,5.5419,0.0,0.0,0.0,0.0,6.195,6.3366,6.4935,6.5982,6.709,6.8274,6.7921,0.0,0.0,0.0,0.0,6.9612,6.7859,6.6474,6.5657,6.2794,0.0,5.9033,0.0,5.3783,5.3906,5.3087,5.3322,5.4553,5.7143,5.9514,6.1704,6.4518,6.7012,6.932,7.1367,7.2106,0.0,0.0,7.1613,7.149,7.1644,7.1921,7.2321,7.2999,7.3537,7.3968,7.4153,7.4214,7.4245,7.443,7.4122,7.3799,7.3937,7.3399,7.2937,7.3799,7.2722,7.1675,0.0,0.0,0.0,0.0,0.0,0.0,0.0,0.0,0.0,0.0,0.0,0.0,0.0,0.0,0.0,0.0,0.0,0.0,0.0,0.0,0.0,0.0,0.0,0.0,0.0,0.0,0.0,8.1541,8.2306,8.3037,8.3795,8.3795,8.4255,8.5202,8.4783,8.5134,8.6041,8.5067,8.4614,8.4614,8.4614,8.4614,8.4614,8.4614,8.4614,8.4614,8.4614,8.4614,8.4614,8.4614,8.4614,8.4614,5.4645,5.521,0.0,5.6496,0.0,0.0,5.8727,0.0,0.0,6.2729,6.4237,0.0,6.6659,6.7459,6.8413,6.9659,6.9166,0.0,0.0,0.0,0.0,7.0782,6.9505,6.8427,6.7658,6.5551,0.0,6.0671,0.0,5.6534,5.5118,5.4699,5.5222,5.6565,5.8436,6.0037,6.1532,6.3903,6.7012,7.0398,7.1305,7.1952,0.0,7.2121,7.2352,7.2876,7.2876,7.2937,7.306,7.343,7.383,7.4184,7.4461,7.4553,7.4615,7.4922,7.4738,7.443,7.443,7.4153,7.3876,7.3984,7.343,7.2968,7.3337,7.2598,7.1752,0.0,0.0,0.0,0.0,0.0,0.0,0.0,0.0,0.0,0.0,0.0,0.0,0.0,0.0,0.0,0.0,0.0,0.0,0.0,0.0,0.0,0.0,0.0,0.0,8.1202,8.1697,8.2103,8.2522,8.349,8.4187,8.4614,8.4614,8.5033,8.577,8.4965,8.4614,8.4614,8.4614,8.4614,8.4614,8.4614,8.4614,8.4614,8.4614,8.4614,8.4614,8.4614,8.4614,8.4614,5.4989,5.6166,0.0,0.0,0.0,0.0,0.0,6.2411,0.0,6.4495,0.0,6.7114,6.7729,6.7944,6.8742,7.0477,0.0,7.0462,7.1768,7.1291,7.126,7.1891,7.0721,7.012,7.0305,6.8721,0.0,0.0,0.0,5.9901,5.625,5.6785,5.7722,5.8959,5.9729,6.064,6.1779,6.4334,6.7535,7.089,7.0551,7.1521,7.3091,7.2568,7.3183,7.4245,7.4245,7.383,7.3276,7.3368,7.3461,7.3645,7.4214,7.4399,7.4522,7.5076,7.5199,7.5138,7.5138,7.5076,7.4861,7.4276,7.4138,7.4138,7.4138,7.3768,7.3676,7.4645,7.3553,7.2368,0.0,0.0,0.0,0.0,0.0,0.0,0.0,0.0,0.0,0.0,0.0,0.0,0.0,0.0,0.0,0.0,0.0,0.0,0.0,0.0,0.0,8.0627,8.0999,0.0,8.1304,0.0,8.4444,8.4444,8.4546,8.4965,8.5635,8.4931,8.4614,8.4614,8.4614,8.4614,8.4614,8.4614,8.4614,8.4614,8.4614,8.4614,8.4614,8.4614,8.4614,8.4614,5.6509,5.7843,0.0,0.0,0.0,6.1733,6.3762,6.303,6.3058,6.5327,6.6373,6.695,6.7041,6.8059,6.888,6.9215,6.9702,0.0,0.0,0.0,0.0,7.1506,7.0984,7.1259,7.2445,6.9459,6.7828,0.0,0.0,6.0886,5.9082,5.8664,5.8867,5.9667,6.0886,6.3089,6.5951,6.7535,0.0,7.1044,7.2645,7.3506,7.3876,7.4307,7.4953,7.5661,7.5661,7.523,7.4738,7.5292,7.583,7.6322,7.6445,7.6476,7.6507,7.663,7.6261,7.583,7.583,7.5415,7.4984,7.4861,7.483,7.483,7.483,7.5169,7.523,7.4338,7.4338,7.4323,7.3768,0.0,0.0,0.0,0.0,0.0,0.0,0.0,0.0,0.0,0.0,0.0,0.0,0.0,0.0,7.147,7.2732,0.0,0.0,0.0,7.6995,0.0,7.9431,0.0,0.0,0.0,8.3693,8.3693,8.4323,8.4681,8.4796,8.4647,8.4614,8.4614,8.4614,8.4614,8.4614,8.4614,8.4614,8.4614,8.4614,8.4614,8.4614,8.4614,8.4614,8.4614,5.8386,5.9092,5.9652,0.0,0.0,0.0,0.0,6.4079,0.0,6.649,6.7426,6.8076,6.8471,6.8759,6.932,7.0398,7.0645,7.0997,7.1698,7.2041,7.2228,7.2228,7.1737,0.0,7.2491,7.0874,6.9135,6.735,0.0,6.355,6.0824,6.0855,6.104,6.1409,6.2794,6.4703,6.6997,0.0,0.0,7.1075,7.3168,7.4214,7.4584,7.5261,7.5922,7.6507,7.6507,7.6322,7.6076,7.6414,7.6722,7.6999,7.6999,7.6999,7.6999,7.6999,7.6784,7.6507,7.6507,7.6291,7.5953,7.56,7.5538,7.5446,7.5076,7.5261,7.5292,7.4645,7.4769,7.4799,7.4122,7.306,0.0,0.0,0.0,0.0,0.0,0.0,0.0,0.0,0.0,0.0,0.0,0.0,0.0,7.1808,7.2529,7.3285,0.0,0.0,7.6251,0.0,0.0,0.0,0.0,0.0,0.0,8.2949,8.4039,8.4614,8.4614,8.4614,8.4614,8.4614,8.4614,8.4614,8.4614,8.4614,8.4614,8.4614,8.4614,8.4614,8.4614,8.4614,8.4614,8.4614,6.0363,6.0544,0.0,0.0,6.1055,0.0,6.3725,6.4936,6.6291,6.7846,6.8559,6.9196,6.9909,6.9484,6.9786,7.1437,7.128,7.1438,7.2217,7.244,7.2658,7.289,7.2321,7.2137,7.2414,7.2152,7.0413,0.0,0.0,0.0,6.2227,6.3058,6.3612,6.3937,6.5349,6.6642,0.0,0.0,7.0828,7.1721,7.3506,7.4615,7.5292,7.5953,7.6538,7.6999,7.6999,7.6999,7.6999,7.6999,7.6999,7.6999,7.6999,7.6999,7.6999,7.6999,7.6999,7.6999,7.6999,7.6999,7.6876,7.6353,7.6199,7.6076,7.5569,7.5446,7.5368,7.523,7.4984,7.4676,7.4276,7.3722,0.0,0.0,0.0,0.0,0.0,0.0,0.0,0.0,0.0,0.0,0.0,0.0,0.0,7.1936,7.228,7.324,7.5134,0.0,0.0,0.0,0.0,7.9769,7.935,0.0,8.3849,0.0,8.4039,8.4614,8.4614,8.4614,8.4614,8.4614,8.4614,8.4614,8.4614,8.4614,8.4614,8.4614,8.4614,8.4614,8.4614,8.4614,8.4614,8.4614,0.0,0.0,0.0,0.0,0.0,0.0,6.4742,6.5052,6.6131,6.9357,6.9322,6.9248,6.9923,6.9953,6.9983,7.0163,7.0165,7.0519,7.1439,7.1244,7.1529,7.2515,7.2198,7.2568,7.3799,7.2629,7.1798,0.0,0.0,0.0,6.3629,6.4997,6.6259,6.7475,6.8828,0.0,0.0,7.1429,7.2537,7.3783,7.4584,7.5323,7.5984,7.6661,7.6938,7.6999,7.6999,7.6999,7.6999,7.6999,7.6999,7.6999,7.6999,7.6999,7.6999,7.6999,7.6999,7.6999,7.6999,7.6999,7.6999,7.6938,7.6907,7.6876,7.6814,7.6814,7.663,7.6014,7.4953,7.4245,7.4799,7.286,7.1136,0.0,0.0,0.0,0.0,0.0,0.0,0.0,0.0,0.0,0.0,0.0,0.0,0.0,7.1865,7.2766,0.0,0.0,0.0,7.5879,0.0,7.9486,8.0073,8.2441,8.3849,8.4411,8.4512,8.4614,8.4614,8.4614,8.4614,8.4614,8.4614,8.4614,8.4614,8.4614,8.4614,8.4614,8.4614,8.4614,8.4614,8.4614,8.4614,8.4614,0.0,0.0,0.0,0.0,0.0,0.0,0.0,6.6653,6.8564,7.0316,7.0007,6.9708,6.9977,7.0007,7.0157,7.05,7.0393,7.0528,7.1056,7.0841,7.1137,7.2151,7.2075,7.2445,7.3368,7.2876,7.1983,0.0,0.0,0.0,6.6275,6.6843,6.7613,6.8551,0.0,7.0274,7.0982,7.2137,7.3153,7.4091,7.5169,7.5768,7.6076,7.6753,7.6999,7.6999,7.6999,7.6999,7.6999,7.6999,7.6999,7.6999,7.6999,7.6999,7.6999,7.6999,7.6999,7.6999,7.6999,7.6999,7.6999,7.6999,7.6999,7.6999,7.6999,7.6999,7.6938,7.6661,7.583,7.5292,7.5569,7.503,7.4184,0.0,0.0,0.0,0.0,0.0,0.0,0.0,0.0,0.0,0.0,0.0,0.0,0.0,7.0448,0.0,0.0,0.0,0.0,7.6384,0.0,8.0008,8.1515,8.2847,8.3659,8.3964,8.4377,8.4614,8.4614,8.4614,8.4614,8.4614,8.4614,8.4614,8.4614,8.4614,8.4614,8.4614,8.4614,8.4614,8.4614,8.4614,8.4614,8.4614,6.1436,0.0,6.1057,0.0,6.2243,6.4494,6.491,6.6925,6.8998,7.0686,7.0366,7.0007,7.0007,7.0157,7.0366,7.062,7.0635,7.0726,7.1043,7.0689,7.0923,7.1951,7.1997,0.0,7.2702,7.2871,7.2212,7.0662,7.0247,0.0,0.0,6.8197,6.8766,0.0,7.0505,7.1075,7.1598,7.2783,7.3783,7.4676,7.5614,7.6107,7.6353,7.6814,7.6999,7.6999,7.6999,7.6999,7.6983,7.6884,7.6851,7.6868,7.6966,7.6999,7.6999,7.6999,7.6999,7.6999,7.6999,7.6999,7.6999,7.6999,7.6999,7.6999,7.6999,7.6999,7.6999,7.6999,7.6476,7.5984,7.5984,7.623,7.5891,7.4245,0.0,0.0,0.0,0.0,0.0,0.0,7.0551,7.1044,7.0644,0.0,0.0,0.0,0.0,0.0,0.0,0.0,0.0,0.0,0.0,0.0,0.0,8.1999,8.2865,8.3289,8.4149,8.4614,8.4614,8.4614,8.4614,8.4614,8.4614,8.4614,8.4614,8.4614,8.4614,8.4614,8.4614,8.4614,8.4614,8.4614,8.4614,8.4614,6.3729,6.3596,6.2911,6.2089,6.1506,6.2151,6.5146,6.5045,6.6181,7.0352,7.0366,7.0007,7.0007,7.053,7.0649,7.0067,7.0546,7.1035,7.1373,7.0787,7.0885,0.0,0.0,7.1931,7.2023,7.2614,7.2744,7.2469,0.0,0.0,6.8904,6.8904,6.9981,7.1998,7.266,7.2968,7.303,7.3707,7.4769,7.5984,7.5984,7.6384,7.6999,7.6999,7.6999,7.6999,7.6999,7.6999,7.695,7.662,7.6521,7.657,7.6901,7.6999,7.6999,7.6999,7.6999,7.6999,7.6999,7.6999,7.6999,7.6999,7.6999,7.6999,7.6999,7.6999,7.6999,7.6999,7.6476,7.5984,7.5984,7.5476,7.4799,7.4091,0.0,0.0,0.0,0.0,0.0,0.0,7.072,7.1429,7.0043,0.0,0.0,0.0,0.0,0.0,0.0,0.0,0.0,7.2427,7.382,0.0,7.6649,7.9301,8.1335,8.2713,8.3974,8.4614,8.4614,8.4614,8.4614,8.4614,8.4614,8.4614,8.4614,8.4614,8.4614,8.4614,8.4614,8.4614,8.4614,8.4614,8.4614,8.4614,6.1796,6.1572,6.1083,6.0818,6.1481,6.2872,6.5246,6.6264,6.7775,7.0542,7.0739,7.044,7.0037,7.053,7.0829,0.0,7.041,7.0405,0.0,7.0108,7.0175,7.1201,7.1247,7.146,7.1977,7.2189,7.1994,7.142,0.0,0.0,0.0,7.1353,7.2291,7.3337,7.3122,7.3522,7.4368,7.4584,7.5199,7.6029,7.6231,7.6486,7.6637,7.6341,7.6288,7.6305,7.6288,7.6288,7.6271,7.6124,7.6138,7.6171,7.6271,7.6335,7.6355,7.6604,7.667,7.6719,7.6933,7.6999,7.6999,7.6999,7.6999,7.6999,7.6999,7.6999,7.6999,7.6999,7.6814,7.6691,7.6691,7.6507,7.5984,7.4861,7.5076,0.0,0.0,0.0,0.0,0.0,7.1875,7.2167,0.0,7.1229,0.0,0.0,0.0,0.0,0.0,0.0,0.0,0.0,7.5523,0.0,7.8755,8.0429,8.1776,8.2718,8.3994,8.4614,8.4614,8.4614,8.4614,8.4614,8.4614,8.4614,8.4614,8.4614,8.4614,8.4614,8.4614,8.4614,8.4614,8.4614,8.4614,8.4681,6.0909,6.0804,6.0621,6.0849,6.1674,6.2947,6.4805,6.5633,6.7037,6.9709,6.9838,6.9856,7.0302,7.0679,0.0,7.059,7.041,7.0417,7.0579,7.0188,7.0254,7.0852,7.1139,7.1367,7.1594,0.0,0.0,7.1088,7.1487,7.1874,7.2339,7.3018,7.3435,7.3588,7.3389,7.3897,7.4823,7.5068,7.5671,7.6382,7.6469,7.6504,7.6471,7.6057,7.5954,7.6001,7.5954,7.5954,7.5984,7.5786,7.5752,7.5765,7.5647,7.5597,7.5668,7.6124,7.6258,7.6341,7.6719,7.6818,7.6835,7.6966,7.6999,7.6999,7.6999,7.6999,7.6999,7.6999,7.6999,7.6999,7.6999,7.6999,7.6722,7.5891,7.6107,7.5768,7.3999,0.0,0.0,0.0,0.0,0.0,0.0,7.2214,0.0,0.0,0.0,0.0,0.0,0.0,0.0,7.4135,7.4947,0.0,7.7975,7.9954,8.1264,8.2015,8.3756,8.4614,8.4614,8.4614,8.4614,8.4614,8.4614,8.4614,8.4614,8.4614,8.4614,8.4614,8.4614,8.4614,8.4647,8.4931,8.5033,8.51,6.104,6.1118,0.0,0.0,6.1939,0.0,6.3965,6.3785,6.479,6.8356,6.836,6.8809,7.0832,7.1038,7.0799,7.0247,0.0,0.0,0.0,7.0919,7.0919,7.0979,7.1564,7.1637,7.1068,7.1637,7.1831,7.1492,7.248,7.3248,7.3854,7.3887,7.3584,7.3068,7.3707,7.4221,7.4635,7.5295,7.6087,7.6901,7.657,7.6438,7.6388,7.5974,7.5887,7.5934,7.5934,7.5934,7.5883,7.5482,7.5363,7.5295,7.4988,7.4886,7.5023,7.5671,7.5873,7.5957,7.6371,7.6488,7.6587,7.6884,7.6983,7.6999,7.6999,7.6999,7.6999,7.6999,7.6999,7.6999,7.6999,7.6999,7.6999,7.6999,7.6999,7.6538,7.5261,0.0,0.0,0.0,0.0,0.0,0.0,7.266,7.226,0.0,0.0,0.0,0.0,0.0,7.2244,7.2152,7.2845,7.3846,7.5189,7.8314,8.0269,8.1095,8.3462,8.4614,8.4614,8.4614,8.4614,8.4614,8.4614,8.4614,8.4614,8.4614,8.4614,8.4614,8.4614,8.4614,8.4681,8.5452,8.5736,8.5736,0.0,0.0,6.1144,6.1275,6.1319,6.1988,6.3893,6.5457,6.7298,6.9742,7.1002,7.1854,7.2365,7.2428,7.2368,7.2235,7.1427,7.1128,7.1623,7.1188,7.1128,7.1653,7.1833,7.2056,7.2428,7.2578,7.2628,7.2544,7.3027,7.3359,7.3526,7.3773,7.4069,7.445,7.4897,7.5279,7.5601,7.6083,7.6235,7.6188,7.5803,7.5651,7.5617,7.5278,7.5142,7.5159,7.5159,7.5159,7.5142,7.504,7.5006,7.5006,7.492,7.4886,7.4971,7.5397,7.5516,7.5617,7.6004,7.6305,7.6537,7.6604,7.6818,7.6999,7.6999,7.6999,7.6999,7.6999,7.6999,7.6999,7.6999,7.6999,7.6999,7.6999,7.6999,7.6722,7.5877,7.5476,0.0,0.0,7.483,7.4922,7.5953,7.5446,7.483,0.0,0.0,0.0,0.0,7.4491,7.4584,7.3553,7.4676,7.591,7.7198,7.944,8.1635,8.3715,8.4325,8.4614,8.4614,8.4614,8.4614,8.4614,8.4614,8.4614,8.4614,8.4614,8.4614,8.4614,8.4614,8.4614,8.4614,8.483,8.4898,8.4965,6.1581,6.1555,6.1581,6.1823,6.2111,6.2667,6.3793,6.4963,6.6359,6.8153,6.9802,7.106,7.1739,7.2445,7.3027,7.3343,7.2398,7.1966,7.2325,7.2026,7.1996,7.2325,7.2355,7.2535,7.2877,7.2907,7.3057,7.3373,7.3544,7.3794,7.4095,7.4279,7.4543,7.4922,7.514,7.5372,7.5701,7.5903,7.5987,7.5967,7.555,7.5397,7.5363,7.5023,7.4886,7.4886,7.4886,7.4886,7.4886,7.4886,7.4886,7.4886,7.4886,7.4886,7.4937,7.5108,7.5159,7.5244,7.56,7.5853,7.6037,7.6221,7.6405,7.657,7.6736,7.6769,7.6818,7.6966,7.6999,7.6999,7.6999,7.6999,7.6999,7.6999,7.6753,7.6414,7.6045,7.5692,0.0,7.5953,7.5692,7.5754,7.6476,7.5922,7.5522,7.5476,0.0,0.0,7.4922,7.5323,7.5353,7.4922,7.5614,7.6478,7.7494,7.9706,8.2087,8.4614,8.4614,8.4614,8.4614,8.4614,8.4614,8.4614,8.4614,8.4614,8.4614,8.4614,8.4614,8.4614,8.4614,8.4614,8.4681,8.5391,8.5642,8.5777,6.1353,6.1842,6.241,6.2842,6.3437,6.3822,6.3822,6.4087,6.4842,6.633,6.7936,6.9505,7.0999,7.2375,7.3432,7.4001,7.3522,7.3146,7.3057,7.2967,7.2937,7.3057,7.3057,7.3086,7.3206,7.3206,7.3492,7.4031,7.4031,7.4347,7.4886,7.4886,7.4886,7.4886,7.4937,7.5108,7.5312,7.5363,7.558,7.5816,7.5448,7.5312,7.5278,7.5006,7.4886,7.4886,7.4886,7.4886,7.4886,7.4886,7.4886,7.4886,7.4886,7.4886,7.4886,7.4886,7.4886,7.4954,7.5244,7.5346,7.5482,7.59,7.6001,7.6101,7.6421,7.6504,7.6604,7.6933,7.6999,7.6999,7.6999,7.6999,7.6968,7.6876,7.6384,7.5953,7.586,0.0,7.5984,7.5984,7.6076,7.6137,7.6137,7.5661,7.5538,7.6107,7.5107,7.4892,0.0,7.5569,7.5538,7.5984,7.6107,7.6626,7.7557,7.9913,8.2259,8.4614,8.4614,8.4614,8.4614,8.4614,8.4614,8.4614,8.4614,8.4614,8.4614,8.4715,8.4728,8.4614,8.4864,8.4898,8.4965,8.6386,8.6893,8.6995,6.2555,6.3018,6.3456,6.356,6.3992,6.4384,6.4384,6.5977,6.7694,6.9254,7.0858,7.2454,7.406,7.445,7.4616,7.4736,7.4646,7.4347,7.3791,7.3206,7.3146,7.3732,7.3732,7.4001,7.4587,7.4587,7.4646,7.4736,7.4736,7.4796,7.4886,7.4886,7.4886,7.4903,7.5193,7.5176,7.4988,7.5278,7.5261,7.5057,7.4988,7.4971,7.4971,7.4903,7.4886,7.4886,7.4886,7.4886,7.4886,7.4886,7.4886,7.4886,7.4886,7.4886,7.4886,7.4886,7.4886,7.4903,7.4954,7.5176,7.5482,7.5823,7.5954,7.6101,7.6421,7.6504,7.6604,7.6933,7.6999,7.6999,7.6999,7.6999,7.6814,7.6261,7.6076,7.5799,7.523,0.0,7.5984,7.5984,7.6507,7.6845,7.6845,7.6753,7.6722,7.6845,7.6661,7.6384,7.6014,7.6445,7.6476,7.6014,7.6538,7.7947,8.0169,8.165,8.3157,8.4614,8.4614,8.4614,8.4614,8.4614,8.4614,8.4614,8.4614,8.4614,8.4647,8.5317,8.5215,8.4715,8.6048,8.6163,8.5736,8.6602,8.6893,8.6927,6.2816,6.3522,6.4038,6.3743,6.4404,6.4979,6.4979,6.5856,6.6769,6.7469,6.8962,7.0559,7.2146,7.3082,7.3963,7.4817,7.4886,7.4766,7.4467,7.4168,7.4138,7.4437,7.4437,7.4587,7.4886,7.4886,7.4886,7.4886,7.4886,7.4886,7.4886,7.4886,7.4886,7.4903,7.5057,7.504,7.4903,7.5057,7.504,7.4886,7.4886,7.4886,7.4886,7.4886,7.4886,7.4886,7.4886,7.4886,7.4886,7.4886,7.4886,7.4886,7.4886,7.4886,7.4886,7.4886,7.4886,7.4886,7.4886,7.5006,7.5159,7.5299,7.538,7.5533,7.6104,7.6221,7.6371,7.6884,7.6999,7.6999,7.6999,7.6999,7.6784,7.6107,7.5984,0.0,7.5107,7.56,7.5984,7.5984,7.6599,7.6999,7.6999,7.6999,7.6999,7.6999,7.6999,7.6876,7.6568,7.6845,7.6876,7.6538,7.6845,7.8232,8.0769,8.1374,8.2675,8.4614,8.4614,8.4614,8.4614,8.4614,8.4614,8.4614,8.5067,8.5249,8.5317,8.6095,8.5926,8.5351,8.6453,8.6433,8.5939,8.7076,8.7482,8.755,6.3208,6.4018,6.4567,6.4162,6.4815,6.5391,6.5391,6.5391,6.5529,6.5923,6.7021,6.8517,7.0439,7.1769,7.3146,7.4766,7.4886,7.4886,7.4886,7.4886,7.4886,7.4886,7.4886,7.4886,7.4886,7.4886,7.4886,7.4886,7.4886,7.4886,7.4886,7.4886,7.4886,7.4886,7.4886,7.4886,7.4886,7.4886,7.4886,7.4886,7.4886,7.4886,7.4886,7.4886,7.4886,7.4886,7.4886,7.4886,7.4886,7.4886,7.4886,7.4886,7.4886,7.4886,7.4886,7.4886,7.4886,7.4886,7.4886,7.4886,7.4886,7.4886,7.4886,7.5057,7.5732,7.5934,7.6138,7.6752,7.695,7.6999,7.6999,7.6999,7.6784,7.6107,0.0,7.583,7.5292,7.5692,7.6045,7.6199,7.6691,7.6999,7.6999,7.6999,7.6999,7.6999,7.6999,7.6999,7.6999,7.6999,7.6999,7.6999,7.6999,7.8088,8.0352,8.065,8.1944,8.4157,8.446,8.4614,8.4614,8.4614,8.4614,8.4647,8.5452,8.5804,8.5872,8.6602,8.6467,8.5872,8.6602,8.6569,8.6196,8.7516,8.8091,8.8342,6.4365,6.4881,6.5338,6.5286,6.5338,6.5391,6.5391,6.5391,6.5943,6.7446,6.7726,6.8952,7.1985,7.2443,7.3146,7.4766,7.4886,7.4886,7.4886,7.4886,7.4886,7.4886,7.4886,7.4886,7.4886,7.4886,7.4886,7.4886,7.4886,7.4886,7.4886,7.4886,7.4886,7.4886,7.4886,7.4886,7.4886,7.4886,7.4886,7.4886,7.4886,7.4886,7.4886,7.4886,7.4886,7.4886,7.4886,7.4886,7.4886,7.4886,7.4886,7.4886,7.4886,7.4886,7.4886,7.4886,7.4886,7.4886,7.4886,7.4886,7.4886,7.4886,7.4886,7.4988,7.5346,7.5671,7.6024,7.6471,7.6785,7.6999,7.6999,7.6999,7.6784,7.6107,0.0,0.0,7.5922,7.5953,7.623,7.6845,7.6968,7.6999,7.6999,7.6999,7.6999,7.6999,7.6999,7.6999,7.6999,7.6999,7.6999,7.6999,7.6999,7.7654,7.9036,8.0231,8.1476,8.2858,8.4049,8.4614,8.4614,8.4614,8.4614,8.4647,8.5452,8.5804,8.5872,8.6602,8.6467,8.5872,8.6602,8.6859,8.6893,8.7719,8.8429,8.9018,6.4495,6.5005,6.5286,6.4907,6.5136,6.5391,6.5391,6.5391,6.5628,6.623,6.7176,6.8612,7.0779,7.1913,7.3146,7.4766,7.4886,7.4886,7.4886,7.4886,7.4886,7.4886,7.4886,7.4886,7.4886,7.4886,7.4886,7.4886,7.4886,7.4886,7.4886,7.4886,7.4886,7.4886,7.4886,7.4886,7.4886,7.4886,7.4886,7.4886,7.4886,7.4886,7.4886,7.4886,7.4886,7.4886,7.4886,7.4886,7.4886,7.4886,7.4886,7.4886,7.4886,7.4886,7.4886,7.4886,7.4886,7.4886,7.4886,7.4886,7.4886,7.4886,7.4886,7.4988,7.5312,7.5685,7.6054,7.6438,7.6769,7.6999,7.6999,7.6999,7.6784,7.6107,0.0,7.6476,7.6045,7.6353,7.6722,7.6968,7.6999,7.6999,7.6999,7.6999,7.6999,7.6999,7.6999,7.6999,7.6999,7.6999,7.6999,7.6999,7.6999,7.7605,7.8895,8.0171,8.1432,8.2718,8.3994,8.4614,8.4614,8.4614,8.4614,8.4647,8.5452,8.6075,8.6501,8.6792,8.6724,8.6501,8.6792,8.6893,8.6995,8.7719,8.8477,8.9086,6.4776,6.5109,6.5266,6.4855,6.5109,6.5391,6.5391,6.5391,6.5391,6.5391,6.6367,6.7649,6.9205,7.0797,7.2379,7.3998,7.4628,7.4886,7.4886,7.4886,7.4886,7.4886,7.4886,7.4886,7.4886,7.4886,7.4886,7.4886,7.4886,7.4886,7.4886,7.4886,7.4886,7.4886,7.4886,7.4886,7.4886,7.4886,7.4886,7.4886,7.4886,7.4886,7.4886,7.4886,7.4886,7.4886,7.4886,7.4886,7.4886,7.4886,7.4886,7.4886,7.4886,7.4886,7.4886,7.4886,7.4886,7.4886,7.4886,7.4886,7.4886,7.4886,7.4886,7.4954,7.5176,7.5647,7.6085,7.6288,7.6686,7.6999,7.6999,7.6999,7.6845,7.6384,7.6691,7.6845,7.6384,7.6722,7.6999,7.6999,7.6999,7.6999,7.6999,7.6999,7.6999,7.6999,7.6999,7.6999,7.6999,7.6999,7.6907,7.6691,7.6691,7.6992,7.7653,7.9338,8.0635,8.1538,8.3199,8.4008,8.4021,8.4419,8.4614,8.4647,8.5452,8.6108,8.6569,8.6569,8.6569,8.6535,8.6284,8.6318,8.6636,8.738,8.8125,8.8781,6.5391,6.5391,6.5391,6.5391,6.5391,6.5391,6.5391,6.5391,6.5391,6.5391,6.5391,6.6015,6.7638,6.9187,7.075,7.2372,7.3963,7.4886,7.4886,7.4886,7.4886,7.4886,7.4886,7.4886,7.4886,7.4886,7.4886,7.4886,7.4886,7.4886,7.4886,7.4886,7.4886,7.4886,7.4903,7.4916,7.4916,7.4916,7.4916,7.4916,7.4886,7.4886,7.4886,7.4886,7.4886,7.4886,7.4886,7.4886,7.4886,7.4886,7.4886,7.4886,7.4886,7.4886,7.4886,7.4886,7.4886,7.4886,7.4886,7.4886,7.4886,7.4886,7.4886,7.4886,7.4886,7.5478,7.6001,7.6001,7.6521,7.6999,7.6999,7.6999,7.6999,7.6999,7.6999,7.6999,7.6999,7.6999,7.6999,7.6999,7.6999,7.6999,7.6999,7.6999,7.6999,7.6999,7.6999,7.6999,7.6999,7.6999,7.6691,7.6014,7.5984,7.5692,7.5015,7.759,7.8879,7.8911,8.1447,8.2656,8.2699,8.3974,8.4553,8.4621,8.5391,8.579,8.579,8.579,8.5804,8.5736,8.4898,8.51,8.5905,8.6636,8.738,8.8091,6.5391,6.5391,6.5391,6.5391,6.5391,6.5391,6.5391,6.5391,6.5391,6.5391,6.6387,6.7272,6.7745,7.0172,7.1985,7.2461,7.3963,7.4886,7.4886,7.4467,7.4197,7.4197,7.4197,7.4407,7.4886,7.4437,7.4437,7.4886,7.4886,7.4886,7.4886,7.4886,7.4886,7.4916,7.5395,7.5587,7.5587,7.5587,7.5587,7.5557,7.5095,7.4886,7.4886,7.4886,7.4886,7.4886,7.4886,7.4886,7.4886,7.4886,7.4886,7.4886,7.4886,7.4886,7.4886,7.4886,7.4886,7.4886,7.4886,7.4886,7.4886,7.4886,7.4886,7.4886,7.4886,7.5244,7.5634,7.5887,7.6291,7.6736,7.695,7.6999,7.6999,7.6999,7.6999,7.6999,7.6999,7.6999,7.6999,7.6999,7.6999,7.6999,7.6999,7.6999,7.6999,7.6999,7.6999,7.6999,7.6999,7.6999,7.6691,7.6014,7.5984,7.5692,7.5015,7.6651,7.7504,7.7519,7.918,7.9945,7.9959,8.0363,8.0781,8.1245,8.149,8.2666,8.4424,8.3863,8.4495,8.5736,8.4898,8.51,8.5905,8.6636,8.738,8.8091,6.5391,6.5391,6.5391,6.5391,6.5391,6.5391,6.5391,6.5391,6.5391,6.5391,6.625,6.7098,6.7726,7.0043,7.1823,7.2443,7.3727,7.4377,7.4138,7.3732,7.3492,7.3492,7.3253,7.3402,7.4108,7.3971,7.4108,7.4497,7.4766,7.4886,7.4886,7.4886,7.4886,7.4916,7.5335,7.5497,7.5497,7.5497,7.5497,7.5467,7.5065,7.4886,7.4886,7.4886,7.4886,7.4886,7.4886,7.4886,7.4886,7.4886,7.4886,7.4886,7.4886,7.4886,7.4946,7.5215,7.5305,7.5365,7.5587,7.5647,7.5647,7.5647,7.5275,7.4886,7.4886,7.5159,7.5448,7.5668,7.6037,7.6405,7.6736,7.6802,7.6851,7.6966,7.6999,7.6999,7.6999,7.6999,7.6999,7.6999,7.6999,7.6999,7.6999,7.6999,7.6999,7.6999,7.6999,7.6999,7.6999,7.6753,7.6291,7.563,7.5353,7.4892,7.423,7.4951,7.5603,7.615,7.7444,7.8036,7.8051,7.8578,7.9022,7.9414,7.9691,8.0746,8.2303,8.26,8.3451,8.4591,8.4588,8.51,8.5905,8.6636,8.738,8.8091,6.5391,6.5391,6.5391,6.5391,6.5391,6.5391,6.5391,6.5391,6.5391,6.5391,6.5391,6.5936,6.7345,6.901,7.0592,7.2002,7.3167,7.3552,7.2937,7.2847,7.2817,7.2817,7.2176,7.2086,7.2698,7.3432,7.3821,7.3881,7.4557,7.4886,7.4886,7.4886,7.4886,7.4886,7.4946,7.4976,7.4976,7.4976,7.4976,7.4976,7.4916,7.4886,7.4886,7.4886,7.4886,7.4886,7.4886,7.4886,7.4916,7.4976,7.4976,7.4976,7.4976,7.4976,7.5095,7.5707,7.5916,7.6018,7.6647,7.6779,7.6779,7.6779,7.5946,7.5065,7.5006,7.5185,7.5363,7.538,7.5668,7.6068,7.6438,7.6488,7.657,7.6933,7.6966,7.6966,7.6983,7.6999,7.6999,7.6999,7.6999,7.6999,7.6999,7.6999,7.6999,7.6999,7.6999,7.6968,7.6907,7.6322,7.5661,7.4922,7.4307,7.3676,7.2999,7.2999,7.3614,7.4846,7.6009,7.6561,7.6607,7.7805,7.8411,7.8494,7.9174,7.9574,7.9877,8.1767,8.2605,8.283,8.4103,8.51,8.5905,8.6636,8.738,8.8091,6.5391,6.5391,6.5391,6.5391,6.5391,6.5391,6.5391,6.5391,6.5391,6.5391,6.5391,6.5352,6.5232,6.771,6.9364,6.9217,7.161,7.3073,7.2907,7.2415,7.2116,7.2116,7.1457,7.1188,7.1321,7.2488,7.3373,7.3881,7.4557,7.4886,7.4886,7.4886,7.4886,7.4916,7.5455,7.5677,7.5677,7.5677,7.5677,7.5647,7.5095,7.4886,7.4886,7.4886,7.4886,7.4886,7.4886,7.4886,7.4976,7.5497,7.5677,7.5677,7.5677,7.5677,7.5707,7.5856,7.5916,7.6018,7.6647,7.6779,7.6779,7.6779,7.6587,7.6258,7.5796,7.5327,7.5074,7.5346,7.5465,7.5718,7.6388,7.6288,7.6288,7.6901,7.6785,7.6703,7.6966,7.6999,7.6999,7.6999,7.6999,7.6999,7.6999,7.6999,7.6999,7.6999,7.6999,7.6784,7.623,7.6076,7.5446,7.4245,7.4076,7.3676,7.2999,7.2999,7.3153,7.343,7.3695,7.385,7.3881,7.4672,7.534,7.5854,7.6524,7.7669,7.9201,8.0615,8.1814,8.283,8.4103,8.51,8.5905,8.6636,8.738,8.8091,6.5391,6.5391,6.5391,6.5391,6.5391,6.5391,6.5391,6.5391,6.5391,6.5391,6.5391,6.5582,6.602,6.7296,6.8333,6.892,7.1069,7.2295,7.195,7.1607,7.1427,7.1427,7.1098,7.0889,7.0889,7.1906,7.2744,7.3432,7.4091,7.4587,7.4886,7.4886,7.4886,7.4933,7.5275,7.5407,7.5407,7.5407,7.5407,7.5395,7.5035,7.4886,7.4886,7.4886,7.4886,7.4886,7.4886,7.5095,7.5437,7.5766,7.6078,7.6317,7.6317,7.6138,7.5976,7.6228,7.6317,7.6467,7.7095,7.7514,7.7753,7.7753,7.7514,7.7035,7.6125,7.5617,7.5357,7.5168,7.5159,7.5329,7.5887,7.5819,7.5937,7.6653,7.662,7.662,7.695,7.6999,7.6999,7.6999,7.6999,7.6999,7.6999,7.6999,7.6999,7.6999,7.6999,7.6722,7.6045,7.5707,7.5046,7.403,7.3707,7.3337,7.2999,7.2999,7.2999,7.2999,7.2999,7.2999,7.303,7.3691,7.4184,7.4553,7.523,7.6279,7.762,7.8884,8.0359,8.1929,8.3199,8.4762,8.6366,8.6758,8.7583,8.8578,6.5391,6.5391,6.5391,6.5391,6.5391,6.5391,6.5391,6.5391,6.5391,6.5391,6.5391,6.5871,6.7118,6.7172,6.7864,6.9678,7.1212,7.1816,7.1278,7.1248,7.1188,7.1068,7.1068,7.1009,7.0889,7.1427,7.2116,7.2907,7.3582,7.4257,7.4886,7.4886,7.4886,7.4886,7.4886,7.4886,7.4886,7.4886,7.4886,7.4886,7.4886,7.4886,7.4886,7.4886,7.4886,7.4886,7.4886,7.5335,7.5916,7.6018,7.6467,7.6958,7.6958,7.6557,7.6138,7.6647,7.6719,7.6826,7.7574,7.822,7.8639,7.8759,7.837,7.7682,7.6485,7.6066,7.5736,7.5185,7.4976,7.4988,7.5329,7.5346,7.5566,7.6388,7.6454,7.6554,7.6933,7.6999,7.6999,7.6999,7.6999,7.6999,7.6999,7.6999,7.6999,7.6999,7.6907,7.6538,7.586,7.5199,7.4522,7.3861,7.3276,7.2999,7.2999,7.2999,7.2999,7.2999,7.2999,7.2999,7.303,7.383,7.4153,7.4214,7.4892,7.5507,7.6113,7.7589,7.9163,8.0799,8.2397,8.4592,8.6927,8.7164,8.8057,8.9086,6.5391,6.5391,6.5391,6.5391,6.5391,6.5391,6.5391,6.5391,6.5391,6.5391,6.5391,6.5286,6.4985,6.6819,6.8732,7.0263,7.1859,7.2727,7.2638,7.2638,7.2385,7.1803,7.1773,7.1504,7.0919,7.0979,7.1667,7.2907,7.3582,7.4257,7.4886,7.4886,7.4886,7.4886,7.4886,7.4886,7.4886,7.4886,7.4886,7.4886,7.4886,7.4886,7.4886,7.4886,7.4886,7.4886,7.4886,7.5335,7.5976,7.6497,7.7125,7.7664,7.7664,7.7215,7.6689,7.6779,7.6437,7.6288,7.7502,7.7861,7.8071,7.8657,7.8729,7.846,7.7711,7.6676,7.5886,7.5796,7.5305,7.4988,7.5329,7.5159,7.5295,7.6338,7.6255,7.6271,7.6901,7.6999,7.6999,7.6999,7.6999,7.6999,7.6999,7.6999,7.6999,7.6999,7.6445,7.583,7.5169,7.4491,7.383,7.3153,7.306,7.2999,7.2999,7.2999,7.2999,7.2999,7.2999,7.2999,7.303,7.4276,7.4861,7.4892,7.5553,7.5938,7.6194,7.8555,7.9692,8.0235,8.3201,8.5392,8.7062,8.8342,8.8917,8.9086,6.5391,6.5391,6.5391,6.5391,6.5391,6.5391,6.5391,6.5391,6.5391,6.5391,6.5391,6.5312,6.5031,6.7285,6.9286,7.0523,7.1994,7.2907,7.2907,7.2907,7.2757,7.2475,7.2445,7.2325,7.2009,7.2009,7.2505,7.3462,7.3373,7.3881,7.4886,7.4886,7.4886,7.4886,7.4886,7.4886,7.4886,7.4886,7.4886,7.4886,7.4886,7.4886,7.4886,7.4886,7.4886,7.4886,7.4886,7.5335,7.6006,7.6617,7.7245,7.7861,7.825,7.7921,7.7305,7.6898,7.6617,7.6527,7.7095,7.7514,7.7981,7.8639,7.8807,7.8609,7.7951,7.7065,7.6317,7.5976,7.5365,7.4937,7.5091,7.4988,7.5108,7.5786,7.5937,7.6185,7.6653,7.6884,7.6999,7.6999,7.6999,7.6999,7.6999,7.6999,7.6845,7.6476,7.6168,7.5522,7.4491,7.4153,7.3707,7.303,7.2999,7.2999,7.2999,7.2999,7.2999,7.2999,7.2999,7.2999,7.306,7.4399,7.5015,7.5015,7.5323,7.5661,7.605,7.6823,7.775,7.9013,8.149,8.43,8.7062,8.8545,8.9086,8.9086]},{"header":{"parameterUnit":"m.s-1","parameterCategory":1,"la1":30.6,"la2":28.766,"lo1":-90.7593,"lo2":-88.6598,"dx":0.0162,"dy":0.0183,"nx":116,"ny":114,"refTime":"2022-11-10T06:00:00:Z","depth":0,"parameterNumber":3,"parameterNumberName":"V-component_of_WINDS"},"data":[0.0,0.0,0.0,0.0,0.0,0.0,0.0,0.0,0.0,0.0,0.0,0.0,0.0,0.0,0.0,0.0,0.0,0.0,0.0,0.0,0.0,0.0,0.0,0.0,0.0,0.0,0.0,0.0,0.0,0.0,0.0,0.0,0.0,0.0,0.0,0.0,0.0,0.0,0.0,0.0,0.0,0.0,0.0,0.0,0.0,0.0,0.0,0.0,0.0,0.0,0.0,0.0,0.0,0.0,0.0,0.0,0.0,0.0,0.0,0.0,0.0,0.0,0.0,0.0,0.0,0.0,0.0,0.0,0.0,0.0,0.0,0.0,0.0,0.0,0.0,0.0,0.0,0.0,0.0,0.0,0.0,0.0,0.0,0.0,0.0,0.0,0.0,0.0,0.0,0.0,0.0,0.0,0.0,0.0,0.0,0.0,0.0,0.0,0.0,0.0,0.0,0.0,0.0,0.0,0.0,0.0,0.0,0.0,0.0,0.0,0.0,0.0,0.0,0.0,0.0,0.0,0.0,0.0,0.0,0.0,0.0,0.0,0.0,0.0,0.0,0.0,0.0,0.0,0.0,0.0,0.0,0.0,0.0,0.0,0.0,0.0,0.0,0.0,0.0,0.0,0.0,0.0,0.0,0.0,0.0,0.0,0.0,0.0,0.0,0.0,0.0,0.0,0.0,0.0,0.0,0.0,0.0,0.0,0.0,0.0,0.0,0.0,0.0,0.0,0.0,0.0,0.0,0.0,0.0,0.0,0.0,0.0,0.0,0.0,0.0,0.0,0.0,0.0,0.0,0.0,0.0,0.0,0.0,0.0,0.0,0.0,0.0,0.0,0.0,0.0,0.0,0.0,0.0,0.0,0.0,0.0,0.0,0.0,0.0,0.0,0.0,0.0,0.0,0.0,0.0,0.0,0.0,0.0,0.0,0.0,0.0,0.0,0.0,0.0,0.0,0.0,0.0,0.0,0.0,0.0,0.0,0.0,0.0,0.0,0.0,0.0,0.0,0.0,0.0,0.0,0.0,0.0,0.0,0.0,0.0,0.0,0.0,0.0,0.0,0.0,0.0,0.0,0.0,0.0,0.0,0.0,0.0,0.0,0.0,0.0,0.0,0.0,0.0,0.0,0.0,0.0,0.0,0.0,0.0,0.0,0.0,0.0,0.0,0.0,0.0,0.0,0.0,0.0,0.0,0.0,0.0,0.0,0.0,0.0,0.0,0.0,0.0,0.0,0.0,0.0,0.0,0.0,0.0,0.0,0.0,0.0,0.0,0.0,0.0,0.0,0.0,0.0,0.0,0.0,0.0,0.0,0.0,0.0,0.0,0.0,0.0,0.0,0.0,0.0,0.0,0.0,0.0,0.0,0.0,0.0,0.0,0.0,0.0,0.0,0.0,0.0,0.0,0.0,0.0,0.0,0.0,0.0,0.0,0.0,0.0,0.0,0.0,0.0,0.0,0.0,0.0,0.0,0.0,0.0,0.0,0.0,0.0,0.0,0.0,0.0,0.0,0.0,0.0,0.0,0.0,0.0,0.0,0.0,0.0,0.0,0.0,0.0,0.0,0.0,0.0,0.0,0.0,0.0,0.0,0.0,0.0,0.0,0.0,0.0,0.0,0.0,0.0,0.0,0.0,0.0,0.0,0.0,0.0,0.0,0.0,0.0,0.0,0.0,0.0,0.0,0.0,0.0,0.0,0.0,0.0,0.0,0.0,0.0,0.0,0.0,0.0,0.0,0.0,0.0,0.0,0.0,0.0,0.0,0.0,0.0,0.0,0.0,0.0,0.0,0.0,0.0,0.0,0.0,0.0,0.0,0.0,0.0,0.0,0.0,0.0,0.0,0.0,0.0,0.0,0.0,0.0,0.0,0.0,0.0,0.0,0.0,0.0,0.0,0.0,0.0,0.0,0.0,0.0,0.0,0.0,0.0,0.0,0.0,0.0,0.0,0.0,0.0,0.0,0.0,0.0,0.0,0.0,0.0,0.0,0.0,0.0,0.0,0.0,0.0,0.0,0.0,0.0,0.0,0.0,0.0,0.0,0.0,0.0,0.0,0.0,0.0,0.0,0.0,0.0,0.0,0.0,0.0,0.0,0.0,0.0,0.0,0.0,0.0,0.0,0.0,0.0,0.0,0.0,0.0,0.0,0.0,0.0,0.0,0.0,0.0,0.0,0.0,0.0,0.0,0.0,0.0,0.0,0.0,0.0,0.0,0.0,0.0,0.0,0.0,0.0,0.0,0.0,0.0,0.0,0.0,0.0,0.0,0.0,0.0,0.0,0.0,0.0,0.0,0.0,0.0,0.0,0.0,0.0,0.0,0.0,0.0,0.0,0.0,0.0,0.0,0.0,0.0,0.0,0.0,0.0,0.0,0.0,0.0,0.0,0.0,0.0,0.0,0.0,0.0,0.0,0.0,0.0,0.0,0.0,0.0,0.0,0.0,0.0,0.0,0.0,0.0,0.0,0.0,0.0,0.0,0.0,0.0,0.0,0.0,0.0,0.0,0.0,0.0,0.0,0.0,0.0,0.0,0.0,0.0,0.0,0.0,0.0,0.0,0.0,0.0,0.0,0.0,0.0,0.0,0.0,0.0,0.0,0.0,0.0,0.0,0.0,0.0,0.0,0.0,0.0,0.0,0.0,0.0,0.0,0.0,0.0,0.0,0.0,0.0,0.0,0.0,0.0,0.0,0.0,0.0,0.0,0.0,0.0,0.0,0.0,0.0,0.0,0.0,0.0,0.0,0.0,0.0,0.0,0.0,0.0,0.0,0.0,0.0,0.0,0.0,0.0,0.0,0.0,0.0,0.0,0.0,0.0,0.0,0.0,0.0,0.0,0.0,0.0,0.0,0.0,0.0,0.0,0.0,0.0,0.0,0.0,0.0,0.0,0.0,0.0,0.0,0.0,0.0,0.0,0.0,0.0,0.0,0.0,0.0,0.0,0.0,0.0,0.0,0.0,0.0,0.0,0.0,0.0,0.0,0.0,0.0,0.0,0.0,0.0,0.0,0.0,0.0,0.0,0.0,0.0,0.0,0.0,0.0,0.0,0.0,0.0,0.0,0.0,0.0,0.0,0.0,0.0,0.0,0.0,0.0,0.0,0.0,0.0,0.0,0.0,0.0,0.0,0.0,0.0,0.0,0.0,0.0,0.0,0.0,0.0,0.0,0.0,0.0,0.0,0.0,0.0,0.0,0.0,0.0,0.0,0.0,0.0,0.0,0.0,0.0,0.0,0.0,0.0,0.0,0.0,0.0,0.0,0.0,0.0,0.0,0.0,0.0,0.0,0.0,0.0,0.0,0.0,0.0,0.0,0.0,0.0,0.0,0.0,0.0,0.0,0.0,0.0,0.0,0.0,0.0,0.0,0.0,0.0,0.0,0.0,0.0,0.0,0.0,0.0,0.0,0.0,0.0,0.0,0.0,0.0,0.0,0.0,0.0,0.0,0.0,0.0,0.0,0.0,0.0,0.0,0.0,0.0,0.0,0.0,0.0,0.0,0.0,0.0,0.0,0.0,0.0,0.0,0.0,0.0,0.0,0.0,0.0,0.0,0.0,0.0,0.0,0.0,0.0,0.0,0.0,0.0,0.0,0.0,0.0,0.0,0.0,0.0,0.0,0.0,0.0,0.0,0.0,0.0,0.0,0.0,0.0,0.0,0.0,0.0,0.0,0.0,0.0,0.0,0.0,0.0,0.0,0.0,0.0,0.0,0.0,0.0,0.0,0.0,0.0,0.0,0.0,0.0,0.0,0.0,0.0,0.0,0.0,0.0,0.0,0.0,0.0,0.0,0.0,0.0,0.0,0.0,0.0,0.0,0.0,0.0,0.0,0.0,0.0,0.0,0.0,0.0,0.0,0.0,0.0,0.0,0.0,0.0,0.0,0.0,0.0,0.0,0.0,0.0,0.0,0.0,0.0,0.0,0.0,0.0,0.0,0.0,0.0,0.0,0.0,0.0,0.0,0.0,0.0,0.0,0.0,0.0,0.0,0.0,0.0,0.0,0.0,0.0,0.0,0.0,0.0,0.0,0.0,0.0,0.0,0.0,0.0,0.0,0.0,0.0,0.0,0.0,0.0,0.0,0.0,0.0,0.0,0.0,0.0,0.0,0.0,0.0,0.0,0.0,0.0,0.0,0.0,0.0,0.0,0.0,0.0,0.0,0.0,0.0,0.0,0.0,0.0,0.0,0.0,0.0,0.0,0.0,0.0,0.0,0.0,0.0,0.0,0.0,0.0,0.0,0.0,0.0,0.0,0.0,0.0,0.0,0.0,0.0,0.0,0.0,0.0,0.0,0.0,0.0,0.0,0.0,0.0,0.0,0.0,0.0,0.0,0.0,0.0,0.0,0.0,0.0,0.0,0.0,0.0,0.0,0.0,0.0,0.0,0.0,0.0,0.0,0.0,0.0,0.0,0.0,0.0,0.0,0.0,0.0,0.0,0.0,0.0,0.0,0.0,0.0,0.0,0.0,0.0,0.0,0.0,0.0,0.0,0.0,0.0,0.0,0.0,0.0,0.0,0.0,0.0,0.0,0.0,0.0,0.0,0.0,0.0,0.0,0.0,0.0,0.0,0.0,0.0,0.0,0.0,0.0,0.0,0.0,0.0,0.0,0.0,0.0,0.0,0.0,0.0,0.0,0.0,0.0,0.0,0.0,0.0,0.0,0.0,0.0,0.0,0.0,0.0,0.0,0.0,0.0,0.0,0.0,0.0,0.0,0.0,0.0,0.0,0.0,0.0,0.0,0.0,0.0,0.0,0.0,0.0,0.0,0.0,0.0,0.0,0.0,0.0,0.0,0.0,0.0,0.0,0.0,0.0,0.0,0.0,0.0,0.0,0.0,0.0,0.0,0.0,0.0,0.0,0.0,0.0,0.0,0.0,0.0,0.0,0.0,0.0,0.0,0.0,0.0,0.0,0.0,0.0,0.0,0.0,0.0,0.0,0.0,0.0,0.0,0.0,0.0,0.0,0.0,0.0,0.0,0.0,0.0,0.0,0.0,0.0,0.0,0.0,0.0,0.0,0.0,0.0,0.0,0.0,0.0,0.0,0.0,0.0,0.0,0.0,0.0,0.0,0.0,0.0,0.0,0.0,0.0,0.0,0.0,0.0,0.0,0.0,0.0,0.0,0.0,0.0,0.0,0.0,0.0,0.0,0.0,0.0,0.0,0.0,0.0,0.0,0.0,0.0,0.0,0.0,0.0,0.0,0.0,0.0,0.0,0.0,0.0,0.0,0.0,0.0,0.0,0.0,0.0,0.0,0.0,0.0,0.0,0.0,0.0,0.0,0.0,0.0,0.0,0.0,0.0,0.0,0.0,0.0,0.0,0.0,0.0,0.0,0.0,0.0,0.0,0.0,0.0,0.0,0.0,0.0,0.0,0.0,0.0,0.0,0.0,0.0,0.0,0.0,0.0,0.0,0.0,0.0,0.0,0.0,0.0,0.0,0.0,0.0,0.0,0.0,0.0,0.0,0.0,0.0,0.0,0.0,0.0,0.0,0.0,0.0,0.0,0.0,0.0,0.0,0.0,0.0,0.0,0.0,0.0,0.0,0.0,0.0,0.0,0.0,0.0,0.0,0.0,0.0,0.0,0.0,0.0,0.0,0.0,0.0,0.0,0.0,0.0,0.0,0.0,0.0,0.0,0.0,0.0,0.0,0.0,0.0,0.0,0.0,0.0,0.0,0.0,0.0,0.0,0.0,0.0,0.0,0.0,0.0,0.0,0.0,0.0,0.0,0.0,0.0,0.0,0.0,0.0,0.0,0.0,0.0,0.0,0.0,0.0,0.0,0.0,0.0,0.0,0.0,0.0,0.0,0.0,0.0,0.0,0.0,0.0,0.0,0.0,0.0,0.0,0.0,0.0,0.0,0.0,0.0,0.0,0.0,0.0,0.0,0.0,0.0,0.0,0.0,0.0,0.0,0.0,0.0,0.0,0.0,0.0,0.0,0.0,0.0,0.0,0.0,0.0,0.0,0.0,0.0,0.0,0.0,0.0,0.0,0.0,0.0,0.0,0.0,0.0,0.0,0.0,0.0,0.0,0.0,0.0,0.0,0.0,0.0,0.0,0.0,0.0,0.0,0.0,0.0,0.0,0.0,2.1951,0.0,0.0,0.0,0.0,0.0,0.0,0.0,0.0,0.0,0.0,0.0,0.0,0.0,0.0,0.0,0.0,0.0,0.0,0.0,0.0,0.0,0.0,0.0,0.0,2.0625,2.1064,2.1494,2.1533,0.0,0.0,0.0,0.0,0.0,0.0,0.0,2.1905,2.209,2.2187,2.2187,2.3234,2.4297,2.5312,2.441,2.3555,2.2727,0.0,0.0,0.0,0.0,0.0,0.0,0.0,0.0,0.0,0.0,0.0,0.0,0.0,0.0,0.0,0.0,0.0,0.0,0.0,0.0,0.0,0.0,0.0,0.0,0.0,0.0,0.0,0.0,0.0,0.0,0.0,0.0,0.0,0.0,0.0,0.0,0.0,0.0,0.0,0.0,0.0,0.0,0.0,0.0,0.0,0.0,0.0,0.0,0.0,0.0,0.0,0.0,0.0,0.0,0.0,0.0,0.0,0.0,0.0,0.0,0.0,0.0,0.0,0.0,0.0,0.0,0.0,0.0,0.0,0.0,0.0,2.2108,0.0,0.0,0.0,0.0,0.0,0.0,0.0,0.0,0.0,0.0,0.0,0.0,0.0,0.0,0.0,0.0,0.0,0.0,0.0,0.0,0.0,1.9931,2.0976,2.1161,2.1366,2.1738,2.1788,2.1836,2.1983,2.2003,0.0,0.0,0.0,0.0,2.2217,2.247,2.2752,2.3064,2.4797,2.6223,2.7331,2.7253,2.6699,2.5708,2.4371,0.0,0.0,0.0,0.0,0.0,0.0,0.0,0.0,0.0,0.0,0.0,0.0,0.0,0.0,0.0,0.0,0.0,0.0,0.0,0.0,0.0,0.0,0.0,0.0,0.0,0.0,0.0,0.0,0.0,0.0,0.0,0.0,0.0,0.0,0.0,0.0,0.0,0.0,0.0,0.0,0.0,0.0,0.0,0.0,0.0,0.0,0.0,0.0,0.0,0.0,0.0,0.0,0.0,0.0,0.0,0.0,0.0,0.0,0.0,0.0,0.0,0.0,0.0,2.4644,2.4778,2.4502,2.4334,2.4267,2.4267,2.33,2.3777,2.5125,0.0,0.0,0.0,0.0,0.0,0.0,0.0,0.0,0.0,0.0,0.0,0.0,0.0,0.0,0.0,0.0,0.0,0.0,0.0,0.0,2.0498,2.0664,2.0986,2.121,2.1278,2.1298,2.161,2.2372,2.2411,0.0,0.0,0.0,2.3123,2.3546,2.3201,2.3755,2.5277,2.7018,2.8144,2.8639,2.8301,2.8223,2.8346,2.7057,2.574,2.4528,0.0,0.0,0.0,0.0,0.0,0.0,0.0,0.0,0.0,0.0,0.0,0.0,0.0,0.0,0.0,0.0,0.0,0.0,0.0,0.0,0.0,0.0,0.0,0.0,0.0,0.0,0.0,0.0,0.0,0.0,0.0,0.0,0.0,0.0,0.0,0.0,0.0,0.0,0.0,0.0,0.0,1.9541,2.0372,0.0,0.0,0.0,0.0,0.0,0.0,0.0,0.0,0.0,0.0,0.0,0.0,0.0,2.3523,2.4735,2.4828,2.4997,2.5272,2.5879,2.6032,2.577,2.5965,2.6186,2.634,2.5224,0.0,2.4409,2.4845,0.0,0.0,0.0,0.0,0.0,0.0,0.0,0.0,0.0,0.0,0.0,0.0,0.0,0.0,0.0,0.0,0.0,0.0,0.0,0.0,0.0,2.1904,2.2371,2.2645,2.3318,2.3677,2.3571,2.3563,0.0,0.0,2.3485,2.3594,2.38,2.4293,2.553,2.7493,2.8268,2.9107,3.0019,2.9844,2.9858,3.0,2.9453,2.793,2.5864,2.6257,0.0,0.0,0.0,0.0,0.0,0.0,0.0,0.0,0.0,0.0,0.0,0.0,0.0,0.0,0.0,0.0,0.0,0.0,0.0,0.0,0.0,0.0,0.0,0.0,0.0,0.0,0.0,0.0,0.0,0.0,0.0,0.0,0.0,0.0,0.0,0.0,0.0,0.0,0.0,1.9126,2.0296,2.111,2.1119,2.091,0.0,0.0,0.0,0.0,0.0,0.0,0.0,0.0,0.0,2.4494,2.4222,2.4543,2.5596,2.5751,2.5959,2.6233,2.668,2.6754,2.6453,2.6573,2.6687,2.6767,2.626,2.5919,2.5632,2.5384,2.5176,2.4967,0.0,0.0,0.0,0.0,2.3415,2.3438,0.0,0.0,0.0,0.0,0.0,0.0,0.0,0.0,0.0,0.0,0.0,0.0,2.2296,2.3114,2.3786,2.4258,2.5066,2.521,2.4449,2.4402,2.4227,2.382,2.3898,2.4015,2.4132,2.5593,2.7253,2.9082,2.94,3.0156,3.1226,3.1226,3.1226,3.1226,3.1226,2.9682,2.7083,2.748,2.6855,2.5488,0.0,0.0,0.0,0.0,0.0,0.0,0.0,0.0,0.0,0.0,0.0,0.0,0.0,0.0,0.0,0.0,0.0,0.0,0.0,0.0,0.0,0.0,0.0,0.0,0.0,0.0,0.0,0.0,0.0,0.0,0.0,0.0,0.0,0.0,0.0,0.0,0.0,2.026,2.1303,2.1878,2.2331,2.2342,0.0,0.0,0.0,0.0,0.0,0.0,2.4885,2.4811,2.5066,2.5695,2.5483,2.5731,2.649,2.6618,2.6773,2.6968,2.7102,2.7041,2.6807,2.6807,2.6847,2.6934,2.6934,2.6934,2.6867,2.5919,2.5711,2.5931,2.5342,2.477,2.4302,2.4235,2.424,2.424,0.0,0.0,0.0,0.0,0.0,0.0,0.0,0.0,0.0,0.0,0.0,2.2734,2.3605,2.4476,2.5168,2.5569,2.5312,2.4914,2.4442,2.4402,2.4227,2.382,2.418,2.457,2.5024,2.7103,2.8627,2.9559,3.0781,3.1641,3.214,3.214,3.214,3.214,3.214,3.0874,2.8814,2.9272,2.849,2.6747,2.4982,0.0,0.0,0.0,0.0,0.0,0.0,0.0,0.0,0.0,0.0,0.0,0.0,0.0,0.0,0.0,0.0,0.0,0.0,0.0,0.0,0.0,0.0,0.0,0.0,0.0,0.0,0.0,0.0,0.0,0.0,0.0,0.0,0.0,0.0,0.0,0.0,0.0,0.0,2.2838,2.4798,0.0,0.0,0.0,0.0,2.4971,2.5224,2.5662,2.6271,2.6294,2.6627,2.736,2.7422,2.756,2.7791,2.7572,2.7449,2.7463,2.7021,2.682,2.6807,2.6807,2.6974,2.7262,2.7262,2.7262,2.7255,2.6881,2.6426,2.5931,2.5342,2.489,2.4639,2.5205,2.5405,2.5585,0.0,0.0,0.0,2.083,2.0543,2.0351,2.0351,2.0576,2.0849,2.1161,2.245,2.3457,2.3761,2.5571,2.6822,2.6973,2.7604,2.7702,2.6953,2.6374,2.5886,2.55,2.507,2.5696,2.75,2.8588,2.9833,3.1279,3.1734,3.2042,3.2198,3.2198,3.2198,3.2198,3.2198,3.1753,3.1011,3.0879,2.998,2.858,2.7361,2.6378,0.0,0.0,0.0,0.0,0.0,0.0,0.0,0.0,0.0,0.0,0.0,0.0,0.0,0.0,0.0,0.0,0.0,0.0,0.0,0.0,0.0,0.0,0.0,0.0,0.0,0.0,0.0,0.0,0.0,0.0,0.0,0.0,0.0,0.0,0.0,0.0,0.0,2.6413,2.6163,0.0,2.5936,2.7138,2.7455,2.6393,2.8092,2.8894,2.8238,2.7923,2.7798,2.7876,2.7918,2.796,2.8022,2.7678,2.7599,2.775,2.7331,2.7128,2.7128,2.7128,2.7181,2.7309,2.7309,2.7309,2.7296,2.7168,2.7008,2.6814,2.6613,2.6446,2.6346,2.658,2.666,2.6714,0.0,0.0,0.0,2.149,2.1194,2.0964,2.0811,2.1035,2.1473,2.2176,2.3418,2.4562,2.543,2.7213,2.8464,2.8758,2.9403,2.9324,2.8177,2.7572,2.6855,2.6001,2.5962,2.7024,2.9283,2.9799,3.083,3.2398,3.2398,3.2476,3.2613,3.2613,3.2613,3.2613,3.2613,3.2535,3.2378,3.207,3.1289,3.0151,2.9135,2.806,2.6805,0.0,0.0,0.0,0.0,0.0,0.0,0.0,0.0,0.0,0.0,0.0,0.0,0.0,0.0,0.0,0.0,0.0,0.0,0.0,0.0,0.0,0.0,0.0,0.0,0.0,0.0,0.0,0.0,0.0,0.0,0.0,0.0,0.0,0.0,0.0,2.7312,2.8643,2.8301,2.7964,2.7967,2.9667,3.0028,2.8288,3.0266,3.0961,2.9503,2.9025,2.8647,2.8349,2.8469,2.8531,2.8484,2.8203,2.8154,2.8328,2.7941,2.7812,2.7907,2.7907,2.788,2.781,2.781,2.7727,2.7603,2.7603,2.7603,2.759,2.7389,2.7309,2.7309,2.7309,2.7309,2.7309,0.0,0.0,2.3763,2.3059,2.2297,2.1644,2.1272,2.121,2.198,2.4098,2.4816,2.6099,2.86,2.935,2.9989,3.0835,3.0488,2.9526,2.7871,2.7721,2.6972,2.527,2.6854,2.8562,3.0195,3.0703,3.1577,3.2812,3.2832,3.3047,3.3422,3.3425,3.3425,3.3422,3.3422,3.3203,3.2812,3.2812,3.2309,3.143,3.017,2.9149,2.8138,0.0,0.0,0.0,0.0,0.0,0.0,0.0,0.0,0.0,0.0,0.0,0.0,0.0,0.0,0.0,0.0,0.0,0.0,0.0,0.0,0.0,0.0,0.0,0.0,0.0,0.0,0.0,0.0,0.0,0.0,0.0,0.0,0.0,2.8499,2.9187,2.9646,2.9462,3.1332,3.204,3.059,3.2787,3.3243,3.071,3.1726,3.174,3.0053,2.9658,2.9299,2.8856,2.9219,2.9359,2.9234,2.9214,2.9228,2.9243,2.8837,2.8808,2.9123,2.9137,2.9056,2.8851,2.8851,2.8619,2.8261,2.8248,2.8261,2.8173,2.7576,2.7349,2.7349,2.7362,2.7342,2.7342,2.39,2.2744,2.1662,2.1318,2.132,2.1323,2.1221,2.1494,2.2246,2.3769,2.5168,2.6653,2.8281,2.9721,3.0639,3.0874,3.0781,3.0249,2.9149,2.8484,2.7786,2.703,2.8607,3.0019,3.1118,3.1894,3.2598,3.3226,3.359,3.3805,3.3922,3.4199,3.418,3.3903,3.3903,3.3652,3.3226,3.3226,3.293,3.2383,3.1734,3.0757,2.957,0.0,0.0,0.0,0.0,0.0,0.0,0.0,0.0,0.0,0.0,0.0,0.0,0.0,0.0,0.0,0.0,0.0,0.0,0.0,0.0,0.0,0.0,0.0,0.0,0.0,0.0,0.0,0.0,0.0,0.0,0.0,3.2896,3.3212,3.2273,3.2141,3.2866,3.4854,3.3911,3.3362,3.4001,3.5303,3.5266,3.3305,3.4973,3.4784,3.1799,3.1626,3.1023,2.9634,2.9694,2.986,3.0074,2.9727,2.9678,2.9921,2.9718,2.9649,2.9769,2.9993,3.0083,3.0025,3.0025,2.976,2.9316,2.9703,2.9437,2.8729,2.8377,2.8243,2.8257,2.8449,2.8529,2.8503,2.4357,2.3649,2.2819,2.2008,2.2233,2.2372,2.1831,2.1836,2.2686,2.4863,2.5872,2.7161,2.916,3.0293,3.0913,3.0913,3.0561,2.9989,2.9115,2.8412,2.8269,2.8738,3.0019,3.1235,3.227,3.2988,3.3535,3.3929,3.4235,3.4352,3.4352,3.459,3.4587,3.4352,3.4352,3.4199,3.3929,3.3769,3.3555,3.3316,3.2887,3.1831,3.0469,3.0229,2.9604,2.8783,2.8353,2.7587,2.6693,2.6015,0.0,0.0,0.0,0.0,0.0,0.0,0.0,0.0,0.0,0.0,0.0,0.0,0.0,0.0,0.0,0.0,0.0,0.0,0.0,0.0,0.0,0.0,0.0,0.0,3.4977,3.5661,3.5697,3.521,3.5515,3.7335,3.6173,3.5376,3.576,3.6998,3.6881,3.4655,3.6366,3.6369,3.378,3.3572,3.2821,3.1214,3.1153,3.103,3.0786,3.0509,3.0544,3.0862,3.078,3.0738,3.0752,3.0959,3.0937,0.0,3.0743,3.0484,3.0073,3.0376,3.016,0.0,0.0,0.0,0.0,0.0,2.8836,2.8796,2.5842,2.5865,2.5447,2.3957,2.4151,2.4087,2.2889,2.2427,2.3348,2.6583,2.6684,2.7591,3.0503,3.0874,3.0913,3.0913,3.0092,2.9246,2.8418,2.8132,2.8699,3.0273,3.1177,3.2211,3.3461,3.3903,3.4293,3.4707,3.4746,3.4785,3.4785,3.4824,3.4824,3.4785,3.4785,3.4746,3.4668,3.4313,3.4173,3.4118,3.3656,3.2539,3.1113,3.1113,3.06,2.9833,2.9434,2.9043,2.8666,2.821,0.0,0.0,0.0,0.0,0.0,0.0,0.0,0.0,0.0,0.0,0.0,0.0,0.0,0.0,0.0,0.0,0.0,0.0,0.0,0.0,0.0,0.0,0.0,0.0,3.5449,3.6836,3.8377,3.7928,3.7578,3.7931,3.797,3.7603,3.6627,3.8133,3.816,3.5644,3.695,3.7229,3.5847,0.0,0.0,0.0,0.0,3.2931,3.1999,3.1781,3.1802,3.2098,3.1934,3.1856,3.1856,3.1885,3.1699,3.1289,3.1289,3.1051,3.0669,3.0734,3.0712,3.0604,3.0042,2.9564,2.9102,2.8869,2.8727,2.8617,2.5403,2.4943,2.4705,2.4386,2.4721,2.4831,2.4136,2.4012,2.4709,2.6655,2.6896,2.7773,3.0078,3.0664,3.0913,3.0913,3.0092,2.9369,2.8814,2.9375,3.0176,3.1196,3.209,3.2988,3.3942,3.4039,3.4293,3.4707,3.5078,3.5254,3.5273,3.5605,3.5586,3.5254,3.5254,3.5059,3.4687,3.4609,3.457,3.4547,3.4137,3.3356,3.2422,3.2422,3.2124,3.169,3.1577,3.1499,3.1338,3.0542,3.0229,3.0019,2.9311,2.8769,0.0,0.0,0.0,0.0,0.0,0.0,0.0,0.0,0.0,0.0,0.0,0.0,0.0,0.0,0.0,0.0,0.0,0.0,0.0,3.6072,3.7264,3.8221,3.8553,3.8456,3.8377,3.8456,3.8475,3.8504,3.8617,3.8956,3.9114,3.8956,3.9548,3.9202,3.7514,3.8056,3.7621,3.595,3.6259,3.6351,3.6133,3.4623,3.3907,3.3948,0.0,0.0,3.2214,3.2478,3.2566,3.2478,3.2478,3.2177,3.1736,3.2177,3.2089,3.1641,3.0947,3.0389,2.9951,2.9918,2.9479,2.8868,2.6676,2.6346,2.6073,2.5546,2.5861,2.5724,2.4311,2.4763,2.5438,2.5925,2.6468,2.7429,2.9059,2.9272,2.9369,2.957,2.9193,2.8939,2.8912,2.9941,3.1035,3.2094,3.2984,3.3746,3.4391,3.4626,3.4958,3.5335,3.5586,3.5703,3.5686,3.5901,3.5881,3.5703,3.5703,3.5569,3.5335,3.5137,3.5039,3.5,3.4587,3.402,3.3434,3.3184,3.2988,3.2773,3.2574,3.2496,3.2398,3.1768,3.1538,3.146,3.1045,3.0444,2.9746,0.0,0.0,0.0,0.0,0.0,0.0,0.0,0.0,0.0,0.0,0.0,0.0,0.0,0.0,3.3555,3.3984,0.0,3.6443,3.6658,3.7772,3.8671,3.8885,3.8905,3.8905,3.8905,3.8905,3.9062,3.9512,3.9746,3.9942,4.0176,4.0781,4.0782,3.9903,4.0451,4.0009,3.8306,3.8482,3.8247,3.7566,3.6623,3.6217,3.6356,3.5854,3.5096,3.4165,3.4538,3.4172,3.3246,3.3246,3.3002,3.2619,3.2748,3.2631,3.235,3.1993,3.1392,3.0729,3.0508,3.0073,2.9525,2.8294,2.8178,2.7878,2.6976,2.7082,2.6629,2.4709,2.5338,2.5873,2.5387,2.6112,2.713,2.8318,2.8061,2.7878,2.8027,2.8373,2.8691,2.901,3.0351,3.1714,3.3004,3.3727,3.4333,3.4824,3.5273,3.5684,3.5999,3.6077,3.6152,3.6152,3.6152,3.6152,3.6152,3.6152,3.6077,3.5979,3.5647,3.5508,3.5469,3.5019,3.4587,3.4157,3.3711,3.348,3.3363,3.3031,3.2812,3.2672,3.2496,3.2335,3.2237,3.2378,3.1851,3.0991,3.0106,2.9246,0.0,0.0,0.0,0.0,0.0,0.0,0.0,0.0,3.2554,3.318,3.3988,3.4512,3.4938,3.5254,3.6287,3.7066,3.7066,3.7987,3.8827,3.916,3.9277,3.9375,3.9453,3.9394,3.9512,3.998,4.0371,4.0664,4.0742,4.1484,4.1914,4.1914,4.2304,4.1915,4.0557,4.059,4.0098,3.8971,3.8593,3.8539,3.8729,3.8761,3.7946,3.645,3.6763,3.6062,3.457,3.457,3.4419,3.4147,3.3942,3.3836,3.3873,3.3911,3.3213,3.2012,3.1081,3.0422,2.9857,2.9013,2.8836,2.863,2.8313,2.7908,2.741,2.6662,2.6394,2.6217,2.6096,2.6586,2.7482,2.8852,2.8562,2.793,2.7214,2.8568,2.9481,2.952,3.1103,3.2628,3.3899,3.4055,3.4469,3.5293,3.5725,3.5959,3.5999,3.6423,3.6619,3.6619,3.6619,3.6619,3.6619,3.6619,3.6387,3.5999,3.5959,3.594,3.5901,3.5488,3.5039,3.459,3.4176,3.375,3.3386,3.3363,3.2871,3.2374,3.3047,3.2793,3.232,3.3047,3.2695,3.1885,3.1011,3.0131,2.9266,2.8392,2.9043,3.0117,3.0684,3.1875,3.3148,0.0,3.4964,3.5823,3.6699,3.7189,3.7482,3.7541,3.8008,3.8396,3.8396,3.8807,3.9141,3.9199,3.9551,3.9961,4.0313,4.0039,3.998,4.0391,4.084,4.1269,4.1621,4.207,4.2343,4.2343,4.2773,4.2947,4.2764,4.3093,4.3203,4.3035,4.1456,4.0656,4.0671,3.9058,3.816,3.7946,3.7997,3.7906,3.7691,3.7691,3.7674,3.7645,3.7612,3.7595,3.7629,3.7922,3.6796,3.47,3.1908,3.0137,2.9129,2.914,2.8944,2.8732,2.8528,2.8046,2.7253,2.5944,2.7039,2.7543,2.6158,2.7416,2.8331,2.8031,2.7262,2.6635,2.6284,2.7832,2.907,2.9559,3.1221,3.2652,3.3652,3.4196,3.4626,3.498,3.5647,3.5999,3.5999,3.6211,3.6289,3.6289,3.6289,3.6289,3.6289,3.6289,3.6174,3.5999,3.5999,3.5999,3.5979,3.582,3.5332,3.4687,3.4512,3.4023,3.3344,3.2871,3.2492,0.0,3.2593,3.2476,3.2355,3.3164,3.2851,3.2022,3.1147,3.0444,3.0034,3.0444,3.0776,3.1367,3.3086,3.3848,3.4453,3.5603,3.6328,3.6934,3.7539,3.8008,3.8301,3.8301,3.8475,3.8671,3.8925,3.9082,3.9375,3.9902,4.0118,4.0508,4.1191,4.1113,4.1074,4.125,4.1426,4.1719,4.2109,4.2558,4.2812,4.2812,4.3203,4.3437,4.3437,4.3613,4.3711,4.3711,4.2946,4.2572,4.2572,4.2045,4.1208,4.0143,4.065,4.0403,3.9539,3.9321,3.8621,3.7545,3.7348,3.7266,3.7282,3.7408,3.6757,3.5564,3.4024,3.2316,3.0709,2.9062,2.8865,2.8629,2.8326,2.783,2.7014,2.5653,2.7168,2.7842,2.6121,2.752,2.8168,2.6921,2.6392,2.6002,2.573,2.7077,2.8359,2.935,3.0947,3.232,3.3347,3.4141,3.4606,3.4707,3.555,3.594,3.5823,3.6074,3.6191,3.6191,3.6191,3.6191,3.6191,3.6191,3.6116,3.5999,3.5999,3.5999,3.5999,3.5881,3.5391,3.4687,3.4587,3.3926,3.2988,3.2413,3.2042,3.1846,3.1846,3.169,3.1631,3.2461,3.2164,3.1377,3.0854,3.0469,3.0488,3.1846,3.2222,3.2754,3.5,3.5566,3.584,3.6814,3.7361,3.7734,3.8047,3.8359,3.8592,3.8592,3.869,3.8866,3.9141,3.9414,3.9785,4.041,4.0606,4.0937,4.1562,4.1738,4.1836,4.1953,4.209,4.2285,4.2558,4.3008,4.3321,4.3458,4.3613,4.3769,4.3887,4.3769,4.3711,4.3711,4.3828,4.3887,4.3906,4.4355,4.3833,4.2478,4.3118,4.2784,4.1737,4.1475,4.0582,3.9255,3.9023,3.8922,3.8922,3.8922,3.8396,3.7637,3.7331,3.5091,3.2239,2.8841,2.8657,2.8344,2.7806,2.7291,2.6922,2.6855,2.6539,2.6271,2.6199,2.6367,2.6306,2.5805,2.6588,2.6747,2.5803,2.6518,2.7572,2.8834,3.0195,3.168,3.3324,3.3848,3.4293,3.4687,3.555,3.5803,3.541,3.6267,3.6695,3.6695,3.6695,3.6695,3.6695,3.6695,3.6443,3.5999,3.5999,3.5999,3.5979,3.5586,3.5137,3.4648,3.4274,3.3332,3.2237,3.2218,3.167,3.0952,3.0952,3.038,2.9833,3.0698,3.0385,2.9755,3.0098,3.0215,3.0488,3.1846,3.3098,3.4333,3.5647,3.6897,3.7814,3.7853,3.8223,3.8553,3.8573,3.8573,3.8592,3.8592,3.8925,3.918,3.9199,3.9903,4.0469,4.0508,4.0879,4.1191,4.1211,4.1562,4.1953,4.2343,4.2793,4.3067,4.3067,4.3437,4.3887,4.4336,4.3945,4.3906,4.4355,4.3945,4.3711,4.3711,4.4141,4.4375,4.4375,4.4783,4.4936,4.4894,4.4933,4.4911,4.4867,4.4847,4.4805,4.4762,4.4743,4.4764,4.4764,4.4764,4.3657,4.2092,4.2092,3.8135,3.2998,2.9013,2.8727,2.844,2.8272,2.7781,2.7435,2.7435,2.7285,2.698,2.6417,2.7018,0.0,0.0,0.0,0.0,0.0,2.6498,2.7311,2.806,2.9565,3.0937,3.2094,3.309,3.3848,3.4293,3.4844,3.5078,3.4941,3.5231,3.5368,3.5368,3.5368,3.5368,3.5368,3.5368,3.5293,3.5137,3.5137,3.5137,3.5137,3.498,3.4336,3.3418,3.3297,3.2457,3.1265,0.0,3.0282,3.0048,3.0048,2.9852,2.9794,3.0937,3.0703,3.021,3.124,3.1534,3.1988,3.4141,3.527,3.6052,3.7014,3.7832,3.8359,3.8359,3.8495,3.8592,3.8592,3.8592,3.8671,3.8964,3.9101,3.9394,3.9961,4.0313,4.0606,4.0918,4.1094,4.1406,4.1933,4.2109,4.248,4.3183,4.3144,4.3341,4.3906,4.3789,4.3906,4.4375,4.3965,4.3769,4.3926,4.4082,4.416,4.416,4.459,4.4803,4.4803,4.494,4.5154,4.5449,4.5449,4.5605,4.5857,4.5857,4.5123,4.3928,4.3928,4.3928,4.3928,4.3928,4.3577,4.303,4.303,4.0997,3.803,2.8895,2.8667,2.8512,2.8512,2.8046,0.0,0.0,0.0,0.0,0.0,0.0,0.0,0.0,0.0,0.0,0.0,0.0,2.6804,2.7415,2.8607,2.9687,3.0518,3.1645,3.2402,3.2691,3.3262,3.3555,3.3555,3.4007,3.4238,3.4242,3.4551,3.4707,3.4707,3.4707,3.4707,3.4707,3.4707,3.4609,3.4469,3.4157,3.3437,3.2554,3.2242,3.1421,0.0,2.9813,2.9403,2.9149,2.9149,2.9149,2.933,3.0469,3.0644,3.0737,3.2203,3.2633,3.316,3.5586,3.658,3.7107,3.7949,3.8377,3.8592,3.8592,3.8592,3.8592,3.8592,3.8592,3.8729,3.9121,3.9336,3.9687,4.0391,4.0762,4.1016,4.1172,4.1445,4.1758,4.2128,4.246,4.2871,4.3418,4.3379,4.3556,4.4101,4.3867,4.3906,4.4375,4.4121,4.4023,4.416,4.4473,4.4629,4.4629,4.5039,4.5311,4.5467,4.5467,4.5625,4.592,4.592,4.6076,4.6308,4.6308,4.559,4.4428,4.4428,4.4428,4.4428,4.4428,4.4428,4.4428,4.4428,4.3778,4.2518,2.8548,2.8498,2.8512,0.0,0.0,0.0,0.0,0.0,0.0,0.0,0.0,0.0,0.0,0.0,0.0,0.0,0.0,0.0,2.6882,2.7396,2.8021,2.8795,2.9668,3.0137,3.0156,3.1016,3.143,3.143,3.268,3.3265,3.3304,3.4121,3.4512,3.4512,3.4512,3.4512,3.4512,3.4512,3.4293,3.3864,3.3043,3.2437,3.1983,3.1147,3.0288,2.954,2.954,2.8998,2.8314,2.8314,2.8373,2.8588,2.9481,3.0346,3.1401,3.3051,3.3558,3.4046,3.6208,3.7088,3.7576,3.8397,3.8592,3.8592,3.8592,3.8571,3.8534,3.8534,3.8514,3.8631,3.9023,3.9512,4.0,4.0391,4.1211,4.1641,4.1269,4.1894,4.2246,4.1914,4.2598,4.3106,4.3126,4.3476,4.3711,4.3711,0.0,4.3926,4.4394,4.4414,4.4569,4.4998,4.5018,4.5037,4.5037,4.5488,4.594,4.6308,4.6308,4.6308,4.6308,4.6308,4.6308,4.6328,4.6328,4.6348,4.6367,4.6367,4.6367,4.6367,4.6367,4.6348,4.6328,4.6328,4.6328,4.6019,0.0,0.0,0.0,0.0,0.0,0.0,0.0,0.0,0.0,0.0,0.0,0.0,0.0,0.0,0.0,0.0,0.0,0.0,2.6018,2.6745,2.7435,2.7982,2.8789,2.9394,2.9755,3.0254,3.0527,3.0527,3.1211,3.1543,3.1543,3.1758,3.187,3.187,3.187,3.187,3.187,3.187,3.1812,3.1695,3.148,3.0932,3.0243,3.0028,2.9389,2.8627,2.8627,2.849,2.8314,2.8314,2.9174,3.043,3.1616,3.2574,3.3551,3.4925,3.5586,3.6189,3.7693,3.8182,3.8319,3.8534,3.8592,3.8592,3.8592,3.8104,3.7617,3.7617,3.7381,3.7303,3.7715,3.8652,3.9531,3.998,4.0781,4.1426,4.1621,4.1816,4.2168,4.2715,4.2969,4.3223,4.3516,4.3633,4.3711,4.3711,4.3711,4.4043,4.4803,4.457,4.4569,4.4998,4.5332,4.5508,4.5508,4.5937,4.6191,4.6308,4.6308,4.6308,4.6308,4.6308,4.6443,4.6755,4.6755,4.6953,4.7268,4.7268,4.7268,4.7268,4.7268,4.7051,4.6755,4.6755,4.654,4.6221,0.0,0.0,0.0,0.0,0.0,0.0,0.0,0.0,0.0,0.0,0.0,0.0,0.0,0.0,0.0,0.0,0.0,0.0,0.0,2.6167,2.655,2.6816,2.7461,2.7943,2.8191,2.8594,2.8809,2.8809,2.9434,2.9746,2.978,3.0151,3.0327,3.0327,3.0327,3.0327,3.0346,3.0522,3.0503,0.0,0.0,2.9916,2.9272,2.9096,2.8724,2.8314,2.8314,2.8314,2.849,2.9623,3.0508,3.1445,3.3105,3.3965,3.4704,3.635,3.6758,3.6988,3.8241,3.8592,3.8592,3.8592,3.8592,3.8495,3.8123,3.7654,3.7187,3.6816,3.6716,3.6873,3.7461,3.8457,3.9414,4.0059,4.0879,4.1523,4.1758,4.2129,4.2559,4.3048,4.3263,4.3516,4.3965,4.4004,4.4082,4.4256,4.4121,4.4219,4.4705,4.4883,4.5078,4.5312,4.5723,4.5979,4.5979,4.6191,4.6387,4.656,4.656,4.668,4.6855,4.6855,4.6992,4.7207,0.0,4.7363,4.76,4.76,4.7483,4.7285,4.7285,4.7009,4.6638,4.6638,4.6482,4.6308,0.0,0.0,0.0,0.0,0.0,0.0,0.0,0.0,0.0,2.8661,2.821,2.7752,2.7075,2.6223,0.0,0.0,0.0,0.0,0.0,0.0,2.5706,2.5706,2.6081,2.6321,2.6321,2.6706,2.6921,2.6921,2.7734,2.8125,2.8144,2.89,2.9252,2.9252,2.9252,2.9252,2.9285,2.9643,2.9584,2.9266,2.9324,2.9096,2.8697,0.0,2.8314,2.8314,2.8314,2.832,2.8769,3.1338,3.1953,3.2055,3.4258,3.5039,3.5488,3.7346,3.7441,3.7185,3.8299,3.8592,3.8592,3.8592,3.8592,3.8358,3.75,3.7207,3.6894,3.5999,3.6152,3.6677,3.7424,3.8322,3.9238,4.0098,4.0937,4.1543,4.1758,4.2461,4.2989,4.3165,4.3535,4.3945,4.4355,4.4453,4.4608,4.4979,4.4725,4.457,4.457,4.5295,4.5725,4.5783,4.6113,4.6308,4.6308,4.6367,4.654,4.6911,4.697,4.7207,4.76,4.76,4.764,4.7679,4.7679,0.0,4.7757,4.7718,4.7441,4.7067,4.7009,4.6736,4.6387,4.6387,4.6348,4.6308,0.0,0.0,0.0,0.0,0.0,0.0,0.0,0.0,0.0,0.0,2.8345,2.7896,0.0,0.0,0.0,0.0,0.0,0.0,0.0,0.0,0.0,2.5706,2.5776,2.5835,2.5835,2.6269,2.6504,2.6504,2.6992,2.7233,2.7233,2.737,2.7448,2.7448,2.7448,2.7448,2.7461,2.7526,2.7506,2.7467,2.7865,2.7976,2.7936,2.8197,2.8314,0.0,2.8314,2.8516,2.9146,3.1421,3.2359,3.3008,3.5544,3.6816,3.7424,3.7795,3.8086,3.8319,3.8534,3.8592,3.8592,3.8592,3.8592,3.8358,3.75,3.674,3.5979,3.5117,3.498,3.5195,3.5742,3.6816,3.791,3.8788,3.9336,4.0156,4.1601,4.1933,4.2422,4.3476,4.4004,4.4316,4.4394,4.4686,4.492,4.4998,4.5293,4.5471,4.5471,4.5607,4.5861,4.6191,4.6269,4.6308,4.6308,4.6618,4.6833,4.6889,4.7285,4.7522,4.76,4.76,4.7796,4.8105,4.8105,0.0,4.8636,4.8265,4.8047,4.7949,4.7598,4.7207,4.6794,4.6794,4.6601,4.6308,0.0,0.0,0.0,0.0,0.0,0.0,0.0,3.0564,3.0474,2.9252,2.9329,2.8715,2.6696,2.6014,2.5905,0.0,0.0,0.0,0.0,0.0,0.0,2.5706,2.5706,2.5706,2.5706,2.5913,2.6042,2.6042,0.0,2.631,2.631,2.631,2.631,2.631,2.631,2.631,2.6342,2.6569,2.6699,2.6719,2.7148,2.7474,2.7721,2.7917,2.8119,0.0,2.8314,2.8555,2.9166,3.0932,3.2105,3.3281,3.613,3.7422,3.7853,3.7638,3.8066,3.8495,3.8045,3.8416,3.8925,3.8925,3.91,3.8885,3.7342,3.666,3.5976,3.4665,3.4551,3.4902,3.5586,3.6582,3.7596,3.8456,3.9139,4.0078,4.1582,4.1992,4.2519,4.3574,4.4121,4.4492,4.4686,4.5117,4.5449,4.5662,4.5879,4.592,4.5705,4.59,4.6094,4.6289,4.6308,4.6406,4.6599,4.6794,4.7126,4.7575,4.7812,4.805,4.8288,4.8288,4.8382,4.8558,4.8558,0.0,4.8874,4.8379,4.8086,4.7832,4.7402,4.6973,4.6579,4.6579,4.6484,4.6308,0.0,0.0,0.0,0.0,0.0,0.0,3.0756,3.1008,3.0851,3.0282,3.0204,2.959,2.8016,2.6756,2.6344,0.0,0.0,0.0,0.0,0.0,0.0,0.0,0.0,0.0,2.5706,0.0,0.0,2.5706,2.5706,0.0,0.0,0.0,0.0,0.0,2.5706,2.5706,2.5725,2.6081,2.625,0.0,0.0,2.7226,2.7565,0.0,0.0,0.0,0.0,2.8633,2.9238,3.0469,3.1797,3.3379,3.5937,3.709,3.7463,3.7344,3.7773,3.8202,3.7695,3.8301,3.9082,3.918,3.9414,3.912,3.7164,3.6619,3.6072,3.4446,3.443,3.4961,3.5842,3.6641,3.7441,3.8319,3.9023,3.998,4.1465,4.1953,4.2519,4.3574,4.4199,4.4668,4.4979,4.5508,4.5979,4.6289,4.6308,4.6152,4.5861,4.6133,4.6308,4.6308,4.6308,4.6482,4.6911,4.7009,4.7438,4.8203,4.8301,4.8558,4.8913,4.8913,4.8913,4.8894,4.8773,0.0,0.0,4.8144,4.7734,4.7402,4.695,4.6579,4.6308,4.6308,4.6308,4.6308,0.0,0.0,0.0,0.0,0.0,0.0,3.0804,3.131,3.1267,3.0339,3.0204,3.0136,2.9954,2.8215,2.7105,0.0,0.0,0.0,0.0,0.0,0.0,0.0,0.0,0.0,0.0,0.0,0.0,2.5706,2.5706,0.0,0.0,0.0,0.0,0.0,0.0,2.5706,2.5706,2.5757,0.0,0.0,0.0,0.0,0.0,0.0,0.0,0.0,0.0,2.8822,2.9676,3.06,3.1992,3.3539,3.4609,3.5508,3.633,3.709,3.7363,3.7559,3.828,3.8573,3.8749,3.9101,3.8964,3.8358,3.7027,3.6367,3.5686,3.4372,3.443,3.4961,3.5842,3.6406,3.7029,3.7834,3.8029,3.8828,4.0957,4.1289,4.1914,4.3516,4.4432,4.4959,4.4998,4.574,4.6269,4.6289,4.6308,4.6289,4.625,4.6289,4.6308,4.6308,4.6308,4.6482,4.6911,4.7324,4.7754,4.8223,4.8636,4.8855,4.8913,4.8913,4.8913,4.8874,4.846,0.0,0.0,4.736,4.7009,4.6931,4.6501,4.6328,4.6308,4.6308,4.6308,4.6308,0.0,0.0,0.0,0.0,0.0,0.0,3.1249,3.1562,3.1549,3.1148,3.1092,3.1092,3.1092,2.9841,2.8762,2.8168,0.0,0.0,0.0,0.0,0.0,0.0,0.0,0.0,0.0,0.0,2.5706,2.5706,2.5706,0.0,0.0,0.0,0.0,0.0,0.0,2.5706,2.5706,2.5706,0.0,0.0,0.0,0.0,0.0,0.0,0.0,0.0,0.0,0.0,2.9657,3.0009,3.1265,3.275,3.3082,3.3769,3.4612,3.5488,3.6484,3.7266,3.709,3.7969,3.9062,3.9512,3.9687,3.9336,3.7773,3.7267,3.6721,3.5212,3.5016,3.5312,3.5881,3.6367,3.6873,3.7461,3.8165,3.9277,4.0957,4.1621,4.248,4.3945,4.4627,4.4998,4.4998,4.5801,4.6308,4.6308,4.6308,4.6308,4.6308,4.6308,4.6308,4.6308,4.6308,4.6482,4.6911,4.7363,4.7679,4.7855,4.8558,4.8753,4.8499,4.8499,4.8499,4.8437,4.803,0.0,0.0,4.7165,4.6911,4.6872,4.6465,4.6308,4.6308,4.6308,4.6308,4.6308,0.0,0.0,0.0,0.0,0.0,3.0468,3.1537,3.1706,3.1706,3.1706,3.1706,3.1706,3.1706,3.0801,2.992,2.9212,2.7295,0.0,0.0,0.0,0.0,0.0,0.0,0.0,0.0,0.0,2.5706,2.5706,2.5706,2.5706,0.0,0.0,2.5706,2.5706,0.0,0.0,0.0,0.0,0.0,0.0,0.0,0.0,0.0,0.0,0.0,0.0,0.0,0.0,0.0,0.0,0.0,3.1866,3.212,3.2672,3.3422,3.4414,3.5566,3.6504,3.6408,3.75,3.8848,3.9687,3.9805,3.9415,3.8185,3.7619,3.6975,3.5664,3.5391,3.5527,3.592,3.6484,3.697,3.7246,3.8379,3.9668,4.1015,4.1894,4.2851,4.4043,4.4666,4.4998,4.4998,4.5801,4.6308,4.6308,4.6308,4.6308,4.6308,4.6308,4.6308,4.6308,4.6308,4.6482,4.6911,4.7246,4.7441,4.76,4.8206,4.8343,4.8027,4.8144,4.8144,4.8008,4.7715,0.0,0.0,4.6892,4.6716,4.6697,4.6426,4.6308,4.6308,4.6308,4.6387,4.6484,0.0,0.0,0.0,0.0,0.0,0.0,3.1537,3.1706,3.1706,3.1706,3.1706,3.1706,3.1706,3.0801,3.0204,3.0192,2.8355,0.0,0.0,0.0,0.0,0.0,0.0,0.0,0.0,0.0,2.5706,2.5706,2.5706,2.5706,2.5706,2.5706,2.5706,2.5706,0.0,0.0,0.0,0.0,0.0,0.0,0.0,0.0,2.8281,0.0,0.0,0.0,0.0,0.0,0.0,0.0,0.0,0.0,0.0,3.2476,3.3062,3.4316,3.4707,3.5098,3.6816,3.7305,3.7734,3.9473,3.8926,3.7931,3.7894,3.6918,3.5901,3.5488,3.5391,3.5527,3.592,3.6719,3.7285,3.7305,3.8379,3.9668,4.1015,4.1894,4.2734,4.3613,4.4471,4.4998,4.4998,4.5801,4.6308,4.6308,4.6308,0.0,4.6308,4.6308,4.6308,4.6308,4.6308,4.6482,4.6911,4.6889,4.7126,4.76,4.762,4.762,4.762,4.8027,4.7969,0.0,0.0,0.0,0.0,4.6462,4.6308,4.6308,4.6308,4.6308,4.6308,4.6308,4.654,4.6892,0.0,0.0,0.0,0.0,0.0,0.0,3.1586,3.1706,3.1706,3.1706,3.1706,3.1706,3.1706,3.1416,3.1238,3.1238,2.8762,0.0,0.0,0.0,0.0,0.0,0.0,0.0,0.0,2.5706,2.5706,2.5706,2.5706,2.5706,2.5706,2.5706,2.5706,2.5706,2.5706,2.5706,0.0,0.0,0.0,0.0,0.0,2.7519,2.8314,0.0,0.0,0.0,0.0,0.0,0.0,0.0,0.0,0.0,0.0,0.0,0.0,3.3597,3.4222,3.4824,3.5371,3.5957,3.6682,3.7832,3.7812,3.75,3.75,3.7187,3.668,3.5959,3.5803,3.5957,3.6404,3.6914,3.7402,3.7658,3.8555,3.9668,4.1015,4.1894,4.2948,4.4413,4.5117,4.5586,4.5859,4.5879,4.5996,4.6289,4.6308,4.6308,4.6308,4.6308,4.6308,4.6308,4.6308,4.6367,4.6482,4.6755,4.6833,4.6719,4.7327,4.7422,4.7126,4.7243,4.7243,0.0,0.0,0.0,0.0,4.6367,4.6308,4.6308,4.6308,4.6308,4.6328,4.6599,4.6794,4.695,0.0,0.0,0.0,0.0,0.0,0.0,3.161,3.1706,3.1706,3.1706,3.1706,3.1706,3.1706,3.1706,3.1706,3.1706,2.9292,0.0,0.0,0.0,0.0,0.0,0.0,0.0,2.5706,2.5706,2.5706,2.5706,2.5706,2.5706,2.5706,2.5706,2.5706,2.5706,2.5706,2.5706,0.0,0.0,0.0,0.0,2.7187,2.7676,2.8314,0.0,0.0,0.0,0.0,0.0,0.0,0.0,0.0,0.0,0.0,0.0,0.0,0.0,3.3773,3.4277,3.4609,3.5098,3.5784,3.6992,3.7051,3.6894,3.7226,3.7051,3.666,3.6116,3.6135,3.6348,3.6638,3.7148,3.7734,3.8283,3.8985,3.9922,4.125,4.1992,4.2987,4.4569,4.5312,4.5803,4.6035,4.5976,4.6016,4.6289,4.6308,4.6308,4.6308,4.6308,4.6308,4.6308,4.6308,4.6308,4.6308,4.654,4.6562,4.6308,4.6836,4.6953,4.6677,4.6833,4.6814,0.0,0.0,0.0,0.0,4.6308,4.6308,4.6328,4.6484,4.6521,4.6582,4.7012,4.7243,4.7419,0.0,0.0,0.0,0.0,0.0,0.0,0.0,3.1706,3.1706,3.1706,3.1706,3.1706,3.1706,3.1706,3.1706,3.1706,0.0,0.0,0.0,0.0,0.0,0.0,0.0,0.0,2.5706,2.5706,2.5706,2.5706,2.5706,2.5706,2.5706,2.5706,2.5706,2.5706,2.5706,2.5706,0.0,0.0,0.0,0.0,2.7506,2.7936,0.0,0.0,0.0,0.0,0.0,0.0,0.0,0.0,0.0,0.0,0.0,0.0,0.0,0.0,0.0,0.0,0.0,3.4629,3.5059,3.6699,3.6543,3.6174,3.7012,3.6565,0.0,3.6038,3.6404,3.6714,3.6775,3.7441,3.8263,3.9082,3.9648,4.0429,4.1582,4.2207,4.3026,4.4336,4.5236,4.5744,4.5744,4.6074,4.6308,4.6308,4.6308,4.6308,4.6308,4.6308,4.6308,4.6308,4.6308,4.6308,4.6308,4.6308,4.6308,4.6308,4.6308,4.6308,4.6308,4.6677,4.6658,0.0,0.0,0.0,0.0,4.6348,4.6367,4.6426,4.6794,4.695,4.7009,4.7461,4.7871,4.8203,0.0,0.0,0.0,0.0,0.0,0.0,0.0,0.0,0.0,0.0,3.1706,3.1706,3.1706,3.1706,3.1706,0.0,0.0,0.0,0.0,0.0,0.0,0.0,0.0,0.0,2.5706,2.5706,2.5706,2.5706,2.5706,2.5706,2.5706,2.5706,2.5706,2.5706,2.5706,2.5706,0.0,0.0,0.0,0.0,2.7506,2.7936,0.0,0.0,0.0,0.0,2.832,2.8359,0.0,0.0,0.0,0.0,0.0,0.0,0.0,0.0,3.3168,3.3066,3.3558,0.0,3.4411,3.5137,3.543,3.5684,0.0,3.6155,3.6096,3.6462,3.6619,3.6892,3.75,3.832,3.8965,3.916,4.0137,4.0996,4.1308,4.2832,4.4297,4.5295,4.584,4.6152,4.6152,4.625,4.6308,4.6308,4.6308,4.6308,4.6308,4.6308,4.6308,4.6308,4.6308,4.6308,4.6308,4.6308,4.6308,4.6308,4.6308,4.6308,4.6308,4.6406,4.6387,0.0,0.0,0.0,4.6755,4.6755,4.6973,4.7307,4.7405,4.7444,4.748,4.791,4.8125,4.8262,0.0,0.0,0.0,0.0,0.0,0.0,0.0,0.0,0.0,0.0,3.1706,3.1706,3.1706,3.1706,0.0,0.0,0.0,0.0,0.0,0.0,0.0,0.0,0.0,2.5706,2.5706,2.5706,2.5706,2.5706,2.5706,2.5706,2.5706,2.5706,2.5706,2.5706,2.5706,2.5835,0.0,0.0,0.0,2.7357,2.7786,0.0,0.0,0.0,0.0,0.0,2.8373,2.8418,0.0,2.8834,2.9355,3.0073,0.0,0.0,0.0,0.0,3.2832,3.2851,3.3066,3.3594,3.4212,3.459,3.5039,3.5508,3.5901,3.6172,3.6387,3.6638,3.699,3.7441,3.8105,3.8613,3.9297,4.0488,4.0957,4.1465,4.2246,4.3691,4.4863,4.5312,4.5918,4.6308,4.6308,4.6308,4.6308,4.6308,4.6308,4.6308,4.6308,4.6308,4.6308,4.6308,4.6308,4.6308,4.6308,4.6308,4.6308,4.6308,4.6308,4.6308,4.6308,4.6308,4.6406,0.0,0.0,0.0,4.7226,4.7226,4.7363,4.762,4.7793,4.7894,4.7933,4.8363,4.8519,4.8538,0.0,0.0,0.0,0.0,0.0,0.0,0.0,0.0,0.0,0.0,0.0,0.0,0.0,0.0,0.0,0.0,0.0,0.0,0.0,0.0,0.0,0.0,2.5706,2.5706,2.5706,2.5706,2.5706,2.5706,2.5706,2.5706,2.5706,2.5706,2.5706,2.5706,2.5764,2.6042,2.6438,2.6914,2.7337,2.7734,2.8138,0.0,0.0,0.0,0.0,0.0,0.0,0.0,0.0,2.8814,2.916,2.9735,3.0542,0.0,0.0,0.0,0.0,0.0,3.2773,3.3492,3.4293,3.4707,3.5156,3.5625,3.6077,3.6462,3.6716,3.6853,3.7539,3.8224,3.871,3.9061,3.998,4.207,4.1933,4.2129,4.3691,4.453,4.5037,4.5096,4.582,4.6308,4.6308,4.6308,4.6308,4.6308,4.6308,4.6308,4.6308,4.6308,4.6308,4.6308,4.6308,4.6328,4.6406,4.6328,4.6308,4.6308,4.6367,4.6406,4.6406,4.6465,4.6677,4.7009,0.0,0.0,4.7698,4.7698,4.7737,4.7835,4.8164,4.8301,4.8359,4.8753,4.8913,4.8812,0.0,0.0,0.0,0.0,0.0,0.0,0.0,0.0,0.0,0.0,0.0,0.0,0.0,0.0,0.0,0.0,0.0,0.0,0.0,0.0,0.0,2.5718,2.5706,2.5706,2.5706,2.5706,2.5706,2.5706,2.5706,2.5706,2.5706,2.5706,2.5706,2.5725,2.6133,2.634,2.6458,2.7252,2.7624,2.7734,2.8138,0.0,0.0,0.0,0.0,0.0,0.0,0.0,0.0,2.8398,2.892,2.9676,3.017,0.0,0.0,0.0,0.0,0.0,3.2711,3.3672,3.4707,3.5176,3.5605,3.6116,3.6914,3.6892,3.6892,3.7578,3.84,3.9141,3.9609,4.1191,4.2422,4.2402,4.293,4.3672,4.4666,4.492,4.5135,4.5549,4.5996,4.6308,4.6308,4.6308,4.6308,4.6308,4.6308,4.6308,4.6308,4.6308,4.6308,4.6308,4.6308,4.6443,4.6814,4.6484,4.6308,4.6308,4.6638,4.6814,4.6814,4.7207,4.7444,4.748,0.0,4.7715,4.8105,4.8105,4.8343,4.8718,4.8776,4.8773,4.8815,4.8874,4.8913,4.8773,0.0,0.0,0.0,0.0,0.0,0.0,0.0,0.0,0.0,0.0,0.0,0.0,0.0,0.0,0.0,0.0,0.0,0.0,0.0,0.0,2.6839,2.5754,2.5706,2.5706,2.5706,2.5706,2.5706,2.5706,2.5706,2.5706,2.5706,2.5952,2.6081,2.6101,2.653,2.6868,2.7135,2.7526,2.7819,2.8054,0.0,0.0,0.0,0.0,0.0,0.0,0.0,0.0,0.0,0.0,2.8711,2.9311,2.9741,0.0,0.0,0.0,0.0,0.0,3.2969,3.3906,3.5039,3.6426,3.6897,3.7131,3.7521,3.8223,3.8652,3.834,3.8965,3.9844,4.0762,4.1562,4.2461,4.3612,4.453,4.5254,4.5664,4.5701,4.5781,4.5996,4.6191,4.6308,4.6308,4.6308,4.6308,4.6308,4.6308,0.0,4.6599,4.6618,4.6758,4.6992,4.6992,4.709,4.7285,4.709,4.6992,4.6992,4.7187,4.7285,4.7285,4.75,4.7737,4.791,0.0,4.8164,4.8578,4.8578,4.8695,4.8913,4.8913,4.8913,4.8913,4.8913,4.8734,4.8457,0.0,0.0,0.0,0.0,0.0,0.0,0.0,0.0,0.0,0.0,0.0,0.0,0.0,0.0,0.0,0.0,0.0,0.0,0.0,2.8611,2.7673,2.6135,2.582,2.5706,2.5706,2.5815,2.5874,2.5874,2.5971,2.5998,2.5998,2.6355,2.6543,2.6562,2.6973,2.7357,2.7715,2.78,2.8015,2.8314,0.0,0.0,0.0,0.0,0.0,0.0,0.0,0.0,0.0,0.0,0.0,0.0,0.0,0.0,0.0,3.1235,3.1973,3.2613,3.3226,3.4277,3.5586,3.7326,3.7834,3.8048,3.8556,3.963,4.0274,3.9511,4.0039,4.0976,4.2051,4.2148,4.2754,4.4844,4.5723,4.6191,4.6289,4.6308,4.6308,4.6308,4.6308,4.6348,4.6445,4.6445,4.6484,4.6601,0.0,0.0,4.7048,4.7067,4.7246,4.76,4.76,4.7659,4.7757,4.7757,4.7698,4.76,4.7698,4.7757,4.7757,4.7855,4.8069,4.8359,4.8359,4.8578,4.8913,4.8913,4.8913,4.8913,4.8913,4.8913,4.8913,4.8913,4.8675,4.834,0.0,0.0,0.0,0.0,0.0,0.0,0.0,0.0,0.0,0.0,0.0,0.0,0.0,0.0,0.0,0.0,0.0,0.0,0.0,2.8343,2.7238,2.7105,2.6199,2.5706,2.5706,2.6133,2.636,2.636,2.6726,2.6901,2.6901,2.694,2.696,2.6979,2.7435,2.7676,2.7721,2.8099,2.8262,2.8314,2.8314,0.0,0.0,0.0,0.0,0.0,0.0,0.0,0.0,0.0,0.0,0.0,0.0,0.0,3.0371,3.1235,3.2367,3.3324,3.3383,3.4941,3.6677,3.7207,3.7619,3.8439,4.0488,4.0723,4.0703,4.1426,4.2266,4.3008,4.3476,4.4198,4.492,4.5549,4.5705,4.5881,4.625,4.6308,4.6308,4.6308,4.6308,4.6465,4.6814,4.6853,4.7051,4.7483,0.0,0.0,4.7561,4.7561,4.7581,4.76,4.76,4.7796,4.8164,4.8164,4.7969,4.76,4.7969,4.8164,4.8164,4.8597,4.8835,4.8855,4.8855,4.8874,4.8913,4.8913,4.8913,4.8913,4.8913,4.8913,4.8913,4.8913,4.8894,4.8796,0.0,0.0,0.0,0.0,0.0,0.0,0.0,0.0,0.0,0.0,0.0,0.0,0.0,0.0,0.0,0.0,0.0,0.0,0.0,2.89,2.7852,2.7226,2.6507,2.6133,2.6133,2.6309,2.6523,2.6777,2.6921,2.6999,2.7018,2.7298,2.7448,2.7454,2.7884,2.806,2.808,2.8236,2.8314,2.8314,2.8314,2.8314,0.0,0.0,0.0,0.0,0.0,0.0,0.0,0.0,2.8574,2.899,2.9447,2.9877,3.043,3.1582,3.2441,3.3203,3.4004,3.5605,3.7439,3.8926,3.9395,3.9747,4.0586,4.207,4.3085,4.2324,4.2871,4.3691,4.4373,4.5019,4.5664,4.6348,4.6037,4.5842,4.625,4.6523,4.6677,4.6677,4.6933,4.7168,4.7324,4.7324,4.7402,0.0,0.0,0.0,4.7949,4.7969,4.8109,4.8405,4.8402,4.848,4.8636,4.8636,4.8558,4.8402,4.8558,4.8636,4.8636,4.8835,4.8913,4.8913,4.8913,4.8913,4.8913,4.8913,4.8913,4.8913,4.8913,4.8913,4.8913,4.8913,4.8913,4.8874,0.0,0.0,0.0,0.0,0.0,0.0,0.0,0.0,0.0,0.0,0.0,0.0,0.0,0.0,0.0,0.0,0.0,0.0,3.0734,2.943,2.8541,2.8168,2.7341,2.7109,2.7552,2.7731,2.7635,2.7226,2.7363,2.7422,2.7409,2.7728,2.7897,2.7897,2.8177,2.8314,2.8314,2.8314,2.8314,2.8314,2.8314,2.8314,0.0,0.0,0.0,0.0,0.0,0.0,0.0,0.0,2.8769,2.9199,2.9643,3.017,3.082,3.1885,3.3074,3.4179,3.476,3.6809,3.9123,4.0551,4.1864,4.2682,4.2205,4.3196,4.4003,4.3358,4.3905,4.4668,4.5115,4.5469,4.5881,4.6445,4.6055,4.5881,4.6404,4.6716,4.695,4.7087,4.7402,4.7659,4.7796,4.7773,0.0,0.0,0.0,0.0,0.0,4.8418,4.8578,4.8894,4.8913,4.8913,4.8913,4.8913,4.8913,4.8913,4.8913,4.8913,4.8913,4.8913,4.8913,4.8913,4.8913,4.8913,4.8913,4.8913,4.8913,4.8913,4.8913,4.8913,4.8913,4.8913,4.8913,4.8913,0.0,0.0,0.0,0.0,0.0,0.0,0.0,0.0,0.0,0.0,0.0,0.0,0.0,0.0,0.0,0.0,0.0,0.0,3.1706,2.9841,2.9154,3.0159,2.8804,2.866,3.0049,3.0615,2.9847,2.7728,2.8112,2.8314,2.8314,2.8314,2.8314,2.8314,2.8314,2.8314,2.8314,2.8295,2.8327,2.8327,2.8327,2.8327,2.8341,0.0,0.0,0.0,0.0,0.0,0.0,0.0,2.9232,2.969,3.0087,3.0801,3.1601,3.2081,3.4409,3.6588,3.5672,3.8656,4.1996,4.1866,4.484,4.7423,4.5972,4.3999,4.299,4.4689,4.5725,4.6194,4.5805,4.5727,4.5705,4.5705,4.5705,4.5998,4.6794,4.6911,4.7067,4.7561,4.762,4.7776,4.8164,4.8223,0.0,0.0,0.0,0.0,0.0,4.8913,4.8913,4.8913,4.8913,4.8913,4.8913,4.8913,4.8913,4.8913,4.8913,4.8913,4.8913,4.8913,4.8913,4.8913,4.8913,4.8913,4.8913,4.8913,4.8913,4.8913,4.8913,4.8913,4.8913,4.8913,4.8913,4.8913,0.0,0.0,0.0,0.0,0.0,0.0,0.0,0.0,0.0,0.0,0.0,0.0,0.0,0.0,0.0,0.0,0.0,0.0,3.1706,3.0475,3.0057,3.0732,2.9927,2.9495,2.9535,2.9964,2.9881,2.9251,2.8622,2.8314,2.8314,2.8314,2.8314,2.8314,2.8314,2.8314,2.8354,2.9112,2.9421,2.9421,2.9421,2.9906,3.0453,0.0,0.0,0.0,0.0,0.0,0.0,0.0,0.0,0.0,3.13,3.1476,3.1942,3.4158,3.5481,3.644,3.7389,4.0576,4.3879,4.4901,4.5718,4.6917,4.9386,4.9414,4.8874,4.8645,4.8376,4.8059,4.7548,4.6483,4.5803,4.6074,4.6113,4.6308,4.6833,4.7419,4.7871,4.8008,4.8304,4.8558,4.8675,0.0,0.0,0.0,0.0,0.0,0.0,4.8913,4.8913,4.8913,4.8913,4.8913,4.8913,4.8913,4.8913,4.8913,4.8913,4.8913,4.8913,4.8913,4.8913,4.8913,4.8913,4.8913,4.8913,4.8913,4.8913,4.8913,4.8913,4.8913,4.8913,4.8913,4.8913,4.8913,0.0,0.0,0.0,0.0,0.0,0.0,0.0,0.0,0.0,0.0,3.1706,3.1706,0.0,0.0,0.0,0.0,0.0,0.0,3.1706,3.0768,3.0628,3.1563,3.1066,3.0989,3.1478,3.0897,3.0574,3.0574,2.946,2.8734,2.8314,2.8314,2.8535,2.8913,2.8481,2.8801,2.9625,2.9828,3.0146,3.0574,3.0574,3.0974,3.1419,0.0,0.0,0.0,0.0,0.0,0.0,0.0,0.0,0.0,3.2267,3.2604,3.3291,3.4913,3.7048,3.9019,3.9538,4.3136,4.7023,4.8279,4.8808,4.9909,5.3146,5.2607,5.1244,5.0593,4.9679,4.8914,4.8581,4.7108,4.6037,4.6269,4.6423,4.6699,4.7129,4.7773,4.8281,4.846,4.8714,4.8913,4.8913,0.0,0.0,0.0,0.0,0.0,0.0,4.8913,4.8913,4.8913,4.8913,4.8913,4.8913,4.8913,4.8913,4.8913,4.8913,4.8913,4.8913,4.8913,4.8913,4.8913,4.8913,4.8913,4.8913,4.8913,4.8913,4.8913,4.8913,4.8913,4.8913,4.8913,4.8913,4.8913,0.0,0.0,3.1706,0.0,0.0,0.0,0.0,0.0,0.0,3.1706,3.1706,3.1706,0.0,0.0,0.0,3.1706,3.1706,3.1706,3.1706,3.0846,3.1014,3.2505,3.2148,3.2777,3.4605,3.275,3.1713,3.1611,3.0458,2.9395,2.8441,2.8548,2.9072,2.9867,2.8993,2.9657,3.1394,3.0548,3.0794,3.1751,3.1751,3.1815,3.1764,3.0522,0.0,0.0,0.0,0.0,0.0,0.0,0.0,0.0,3.3212,3.4093,3.5313,3.5176,3.8975,4.3014,4.2046,4.6006,5.0643,5.162,5.3254,5.4983,5.6418,5.404,5.1517,5.1408,5.0247,4.9232,4.9169,4.7599,4.6308,4.6348,4.6697,4.7126,4.76,4.8008,4.8418,4.8855,4.8913,4.8913,0.0,0.0,0.0,0.0,0.0,0.0,0.0,4.8913,4.8913,4.8913,4.8913,4.8913,4.8913,4.8913,4.8913,4.8913,4.8913,4.8913,4.8913,4.8913,4.8913,4.8913,4.8913,4.8913,4.8913,4.8913,4.8913,4.8913,4.8913,4.8913,4.8913,4.8913,4.8913,4.8913,0.0,0.0,3.1706,3.1706,0.0,0.0,0.0,0.0,3.1706,3.1706,3.1706,3.1706,3.1706,3.1706,0.0,3.1706,3.1706,3.1706,3.1706,3.1494,3.1902,3.3068,3.2977,3.3105,3.3524,3.3088,3.2448,3.1611,3.0458,2.9788,2.9579,3.0479,3.0544,2.9945,3.0574,3.0673,3.0354,3.1857,3.2615,3.2863,3.2863,3.335,3.3906,3.1958,3.1895,0.0,0.0,0.0,0.0,0.0,0.0,0.0,3.5354,3.589,3.675,3.8613,4.075,4.2953,4.4911,4.7927,5.1045,5.3316,5.5463,5.6652,5.5192,5.5312,5.5472,5.4622,5.2669,5.1008,5.0557,4.8193,4.6406,4.6716,4.7148,4.7578,4.8008,4.846,4.8796,4.8894,4.8913,4.8913,0.0,0.0,0.0,0.0,0.0,0.0,4.8913,4.8913,4.8913,4.8913,4.8913,4.8913,4.8913,4.8913,4.8913,0.0,4.8913,4.8913,4.8913,4.8913,4.8913,4.8913,4.8913,4.8913,4.8913,4.8913,4.8913,4.8913,4.8913,4.8913,4.8913,4.8913,4.8913,4.8913,0.0,0.0,0.0,0.0,0.0,0.0,0.0,0.0,3.2273,3.1778,3.1706,3.1706,3.1706,3.1706,0.0,0.0,3.1706,3.1706,3.1706,3.1706,3.2187,3.3248,3.3718,3.3967,3.3967,3.3449,3.2926,3.2373,3.1768,3.1218,3.0729,3.1308,3.1551,3.1474,3.1551,3.1831,3.2287,3.2938,3.3487,3.3967,3.3967,3.4453,3.4987,3.3356,3.3739,3.5005,3.4227,0.0,0.0,0.0,0.0,0.0,0.0,0.0,3.8395,3.9757,4.2214,4.494,4.6998,4.9778,5.2602,5.4755,5.6358,5.7093,5.5859,5.6314,5.6833,5.628,5.4445,5.2859,5.2593,5.0545,4.8733,4.8268,4.8579,4.8728,4.8281,4.8597,4.8913,4.8913,4.8913,4.8913,0.0,0.0,0.0,0.0,0.0,4.8913,4.8913,4.8913,4.8913,4.8913,4.8913,4.8913,4.8913,4.8913,4.8913,4.8913,4.8913,4.8913,4.8913,4.8913,4.8913,4.8913,4.8913,4.8913,4.8913,4.8913,4.8913,4.8913,4.8913,4.8913,4.8913,4.8913,4.8913,4.8913,0.0,0.0,0.0,0.0,0.0,0.0,0.0,0.0,0.0,3.1826,3.1706,3.1706,3.1706,3.1706,3.1706,0.0,0.0,0.0,3.1706,3.1874,3.2369,3.3272,3.4258,3.4799,3.4799,3.393,3.3474,3.3474,3.3474,3.3026,3.2158,3.2158,3.2537,3.3176,3.2474,3.3038,3.4494,3.3782,3.3992,3.4823,3.4991,3.5328,3.5661,3.4969,3.5787,3.722,3.6436,3.6947,3.7865,3.6957,0.0,0.0,0.0,0.0,3.9887,4.019,4.3266,4.6895,4.8301,5.1321,5.4428,5.5967,5.6688,5.7001,5.7001,5.7001,5.7001,5.7001,5.5567,5.4304,5.4304,5.2639,5.0909,4.9875,4.9765,4.9486,4.847,4.8656,4.8913,4.8913,4.8913,0.0,0.0,0.0,0.0,0.0,0.0,4.8913,4.8913,4.8913,4.8913,4.8913,4.8913,4.8913,4.8913,4.8913,4.8913,4.8913,4.8913,4.8913,4.8913,4.8913,4.8913,4.8913,4.8913,4.8913,4.8913,4.8913,4.8913,4.8913,4.8913,4.8913,4.8913,4.8913,4.8913,4.8913,0.0,0.0,0.0,0.0,0.0,0.0,0.0,0.0,0.0,0.0,3.1706,3.1706,3.1706,3.1706,3.1706,3.1706,3.1706,3.1706,3.1706,0.0,0.0,3.3296,3.4258,3.4799,3.4799,3.4665,3.4592,3.4592,3.4592,3.4519,3.436,3.436,3.3955,3.3226,3.4029,3.4017,3.3462,3.4238,3.4665,3.4871,3.5821,3.623,3.6374,3.7181,3.7652,3.795,3.8269,3.8214,3.8057,3.8338,3.8262,0.0,0.0,0.0,4.0493,4.143,4.3446,4.5868,4.8373,5.2035,5.5458,5.6616,5.6953,5.7001,5.7001,5.7001,5.7001,5.7001,5.5567,5.4304,5.4304,5.1597,4.9545,5.0115,4.8951,4.8168,4.8721,4.8874,4.8913,4.8913,4.8913,0.0,0.0,0.0,0.0,0.0,4.8913,4.8913,4.8913,4.8913,4.8913,4.8913,4.8913,4.8913,4.8913,4.8913,4.8913,4.8913,4.8913,4.8913,4.8913,4.8913,4.8913,4.8913,4.8913,4.8913,4.8913,4.8913,4.8913,4.8913,4.8913,4.8913,4.8913,4.8913,4.8913,4.8913,0.0,0.0,0.0,0.0,0.0,0.0,0.0,0.0,0.0,0.0,0.0,3.1706,3.1706,3.1706,3.1706,3.1706,3.1706,3.1706,3.1706,3.2694,3.3296,3.3296,3.4258,3.4799,3.4799,3.4799,3.4799,3.4799,3.4799,3.4799,3.4799,3.4799,3.4555,3.4115,3.4592,3.4543,3.4127,3.4604,3.5135,3.5749,3.6205,3.6771,3.7386,3.8142,3.8623,3.896,3.9513,3.9537,3.9369,3.9609,3.9345,3.8984,3.9537,0.0,0.0,0.0,4.3914,4.6134,4.8813,5.2422,5.5433,5.5606,5.6544,5.7361,5.7073,5.7001,5.7001,5.7001,5.6592,5.6256,5.6256,5.4966,5.3918,5.3837,5.2255,5.0898,5.0517,4.9564,4.8913,4.8913,4.8913,0.0,0.0,0.0,0.0,0.0,4.8913,4.8913,4.8913,4.8913,4.8913,4.8913,4.8913,4.8913,4.8913,4.8913,4.8913,4.8913,4.8913,4.8913,4.8913,4.8913,4.8913,4.8913,4.8913,4.8913,4.8913,4.8913,4.8913,4.8913,4.8913,4.8913,4.8913,4.8913,4.8913,4.8913,0.0,0.0,0.0,0.0,0.0,0.0,0.0,0.0,0.0,0.0,0.0,3.1839,3.1706,0.0,0.0,0.0,3.1706,3.1706,3.1706,3.2694,3.3296,3.3296,3.4258,3.4799,3.4799,3.4799,3.4799,3.4799,3.4799,3.4799,3.4799,3.4799,3.4799,3.4799,3.4799,3.4799,3.4799,3.4799,3.5436,3.6411,3.6555,3.7324,3.8468,3.9008,3.9619,4.0258,4.0643,4.0802,4.0802,4.0657,4.0234,3.9898,4.0427,4.1139,0.0,0.0,0.0,4.6519,4.9342,5.2205,5.4496,5.4928,5.6107,5.7189,5.7193,5.7097,5.7001,5.7001,5.7409,5.7838,5.7983,5.7618,5.7143,5.6671,5.4602,5.2747,5.1828,5.0071,4.8913,4.8913,4.8913,0.0,0.0,0.0,0.0,0.0,4.8913,4.8913,4.8913,4.8913,4.8913,4.8913,4.8913,4.8913,4.8913,4.8913,4.8913,4.8913,4.8913,4.8913,4.8913,4.8913,4.8913,4.8913,4.8913,4.8913,4.8913,4.8913,4.8913,4.8913,4.8913,4.8913,4.8913,4.8913,4.8913,4.8913,0.0,0.0,0.0,0.0,0.0,0.0,0.0,0.0,0.0,0.0,0.0,3.225,3.1754,3.1706,3.1706,3.1706,3.1706,3.1706,3.1706,3.2694,3.3296,3.3296,3.4258,0.0,3.4799,3.4799,3.4799,3.4799,3.4799,3.4799,3.4799,3.4799,3.4799,3.4799,3.4799,3.4799,3.4799,3.4799,3.5436,3.6446,3.694,3.8094,3.9585,4.0114,4.097,4.1875,4.1899,4.1923,4.1851,4.1331,4.0802,4.0451,4.0994,4.1187,4.1451,0.0,0.0,0.0,4.9806,5.1177,5.2403,5.539,5.5823,5.5914,5.743,5.7361,5.7001,5.7001,5.7409,5.7959,5.8464,5.7152,5.6124,5.6527,5.3561,5.1326,5.1671,5.0071,4.8913,4.8913,0.0,0.0,0.0,0.0,0.0,0.0,4.8913,4.8913,4.8913,4.8913,4.8913,4.8913,4.8913,4.8913,4.8913,4.8913,4.8913,4.8913,4.8913,4.8913,4.8913,4.8913,4.8913,4.8913,4.8913,4.8913,4.8913,4.8913,4.8913,4.8913,4.8913,4.8913,4.8913,4.8913,4.8913,4.8913,0.0,0.0,0.0,0.0,0.0,0.0,0.0,0.0,0.0,0.0,0.0,0.0,0.0,3.2417,3.2213,3.2213,3.1899,3.185,3.2189,3.2887,3.3428,3.3753,3.4414,3.4799,3.4799,3.4799,3.4799,3.4799,3.4799,3.4799,3.4799,3.4799,3.4799,3.4799,3.4799,3.4799,3.4823,3.5159,3.5941,3.7108,3.9358,4.0826,4.1788,4.2961,4.3658,4.3995,0.0,0.0,4.4067,4.4563,4.3923,4.2946,4.3138,4.2961,4.288,4.3962,4.4796,4.5782,4.7625,4.9782,5.1682,5.2457,5.3798,5.5049,5.5606,5.5847,5.6063,5.6424,5.7458,5.8367,5.856,5.8354,5.7919,5.7224,5.4959,5.2911,5.187,5.0071,4.8913,4.8913,0.0,0.0,0.0,0.0,0.0,0.0,0.0,4.8913,4.8913,4.8913,4.8913,4.8913,4.8913,4.8913,4.8913,4.8913,4.8913,4.8913,4.8913,4.8913,4.8913,4.8913,4.8913,4.8913,4.8913,4.8913,4.8913,4.8913,4.8913,4.8913,4.8913,4.8913,4.8933,4.918,4.9297,4.9336,0.0,0.0,0.0,0.0,0.0,0.0,0.0,0.0,0.0,3.4006,0.0,0.0,0.0,0.0,3.2779,3.2779,3.243,3.2393,3.2742,3.326,3.3681,3.3994,3.4499,3.4799,3.4799,3.4619,3.4631,3.4799,3.4631,3.4619,3.4799,3.4991,3.4967,3.4823,3.4991,3.4967,3.4847,3.5376,3.6314,3.7674,3.9984,4.1586,4.2717,4.4451,4.5325,4.571,0.0,0.0,0.0,0.0,4.6447,4.5109,4.5109,4.4364,4.3706,4.4796,4.5109,4.5373,4.6615,4.8796,5.0738,5.0912,5.2548,5.4135,5.4303,5.5005,5.5703,5.5895,5.7193,5.8319,5.8319,5.8921,5.8959,5.7629,5.5771,5.3836,5.196,5.0071,4.8913,4.8913,0.0,0.0,0.0,0.0,0.0,0.0,0.0,0.0,4.8913,4.8913,4.8913,4.8913,4.8913,4.8913,4.8913,4.8913,4.8913,4.8913,4.8913,4.8913,4.8913,4.8913,4.8913,4.8913,4.8913,4.8913,4.8913,4.8913,4.8913,4.8913,4.9046,4.9105,4.9164,4.959,4.9722,4.9785,0.0,0.0,0.0,0.0,0.0,0.0,0.0,0.0,3.4667,3.4138,0.0,0.0,0.0,0.0,0.0,3.3296,3.3296,3.332,3.332,3.3742,3.4018,3.4006,3.4523,3.4799,3.4799,3.4306,3.4306,3.4823,3.433,3.433,3.4823,3.5352,3.5304,3.4823,3.5328,3.5316,3.4871,3.54,3.6579,3.8083,0.0,4.0282,4.2414,4.4476,4.5942,4.7072,4.862,4.9847,0.0,4.9583,0.0,0.0,4.6687,4.5245,4.3754,4.482,4.5133,4.5469,0.0,0.0,0.0,5.105,5.2229,5.3143,5.3683,5.5005,5.5991,5.553,5.6684,5.777,5.7814,5.8615,5.8852,5.7498,5.5705,5.3814,5.1891,5.0048,4.8913,4.8913,0.0,0.0,0.0,0.0,0.0,0.0,4.8913,4.8913,4.8913,4.8913,4.8913,4.8913,4.8913,4.8913,4.8913,4.8913,4.8913,4.8913,4.8913,4.8913,4.8913,4.8913,4.8933,4.8933,4.8933,4.8933,4.8913,4.8913,4.8913,4.8952,4.9336,4.9488,4.9566,5.0019,5.0219,5.0219,0.0,0.0,0.0,0.0,0.0,3.5965,3.5965,3.5965,3.5893,0.0,0.0,0.0,3.4979,3.4282,3.3681,3.332,3.3296,3.3452,3.379,3.3922,3.4186,3.4547,3.4727,3.4799,3.4799,3.5039,3.5232,3.5388,3.5629,3.5616,3.5376,3.5532,3.5304,3.4823,3.4967,3.5159,3.5424,3.6362,3.7469,3.8898,4.2504,4.4996,0.0,0.0,0.0,0.0,0.0,5.1026,0.0,0.0,5.0696,4.8163,0.0,4.5461,4.4796,4.5469,4.5662,4.5854,4.6704,0.0,0.0,0.0,0.0,0.0,5.3341,5.3894,5.4447,5.6203,5.6905,5.7337,5.7742,5.7273,5.6302,5.457,5.4412,5.337,5.0117,4.9239,4.8913,0.0,0.0,0.0,0.0,0.0,0.0,0.0,4.8913,4.8913,4.8913,4.8913,4.8913,4.8913,4.8913,4.8913,4.8913,4.8913,4.8913,4.8913,4.8913,4.8913,4.8913,4.9199,4.9313,4.9313,4.9313,4.9313,4.9316,4.9007,4.8913,4.8913,4.9027,4.9238,4.9566,5.0019,5.0371,5.0683,0.0,0.0,3.6338,3.6122,3.6074,3.6074,3.6074,3.6074,3.6146,0.0,0.0,0.0,3.5616,3.4847,3.4318,3.427,3.427,3.4475,3.4967,3.4991,3.5135,3.5448,3.5484,3.5484,3.5484,3.5556,3.5725,3.5941,3.5797,3.5701,3.5604,3.5604,3.5424,3.5135,3.5376,3.5773,3.6338,3.7408,3.8623,0.0,4.3072,0.0,0.0,4.9565,5.1363,0.0,0.0,0.0,5.4496,5.4717,5.286,0.0,0.0,0.0,4.607,4.5942,4.6062,4.6303,4.6615,4.7473,4.838,4.8693,0.0,0.0,5.1586,5.2494,5.3528,5.5049,5.553,5.5895,5.666,5.5634,5.4136,5.2658,5.2455,5.1629,4.8973,4.8617,4.8675,0.0,0.0,0.0,0.0,4.8913,4.8913,4.8913,4.8913,4.8913,4.8913,4.8913,4.8913,4.8913,4.8913,4.8913,4.8913,4.8913,4.8913,4.8913,4.9066,4.9164,4.916,4.959,4.9805,4.9785,4.9586,4.9508,4.9469,4.9066,4.8913,4.8933,4.9281,4.9594,4.9883,5.0469,5.0859,5.1069,0.0,0.0,3.6435,3.5941,3.5869,3.5893,3.5941,3.5965,3.6133,0.0,3.6566,3.6314,3.5821,3.5316,3.5159,3.5653,3.5701,3.5869,3.6278,3.6362,3.6411,3.6411,3.6326,3.6302,3.6302,3.5893,3.5917,3.6411,3.5496,3.5304,3.5773,3.5725,3.5701,3.5725,3.6266,3.6795,3.7348,3.8503,3.997,4.162,4.2404,4.4275,0.0,0.0,5.1435,0.0,5.5294,5.7025,5.7983,5.6256,5.4255,0.0,0.0,0.0,0.0,0.0,4.6567,4.6783,4.6783,4.7473,4.8236,4.8284,4.9421,0.0,4.9607,5.1117,5.2771,5.3178,5.3355,5.3831,5.5082,5.3783,5.2236,5.1395,5.0188,4.9058,4.8257,4.8105,4.8223,0.0,0.0,0.0,4.8894,4.8855,4.8855,4.8894,4.8913,4.8913,4.8913,4.8913,4.8913,4.8913,4.8913,4.8913,4.8913,4.8913,4.8933,4.8968,4.9336,4.9527,4.9586,5.0058,5.0278,5.0258,4.9844,4.9625,4.9547,4.9144,4.8952,4.8991,4.975,5.0121,5.0297,5.0991,5.1323,5.1401,3.7012,3.7386,3.765,3.7554,3.753,3.7674,3.8105,3.8177,3.8212,3.8321,3.7589,3.7012,3.6892,3.6411,3.6133,3.623,3.623,3.6122,3.5773,3.6157,3.6411,3.6411,3.5989,3.5773,3.5773,3.6085,3.6314,3.6411,3.6627,3.6795,3.6867,3.6459,3.623,3.6266,3.6795,3.7324,3.7939,3.9441,4.147,4.3883,4.615,0.0,5.1273,5.3504,5.4784,5.5438,5.553,5.577,5.565,0.0,5.2908,5.3004,0.0,0.0,0.0,4.9053,0.0,4.7353,4.7353,4.7497,4.7762,0.0,0.0,0.0,5.1339,5.0739,5.0722,5.3697,5.2717,5.2013,5.4339,5.2208,5.0167,5.0394,4.823,4.6787,4.7606,4.7402,4.7344,0.0,0.0,0.0,4.8796,4.8558,4.8499,4.8874,4.8913,4.8913,4.8913,4.8913,4.8913,4.8913,4.8913,4.8913,4.8913,4.8913,4.9066,4.9371,4.9469,4.9707,5.0082,5.0488,5.0683,5.0683,5.0586,5.0371,5.0019,4.957,4.918,4.8913,4.9089,4.9574,5.0219,5.0395,5.0859,5.1401,3.7554,3.8022,3.8238,3.7698,3.7819,3.8011,3.7998,3.7998,3.8094,3.8359,3.7926,3.7602,3.7602,3.7108,3.6916,3.7156,3.7217,3.7204,3.7191,3.7456,3.76,3.76,3.6843,3.6411,3.6411,3.6675,3.6795,3.6795,3.706,3.7217,3.718,3.6651,3.6555,3.6819,3.7084,3.7637,3.8551,4.0681,4.3096,4.5614,4.6952,0.0,5.1315,5.3456,5.4904,5.5842,5.6087,5.6203,5.5914,5.4063,5.3437,0.0,0.0,4.9968,4.9215,0.0,4.8957,4.7906,0.0,0.0,0.0,4.8219,0.0,0.0,0.0,5.0294,5.0279,5.1586,5.0602,4.9807,5.0876,4.8736,4.7104,4.7999,4.6042,4.4845,4.6133,4.6855,4.75,0.0,0.0,0.0,4.8499,4.8167,4.8066,4.8519,4.8558,4.8656,4.8894,4.8913,4.8913,4.8913,4.8913,4.8913,4.8913,4.9105,4.9297,4.9508,4.9937,5.0176,5.0219,5.082,5.0972,5.0801,5.0801,5.0566,5.016,4.9683,4.9258,4.8933,4.9125,4.9613,5.0199,5.0199,5.0586,5.1069,3.8083,3.8503,3.8561,3.7805,3.7926,3.8083,3.7867,3.7733,3.7853,3.8396,3.8372,3.842,3.8746,3.8107,3.7915,3.8564,3.842,3.8455,3.8778,3.8898,3.8898,3.8788,3.7878,3.7313,3.7217,3.7217,3.7217,3.7217,3.7217,3.7252,3.7324,3.6916,3.694,3.7361,3.7674,3.8407,3.9595,4.2269,4.4843,4.7233,0.0,4.9109,5.0906,5.3264,5.4683,5.553,5.6616,5.7001,5.6833,5.577,0.0,5.3769,5.2499,5.1074,0.0,0.0,0.0,0.0,0.0,0.0,0.0,0.0,0.0,4.9143,0.0,0.0,0.0,4.9111,4.8347,4.7737,4.7412,4.5622,0.0,0.0,0.0,0.0,0.0,4.5879,0.0,0.0,0.0,0.0,0.0,4.7793,4.7835,4.8066,4.8242,4.8457,4.8734,4.8855,4.8913,4.8913,4.8913,4.8913,4.8913,4.9297,4.9547,4.9644,5.0351,5.0547,5.0312,5.0918,5.0972,5.0683,5.0683,5.0449,5.0043,4.9644,4.9258,4.8933,4.9258,4.9668,5.0082,5.0082,5.0312,5.0644,3.8706,3.8754,3.8922,3.9272,3.897,3.8994,3.9898,3.9633,3.9513,4.0056,3.9705,3.9946,4.1394,4.0224,3.9729,4.0754,0.0,0.0,3.8826,0.0,3.9307,3.8812,3.8214,3.7698,3.7217,3.7217,3.7217,3.7217,3.7217,3.7434,3.7904,3.7843,3.7843,3.7963,3.9406,4.0633,4.1812,4.4427,4.6824,0.0,5.1856,5.313,0.0,5.6804,5.69,5.553,5.6616,5.7001,5.6833,0.0,5.6227,5.6925,0.0,5.3528,5.2488,5.158,0.0,0.0,0.0,0.0,0.0,0.0,4.8693,0.0,0.0,0.0,0.0,4.8414,0.0,4.6313,4.6708,0.0,0.0,0.0,0.0,0.0,4.2246,4.3672,4.4941,4.5389,0.0,0.0,0.0,4.7715,4.8008,4.7698,4.8382,4.8656,4.8301,4.8675,4.8913,4.8913,4.8913,4.8913,4.8913,4.9297,4.9703,5.0121,5.0219,5.041,5.0723,5.0473,5.0317,5.0278,5.0278,5.0,4.9566,4.9527,4.9258,4.8913,4.8952,4.9222,4.9566,4.9566,4.9883,5.0258,3.8874,3.9307,3.9691,3.9633,3.9667,3.9777,3.9922,3.9739,3.9681,3.9898,4.0018,4.0681,4.2284,4.1307,0.0,0.0,0.0,4.2225,0.0,0.0,4.1759,4.1543,3.9248,3.8324,3.9032,3.8155,3.765,3.765,3.7974,3.8225,3.8455,3.8155,3.8324,3.9008,4.0609,4.2077,4.3538,4.6824,4.9102,0.0,0.0,0.0,0.0,5.6328,5.664,5.5991,5.7073,5.7265,5.6929,0.0,5.6352,0.0,0.0,0.0,0.0,5.2788,0.0,0.0,0.0,0.0,0.0,0.0,0.0,0.0,4.9985,0.0,4.9437,0.0,0.0,0.0,0.0,0.0,0.0,0.0,4.3493,0.0,0.0,0.0,4.3263,0.0,0.0,0.0,0.0,0.0,0.0,0.0,4.7168,4.7542,4.7855,4.8265,4.8617,4.8894,4.8913,4.8913,4.8913,4.9297,4.9746,5.0199,5.0199,5.0297,5.0453,5.0278,5.0039,4.9824,5.0082,4.9922,4.9508,4.9508,4.9258,4.8913,4.8913,4.9164,4.9469,4.9238,4.9414,4.9766,3.932,3.9874,4.0282,3.9898,4.0138,4.0258,3.9874,3.9946,4.009,4.0234,4.0609,0.0,4.3424,4.2558,0.0,0.0,0.0,4.4733,0.0,0.0,4.3995,4.4139,4.1042,0.0,0.0,3.9479,3.8588,3.8444,3.8682,3.8802,3.8802,3.8695,3.8925,3.9451,4.1355,4.3144,4.4973,4.8579,5.0978,5.2524,5.4452,5.4933,5.4573,5.5582,5.6087,5.6308,5.7241,5.7241,5.6833,5.7121,5.6804,0.0,5.64,0.0,5.3437,0.0,0.0,0.0,5.194,0.0,0.0,0.0,0.0,0.0,0.0,0.0,0.0,0.0,0.0,0.0,0.0,0.0,0.0,0.0,0.0,4.2425,0.0,4.1348,0.0,0.0,0.0,0.0,0.0,0.0,0.0,0.0,0.0,0.0,4.7187,4.7734,4.8242,4.8695,4.8835,4.8913,4.8913,4.9297,4.9746,5.0199,5.0058,5.0082,5.0199,4.9945,4.9672,4.9355,4.9711,4.9629,4.9336,4.9336,4.916,4.8913,4.8913,4.9086,4.9297,4.9007,4.9086,4.9297,4.0355,4.0379,4.0379,4.0379,4.0379,4.0379,4.0379,4.0826,4.1331,0.0,0.0,0.0,0.0,0.0,0.0,0.0,0.0,4.5854,4.5854,0.0,4.5277,0.0,0.0,4.2669,0.0,4.1139,4.0066,3.9561,3.9042,3.8802,3.8812,3.985,3.9801,3.8946,4.1596,4.3929,4.6046,4.9284,5.2163,5.464,5.628,5.6616,5.6068,0.0,5.5751,5.626,5.6833,0.0,0.0,5.7409,5.8103,0.0,0.0,0.0,0.0,0.0,0.0,0.0,0.0,0.0,0.0,5.3443,0.0,0.0,0.0,0.0,4.962,0.0,0.0,0.0,0.0,0.0,0.0,0.0,0.0,0.0,0.0,0.0,0.0,0.0,0.0,0.0,0.0,0.0,0.0,0.0,0.0,0.0,4.6328,4.7148,4.7793,4.8223,4.8656,4.8913,4.8913,4.9297,4.9746,5.0199,4.9722,4.9766,5.018,4.9343,4.8933,4.8933,4.8933,4.8933,4.8933,4.8933,4.8913,4.8913,4.8913,4.8913,4.8933,4.8913,4.8913,4.8913,4.0922,4.0922,4.0922,4.0922,4.0922,4.1042,4.1403,4.1596,0.0,0.0,0.0,0.0,0.0,0.0,4.7377,0.0,0.0,4.8861,4.9565,4.8772,0.0,0.0,0.0,4.4852,0.0,0.0,4.1379,4.0138,3.9595,3.9499,3.985,3.9499,3.9729,4.0499,4.3144,4.5694,4.8171,5.0689,0.0,0.0,0.0,5.5626,5.5222,0.0,0.0,5.626,5.6808,5.6881,0.0,5.7145,5.7646,5.7959,5.7217,5.6881,5.6568,5.5635,5.5005,0.0,0.0,0.0,5.4885,5.4856,0.0,0.0,0.0,0.0,0.0,0.0,0.0,0.0,0.0,0.0,4.5271,0.0,0.0,0.0,0.0,0.0,0.0,0.0,0.0,0.0,0.0,0.0,0.0,0.0,0.0,0.0,0.0,4.6699,4.7458,4.8183,4.8656,4.8913,4.8913,4.9027,4.9476,5.0199,4.9457,4.9496,5.018,4.9304,4.8913,4.8913,4.8913,4.8913,4.8913,4.8913,4.8913,4.8913,4.8913,4.8913,4.8913,4.8913,4.8913,4.8913,4.1187,4.1187,4.1139,4.0946,4.1066,4.1451,0.0,0.0,0.0,0.0,4.5229,0.0,4.8861,0.0,4.9205,0.0,5.1339,5.1122,5.2013,5.105,0.0,5.176,4.8916,0.0,0.0,0.0,0.0,4.1783,4.0884,4.0441,4.0379,3.9898,4.0306,4.1572,4.3826,4.6206,4.8717,5.1435,5.324,0.0,0.0,5.5145,0.0,0.0,5.6087,5.5703,0.0,5.6304,5.6159,5.6371,5.666,5.6925,5.676,5.6712,5.6688,5.6544,5.6231,5.6011,5.6203,5.6231,0.0,5.6251,5.5433,0.0,5.4645,0.0,0.0,0.0,0.0,0.0,0.0,0.0,0.0,0.0,0.0,0.0,0.0,4.0762,0.0,0.0,0.0,0.0,0.0,0.0,0.0,0.0,0.0,0.0,0.0,0.0,4.6933,4.7949,4.8421,4.8714,4.8913,4.8913,4.9343,5.0199,4.9324,4.9363,5.018,4.9304,4.8913,4.8913,4.8913,4.8913,4.8913,4.8913,4.8913,4.8913,4.8913,4.8913,4.8913,4.8913,4.8913,4.8913,4.1259,4.1283,4.1139,4.0657,4.097,0.0,0.0,0.0,4.4565,0.0,4.6206,4.7473,4.9053,4.927,5.0136,5.2205,5.2349,0.0,5.3138,5.2205,0.0,0.0,5.1411,5.0256,5.0744,0.0,0.0,0.0,4.2784,4.149,4.0537,4.0994,4.1499,4.2116,4.3667,4.5565,4.7786,5.1435,5.2758,5.2542,5.4087,5.5318,5.614,5.565,5.5121,5.476,5.5265,5.5145,5.4808,5.5337,5.553,5.565,5.6159,5.6308,5.6424,5.6929,5.7073,5.7145,5.765,5.7049,5.6496,5.753,0.0,0.0,0.0,0.0,5.36,0.0,0.0,0.0,0.0,0.0,0.0,4.5464,0.0,0.0,0.0,0.0,0.0,0.0,0.0,0.0,0.0,0.0,0.0,0.0,0.0,4.3458,0.0,0.0,4.6272,4.7542,4.7949,4.8379,4.8874,4.8874,4.9281,5.0121,4.9304,4.934,5.0141,4.9304,4.8913,4.8913,4.8913,4.8913,4.8913,4.8913,4.8913,4.8913,4.8913,4.8913,4.8913,4.8913,4.8913,4.8913,4.2308,4.238,4.2452,0.0,4.2832,4.3273,0.0,0.0,0.0,0.0,4.8428,4.9535,5.0762,5.158,5.2446,5.3341,5.3095,0.0,0.0,0.0,0.0,5.4356,5.3047,5.1964,5.1297,4.906,0.0,4.607,0.0,4.2067,4.2164,4.1499,4.1706,4.2669,4.462,4.6471,4.8236,5.0407,5.2355,5.4159,5.5727,5.6304,0.0,0.0,5.5919,5.5823,5.5943,5.6159,5.6472,5.7001,5.7454,5.779,5.7935,5.7983,5.8007,5.8151,5.7911,5.7626,5.7766,5.7313,5.6953,5.7626,5.6784,5.5967,0.0,0.0,0.0,0.0,0.0,0.0,0.0,0.0,0.0,0.0,0.0,0.0,0.0,0.0,0.0,0.0,0.0,0.0,0.0,0.0,0.0,0.0,0.0,0.0,0.0,0.0,0.0,4.7048,4.7519,4.7972,4.8379,4.8379,4.8675,4.9222,4.9011,4.9183,4.9644,4.9144,4.8913,4.8913,4.8913,4.8913,4.8913,4.8913,4.8913,4.8913,4.8913,4.8913,4.8913,4.8913,4.8913,4.8913,4.2741,4.3159,0.0,4.4115,0.0,0.0,4.6271,0.0,0.0,4.9396,5.0386,0.0,5.2109,5.2734,5.348,5.4423,5.4039,0.0,0.0,0.0,0.0,5.527,5.4303,5.3461,5.286,5.1243,0.0,4.7401,0.0,4.4194,4.3087,4.2735,4.3144,4.4218,4.5629,4.688,4.8074,4.9926,5.2355,5.5001,5.5679,5.6183,0.0,5.6284,5.6496,5.6905,5.6905,5.6953,5.7049,5.7337,5.765,5.7959,5.8175,5.8247,5.8295,5.8536,5.8392,5.8151,5.8151,5.7935,5.7718,5.777,5.7337,5.6977,5.7265,5.6688,5.6059,0.0,0.0,0.0,0.0,0.0,0.0,0.0,0.0,0.0,0.0,0.0,0.0,0.0,0.0,0.0,0.0,0.0,0.0,0.0,0.0,0.0,0.0,0.0,0.0,4.6853,4.7168,4.7402,4.7614,4.8203,4.8636,4.8913,4.8913,4.9125,4.9488,4.9086,4.8913,4.8913,4.8913,4.8913,4.8913,4.8913,4.8913,4.8913,4.8913,4.8913,4.8913,4.8913,4.8913,4.8913,4.3252,4.403,0.0,0.0,0.0,0.0,0.0,4.9422,0.0,5.1445,0.0,5.2731,5.3213,5.3382,5.401,5.5342,0.0,5.5299,5.6292,5.5887,5.58,5.6262,5.5284,5.4784,5.4928,5.3721,0.0,0.0,0.0,4.68,4.3923,4.4316,4.5021,4.6038,4.6639,4.7377,4.8267,5.0263,5.2764,5.5385,5.5121,5.5847,5.7073,5.6664,5.7145,5.8007,5.8007,5.765,5.7217,5.7289,5.7361,5.7506,5.7983,5.8127,5.8223,5.8656,5.8752,5.8704,5.8704,5.8656,5.8488,5.8031,5.789,5.789,5.789,5.7602,5.753,5.8319,5.7434,5.6476,0.0,0.0,0.0,0.0,0.0,0.0,0.0,0.0,0.0,0.0,0.0,0.0,0.0,0.0,0.0,0.0,0.0,0.0,0.0,0.0,0.0,4.6521,4.6736,0.0,4.6911,0.0,4.8815,4.8815,4.8874,4.9086,4.941,4.9066,4.8913,4.8913,4.8913,4.8913,4.8913,4.8913,4.8913,4.8913,4.8913,4.8913,4.8913,4.8913,4.8913,4.8913,4.5607,4.6191,0.0,0.0,0.0,4.927,5.1547,5.0899,5.0864,5.2842,5.3598,5.4004,5.4077,5.4868,5.553,5.58,5.6067,0.0,0.0,0.0,0.0,5.6687,5.5772,5.5674,5.6568,5.4298,5.3023,0.0,0.0,4.7569,4.6134,4.5782,4.5966,4.6591,4.7569,4.9318,5.1555,5.2764,0.0,5.5506,5.6756,5.743,5.7718,5.8055,5.856,5.9113,5.9113,5.8776,5.8392,5.8824,5.9278,5.9663,5.9759,5.9783,5.9807,5.9903,5.9615,5.9278,5.9278,5.8921,5.8584,5.8488,5.8464,5.8464,5.8464,5.8728,5.8776,5.8079,5.8079,5.8035,5.7602,0.0,0.0,0.0,0.0,0.0,0.0,0.0,0.0,0.0,0.0,0.0,0.0,0.0,0.0,4.1289,4.1992,0.0,0.0,0.0,4.4453,0.0,4.5859,0.0,0.0,0.0,4.832,4.832,4.8714,4.8952,4.8988,4.8933,4.8913,4.8913,4.8913,4.8913,4.8913,4.8913,4.8913,4.8913,4.8913,4.8913,4.8913,4.8913,4.8913,4.8913,4.7386,4.7692,4.8305,0.0,0.0,0.0,0.0,5.356,0.0,5.4446,5.4905,5.5219,5.5477,5.5742,5.6228,5.707,5.6889,5.6949,5.7511,5.7144,5.6908,5.6908,5.6205,0.0,5.6572,5.5342,5.4015,5.262,0.0,4.9679,4.7521,4.7545,4.769,4.7978,4.906,5.0551,5.2373,0.0,0.0,5.553,5.7165,5.7983,5.8271,5.88,5.935,5.9807,5.9807,5.9663,5.947,5.9735,5.9976,6.0192,6.0192,6.0192,6.0192,6.0192,6.0024,5.9807,5.9807,5.9639,5.9374,5.9065,5.9017,5.8945,5.8656,5.88,5.8824,5.8319,5.8416,5.844,5.7911,5.6156,0.0,0.0,0.0,0.0,0.0,0.0,0.0,0.0,0.0,0.0,0.0,0.0,0.0,4.1563,4.1875,4.2285,0.0,0.0,4.4023,0.0,0.0,0.0,0.0,0.0,0.0,4.7891,4.8581,4.8913,4.8913,4.8913,4.8913,4.8913,4.8913,4.8913,4.8913,4.8913,4.8913,4.8913,4.8913,4.8913,4.8913,4.8913,4.8913,4.8913,5.0148,5.0298,0.0,0.0,5.3074,0.0,5.6132,5.623,5.6089,5.6239,5.6296,5.6504,5.6991,5.6708,5.7017,5.8269,5.7657,5.7399,5.7863,5.7396,5.7119,5.714,5.6535,5.6328,5.6544,5.6308,5.4981,0.0,0.0,0.0,4.8644,4.9294,4.9727,5.0009,5.1056,5.2067,0.0,0.0,5.5337,5.6035,5.743,5.8295,5.8824,5.9374,5.9831,6.0192,6.0192,6.0192,6.0192,6.0192,6.0192,6.0192,6.0192,6.0192,6.0192,6.0192,6.0192,6.0192,6.0192,6.0192,6.0096,5.9687,5.9567,5.947,5.9041,5.8945,5.8917,5.8776,5.8584,5.8343,5.8031,5.7598,0.0,0.0,0.0,0.0,0.0,0.0,0.0,0.0,0.0,0.0,0.0,0.0,0.0,4.2427,4.1994,4.2285,4.3379,0.0,0.0,0.0,0.0,4.6055,4.5842,0.0,4.8441,0.0,4.8581,4.8913,4.8913,4.8913,4.8913,4.8913,4.8913,4.8913,4.8913,4.8913,4.8913,4.8913,4.8913,4.8913,4.8913,4.8913,4.8913,4.8913,0.0,0.0,0.0,0.0,0.0,0.0,5.7753,5.7933,5.8187,5.8391,5.8007,5.7913,5.8446,5.8471,5.8496,5.8646,5.8583,5.8585,5.8759,5.795,5.7472,5.7552,5.6693,5.6664,5.7626,5.6712,5.6063,0.0,0.0,0.0,4.9769,5.081,5.1796,5.2777,5.3774,0.0,0.0,5.5775,5.664,5.7646,5.8271,5.8848,5.9398,5.9928,6.0144,6.0192,6.0192,6.0192,6.0192,6.0192,6.0192,6.0192,6.0192,6.0192,6.0192,6.0192,6.0192,6.0192,6.0192,6.0192,6.0192,6.0144,6.012,6.0096,6.0048,6.0048,5.9903,5.9422,5.856,5.8007,5.844,5.6925,5.5578,0.0,0.0,0.0,0.0,0.0,0.0,0.0,0.0,0.0,0.0,0.0,0.0,0.0,4.2623,4.2012,0.0,0.0,0.0,4.3808,0.0,4.592,4.623,4.7598,4.8441,4.8796,4.8855,4.8913,4.8913,4.8913,4.8913,4.8913,4.8913,4.8913,4.8913,4.8913,4.8913,4.8913,4.8913,4.8913,4.8913,4.8913,4.8913,4.8913,0.0,0.0,0.0,0.0,0.0,0.0,0.0,5.9425,5.8721,5.9133,5.871,5.8459,5.8685,5.871,5.8836,5.9156,5.8675,5.8268,5.8056,5.7143,5.6649,5.6752,5.6406,5.6568,5.7289,5.6905,5.6207,0.0,0.0,0.0,5.1838,5.2253,5.2855,5.3558,0.0,5.4904,5.5458,5.6328,5.7121,5.7886,5.8728,5.923,5.947,6.0,6.0192,6.0192,6.0192,6.0192,6.0192,6.0192,6.0192,6.0192,6.0192,6.0192,6.0192,6.0192,6.0192,6.0192,6.0192,6.0192,6.0192,6.0192,6.0192,6.0192,6.0192,6.0192,6.0144,5.9928,5.9278,5.8824,5.9041,5.8652,5.7959,0.0,0.0,0.0,0.0,0.0,0.0,0.0,0.0,0.0,0.0,0.0,0.0,0.0,4.6078,0.0,0.0,0.0,0.0,4.4183,0.0,4.7807,4.7092,4.7832,4.8301,4.8476,4.8776,4.8913,4.8913,4.8913,4.8913,4.8913,4.8913,4.8913,4.8913,4.8913,4.8913,4.8913,4.8913,4.8913,4.8913,4.8913,4.8913,4.8913,6.0869,0.0,6.1525,0.0,6.2549,6.2043,6.2512,6.099,5.9715,5.9543,5.9012,5.871,5.871,5.8836,5.9012,5.9257,5.8812,5.8335,5.7948,5.7083,5.6667,5.6817,5.6822,0.0,5.7378,5.7543,5.6927,5.5487,5.5192,0.0,0.0,5.3312,5.3726,0.0,5.5053,5.553,5.5938,5.6833,5.7646,5.8343,5.911,5.9494,5.9687,6.0048,6.0192,6.0192,6.0192,6.0192,6.0213,6.0339,6.0381,6.036,6.0234,6.0192,6.0192,6.0192,6.0192,6.0192,6.0192,6.0192,6.0192,6.0192,6.0192,6.0192,6.0192,6.0192,6.0192,6.0192,5.9783,5.9398,5.9398,5.9591,5.9326,5.8007,0.0,0.0,0.0,0.0,0.0,0.0,5.5121,5.5506,5.5193,0.0,0.0,0.0,0.0,0.0,0.0,0.0,0.0,0.0,0.0,0.0,0.0,4.8815,4.8963,4.9245,4.9013,4.8913,4.8913,4.8913,4.8913,4.8913,4.8913,4.8913,4.8913,4.8913,4.8913,4.8913,4.8913,4.8913,4.8913,4.8913,4.8913,4.8913,6.5635,6.6035,6.6258,6.8354,6.8197,6.6758,6.3671,6.271,6.1681,5.9755,5.9012,5.871,5.871,5.9182,5.9282,5.8761,5.9162,5.9309,5.8901,5.8384,5.8142,0.0,0.0,5.8281,5.8291,5.8802,5.8579,5.7548,0.0,0.0,5.3803,5.3803,5.4645,5.6188,5.6736,5.6977,5.7025,5.7554,5.8416,5.9398,5.9398,5.9711,6.0192,6.0192,6.0192,6.0192,6.0192,6.0192,6.0255,6.0674,6.0799,6.0737,6.0318,6.0192,6.0192,6.0192,6.0192,6.0192,6.0192,6.0192,6.0192,6.0192,6.0192,6.0192,6.0192,6.0192,6.0192,6.0192,5.9783,5.9398,5.9398,5.8969,5.844,5.7886,0.0,0.0,0.0,0.0,0.0,0.0,5.5222,5.5775,5.4693,0.0,0.0,0.0,0.0,0.0,0.0,0.0,0.0,4.8537,4.9617,0.0,5.164,5.0733,5.0731,5.1622,4.9774,4.8913,4.8913,4.8913,4.8913,4.8913,4.8913,4.8913,4.8913,4.8913,4.8913,4.8913,4.8913,4.8913,4.8913,4.8913,4.8913,4.8913,6.7034,6.6974,6.6734,6.7397,6.6474,6.5106,6.3456,6.2165,6.0924,5.9652,5.9357,5.9106,5.8736,5.9182,5.9433,0.0,5.9081,5.8783,0.0,5.7857,5.7591,5.7754,5.7759,5.7931,5.8286,5.8458,5.8202,5.7545,0.0,0.0,0.0,5.5935,5.6448,5.7265,5.7097,5.7409,5.8103,5.8271,5.8752,5.9467,6.0096,6.0466,6.0653,6.0962,6.1091,6.107,6.1091,6.1091,6.1112,6.1233,6.1278,6.1236,6.1112,6.1095,6.1008,6.0695,6.0611,6.0548,6.0276,6.0192,6.0192,6.0192,6.0192,6.0192,6.0192,6.0192,6.0192,6.0192,6.0048,5.9952,5.9952,5.9807,5.9398,5.8488,5.8656,0.0,0.0,0.0,0.0,0.0,5.6092,5.6352,0.0,5.565,0.0,0.0,0.0,0.0,0.0,0.0,0.0,0.0,5.2729,0.0,5.3058,5.1579,5.113,5.1688,4.9816,4.8913,4.8913,4.8913,4.8913,4.8913,4.8913,4.8913,4.8913,4.8913,4.8913,4.8913,4.8913,4.8913,4.8913,4.8913,4.8913,4.8952,6.7683,6.7567,6.7364,6.758,6.6828,6.5792,6.4628,6.345,6.2138,6.0564,6.0176,5.9795,5.9088,5.9307,0.0,5.9232,5.9081,5.8891,5.8635,5.831,5.8171,5.8244,5.8447,5.8602,5.8756,0.0,0.0,5.8017,5.8083,5.804,5.7961,5.8049,5.8152,5.8273,5.8148,5.8387,5.8853,5.9046,5.9354,5.9777,6.0487,6.082,6.0862,6.1316,6.1506,6.151,6.1506,6.1506,6.1531,6.1713,6.1754,6.18,6.1944,6.2006,6.1858,6.1233,6.1066,6.0962,6.0548,6.0423,6.0402,6.0234,6.0192,6.0192,6.0192,6.0192,6.0192,6.0192,6.0192,6.0192,6.0192,6.0192,5.9976,5.9326,5.9494,5.923,5.7814,0.0,0.0,0.0,0.0,0.0,0.0,5.6419,0.0,0.0,0.0,0.0,0.0,0.0,0.0,5.3002,5.5142,0.0,5.5555,5.3234,5.2302,5.2723,5.0139,4.8913,4.8913,4.8913,4.8913,4.8913,4.8913,4.8913,4.8913,4.8913,4.8913,4.8913,4.8913,4.8913,4.8933,4.9066,4.9125,4.9164,6.7828,6.7916,0.0,0.0,6.8753,0.0,6.671,6.6016,6.4754,6.2261,6.1383,6.0643,5.9732,5.9608,5.9408,5.8911,0.0,0.0,0.0,5.9508,5.9508,5.9558,6.0016,6.0111,5.9633,6.0111,5.994,5.9064,5.9153,5.9447,5.994,5.9899,5.9653,5.9235,5.9687,5.9735,5.9467,5.9893,6.0151,6.0318,6.0737,6.0903,6.0966,6.1419,6.1589,6.1593,6.1593,6.1593,6.1655,6.2084,6.2228,6.231,6.2679,6.2802,6.2638,6.1792,6.1544,6.144,6.0987,6.0841,6.0716,6.0339,6.0213,6.0192,6.0192,6.0192,6.0192,6.0192,6.0192,6.0192,6.0192,6.0192,6.0192,6.0192,6.0192,5.9831,5.88,0.0,0.0,0.0,0.0,0.0,0.0,5.6736,5.6424,0.0,0.0,0.0,0.0,0.0,5.638,5.6308,5.6881,5.7565,5.8448,5.5347,5.3887,5.4058,5.0553,4.8913,4.8913,4.8913,4.8913,4.8913,4.8913,4.8913,4.8913,4.8913,4.8913,4.8913,4.8913,4.8913,4.8952,4.9336,4.9469,4.9469,0.0,0.0,6.7945,6.809,6.8102,6.7759,6.6671,6.5744,6.4706,6.3349,6.1994,6.1065,6.0823,6.0808,6.0758,6.0613,5.9935,5.9684,6.0066,5.9734,5.9684,6.0091,6.0242,6.0462,6.0808,6.0934,6.0874,6.067,6.0333,6.0238,6.0342,6.004,6.0047,6.0322,6.0078,6.0351,6.0948,6.0722,6.0844,6.1216,6.1692,6.1878,6.1919,6.2331,6.2495,6.2475,6.2475,6.2475,6.2495,6.2618,6.2659,6.2659,6.2761,6.2802,6.27,6.2187,6.2043,6.1919,6.1444,6.107,6.0778,6.0695,6.0423,6.0192,6.0192,6.0192,6.0192,6.0192,6.0192,6.0192,6.0192,6.0192,6.0192,6.0192,6.0192,5.9976,5.9281,5.8969,0.0,0.0,5.8464,5.8536,5.9374,5.8945,5.8464,0.0,0.0,0.0,0.0,5.8199,5.8271,5.7434,5.8343,5.8281,5.7091,5.5238,5.2951,5.0208,4.9331,4.8913,4.8913,4.8913,4.8913,4.8913,4.8913,4.8913,4.8913,4.8913,4.8913,4.8913,4.8913,4.8913,4.8913,4.9007,4.9046,4.9086,6.8392,6.8363,6.8392,6.87,6.9019,6.899,6.8485,6.7972,6.716,6.5958,6.4383,6.311,6.2396,6.1635,6.1311,6.1542,6.0783,6.0387,6.0688,6.0437,6.0412,6.0688,6.0713,6.0864,6.1185,6.121,6.1336,6.1567,6.1301,6.1306,6.1555,6.1333,6.1381,6.1658,6.1392,6.1479,6.1816,6.1568,6.1465,6.1551,6.2002,6.2187,6.2228,6.2638,6.2802,6.2802,6.2802,6.2802,6.2802,6.2802,6.2802,6.2802,6.2802,6.2802,6.2741,6.2536,6.2475,6.2372,6.194,6.163,6.1402,6.1174,6.0945,6.0737,6.0528,6.0486,6.0423,6.0234,6.0192,6.0192,6.0192,6.0192,6.0192,6.0192,6.0,5.9735,5.9446,5.9137,0.0,5.9374,5.9137,5.9185,5.9783,5.935,5.9037,5.8969,0.0,0.0,5.8536,5.8848,5.8872,5.8536,5.911,5.9016,5.8263,5.5746,5.2611,4.8913,4.8913,4.8913,4.8913,4.8913,4.8913,4.8913,4.8913,4.8913,4.8913,4.8913,4.8913,4.8913,4.8913,4.8913,4.8952,4.9363,4.9476,4.9555,6.8177,6.8683,6.9275,6.9832,7.0453,7.0842,7.0842,7.0709,7.0069,6.85,6.6907,6.5276,6.3648,6.2259,6.1617,6.2094,6.1692,6.1411,6.1336,6.126,6.1235,6.1336,6.1336,6.1361,6.1461,6.1461,6.1667,6.2119,6.2119,6.235,6.2802,6.2802,6.2802,6.2802,6.2741,6.2536,6.229,6.2228,6.2027,6.1738,6.2125,6.229,6.2331,6.2659,6.2802,6.2802,6.2802,6.2802,6.2802,6.2802,6.2802,6.2802,6.2802,6.2802,6.2802,6.2802,6.2802,6.272,6.2372,6.2249,6.2084,6.1634,6.151,6.1386,6.0924,6.082,6.0695,6.0276,6.0192,6.0192,6.0192,6.0192,6.0168,6.0096,5.9711,5.9374,5.9302,0.0,5.9398,5.9398,5.947,5.9519,5.9519,5.9113,5.9017,5.9494,5.868,5.8512,0.0,5.9041,5.9017,5.9398,5.9494,5.9464,5.9344,5.5858,5.2342,4.8913,4.8913,4.8913,4.8913,4.8913,4.8913,4.8913,4.8913,4.8913,4.8913,4.8972,4.8949,4.8913,4.9027,4.9046,4.9086,4.9906,5.0199,5.0258,6.9513,6.9989,7.0436,7.0552,7.111,7.1545,7.1545,7.0829,6.968,6.8018,6.6402,6.4775,6.3113,6.2713,6.2576,6.2676,6.2601,6.235,6.1918,6.1461,6.1411,6.1868,6.1868,6.2094,6.2551,6.2551,6.2601,6.2676,6.2676,6.2727,6.2802,6.2802,6.2802,6.2781,6.2434,6.2454,6.2679,6.2331,6.2351,6.2597,6.2679,6.27,6.27,6.2781,6.2802,6.2802,6.2802,6.2802,6.2802,6.2802,6.2802,6.2802,6.2802,6.2802,6.2802,6.2802,6.2802,6.2781,6.272,6.2454,6.2084,6.1606,6.1506,6.1386,6.0924,6.082,6.0695,6.0276,6.0192,6.0192,6.0192,6.0192,6.0048,5.9615,5.947,5.9254,5.8776,0.0,5.9398,5.9398,5.9807,6.0072,6.0072,6.0,5.9976,6.0072,5.9928,5.9711,5.9422,5.9759,5.9783,5.9422,5.9831,5.8571,5.5421,5.3215,5.1052,4.8913,4.8913,4.8913,4.8913,4.8913,4.8913,4.8913,4.8913,4.8913,4.8933,4.9258,4.9199,4.8972,4.9711,4.9746,4.9469,5.0,5.0199,5.0219,6.9803,7.0587,7.1121,7.0755,7.1528,7.2166,7.2166,7.1791,7.1211,7.044,6.8924,6.7288,6.5641,6.4657,6.3766,6.2884,6.2802,6.2701,6.245,6.2199,6.2174,6.2425,6.2425,6.2551,6.2802,6.2802,6.2802,6.2802,6.2802,6.2802,6.2802,6.2802,6.2802,6.2781,6.2597,6.2618,6.2781,6.2597,6.2618,6.2802,6.2802,6.2802,6.2802,6.2802,6.2802,6.2802,6.2802,6.2802,6.2802,6.2802,6.2802,6.2802,6.2802,6.2802,6.2802,6.2802,6.2802,6.2802,6.2802,6.2659,6.2475,6.2244,6.2208,6.2022,6.1319,6.1174,6.0987,6.0339,6.0192,6.0192,6.0192,6.0192,6.0024,5.9494,5.9398,0.0,5.868,5.9065,5.9398,5.9398,5.9879,6.0192,6.0192,6.0192,6.0192,6.0192,6.0192,6.0096,5.9855,6.0072,6.0096,5.9831,6.0072,5.8385,5.4543,5.3637,5.1755,4.8913,4.8913,4.8913,4.8913,4.8913,4.8913,4.8913,4.9144,4.9219,4.9258,4.9707,4.9609,4.9277,4.9945,4.9902,4.9586,5.0273,5.0508,5.0547,7.0238,7.1139,7.1748,7.122,7.1945,7.2584,7.2584,7.2584,7.2459,7.21,7.0974,6.942,6.7357,6.6053,6.4643,6.2945,6.2802,6.2802,6.2802,6.2802,6.2802,6.2802,6.2802,6.2802,6.2802,6.2802,6.2802,6.2802,6.2802,6.2802,6.2802,6.2802,6.2802,6.2802,6.2802,6.2802,6.2802,6.2802,6.2802,6.2802,6.2802,6.2802,6.2802,6.2802,6.2802,6.2802,6.2802,6.2802,6.2802,6.2802,6.2802,6.2802,6.2802,6.2802,6.2802,6.2802,6.2802,6.2802,6.2802,6.2802,6.2802,6.2802,6.2802,6.2597,6.1841,6.1593,6.1278,6.0507,6.0255,6.0192,6.0192,6.0192,6.0024,5.9494,0.0,5.9278,5.8824,5.9137,5.9446,5.9567,5.9952,6.0192,6.0192,6.0192,6.0192,6.0192,6.0192,6.0192,6.0192,6.0192,6.0192,6.0192,6.0192,5.8577,5.5224,5.4719,5.2834,4.9541,4.9101,4.8913,4.8913,4.8913,4.8913,4.8933,4.9336,4.9508,4.9547,5.0,4.9922,4.9547,5.0,4.998,4.9766,5.0527,5.0859,5.0972,7.1563,7.2097,7.2526,7.2468,7.2526,7.2584,7.2584,7.2584,7.2082,7.057,7.0247,6.8989,6.5818,6.5371,6.4643,6.2945,6.2802,6.2802,6.2802,6.2802,6.2802,6.2802,6.2802,6.2802,6.2802,6.2802,6.2802,6.2802,6.2802,6.2802,6.2802,6.2802,6.2802,6.2802,6.2802,6.2802,6.2802,6.2802,6.2802,6.2802,6.2802,6.2802,6.2802,6.2802,6.2802,6.2802,6.2802,6.2802,6.2802,6.2802,6.2802,6.2802,6.2802,6.2802,6.2802,6.2802,6.2802,6.2802,6.2802,6.2802,6.2802,6.2802,6.2802,6.2679,6.2249,6.1792,6.1357,6.0862,6.0465,6.0192,6.0192,6.0192,6.0024,5.9494,0.0,0.0,5.935,5.9374,5.9591,6.0072,6.0168,6.0192,6.0192,6.0192,6.0192,6.0192,6.0192,6.0192,6.0192,6.0192,6.0192,6.0192,6.0192,5.9217,5.7226,5.54,5.3481,5.1462,4.9725,4.8913,4.8913,4.8913,4.8913,4.8933,4.9336,4.9508,4.9547,5.0,4.9922,4.9547,5.0,5.018,5.0199,5.0644,5.1055,5.1362,7.1708,7.2195,7.2468,7.2126,7.234,7.2584,7.2584,7.2584,7.2369,7.1765,7.0827,6.9327,6.7057,6.5896,6.4643,6.2945,6.2802,6.2802,6.2802,6.2802,6.2802,6.2802,6.2802,6.2802,6.2802,6.2802,6.2802,6.2802,6.2802,6.2802,6.2802,6.2802,6.2802,6.2802,6.2802,6.2802,6.2802,6.2802,6.2802,6.2802,6.2802,6.2802,6.2802,6.2802,6.2802,6.2802,6.2802,6.2802,6.2802,6.2802,6.2802,6.2802,6.2802,6.2802,6.2802,6.2802,6.2802,6.2802,6.2802,6.2802,6.2802,6.2802,6.2802,6.2679,6.229,6.1837,6.1382,6.0903,6.0486,6.0192,6.0192,6.0192,6.0024,5.9494,0.0,5.9783,5.9446,5.9687,5.9976,6.0168,6.0192,6.0192,6.0192,6.0192,6.0192,6.0192,6.0192,6.0192,6.0192,6.0192,6.0192,6.0192,6.0192,5.928,5.7419,5.5487,5.3548,5.1688,4.9816,4.8913,4.8913,4.8913,4.8913,4.8933,4.9336,4.9664,4.9941,5.0141,5.0102,4.9941,5.0141,5.0199,5.0258,5.0644,5.105,5.1401,7.1981,7.2311,7.2485,7.2068,7.2311,7.2584,7.2584,7.2584,7.2584,7.2584,7.1639,7.0321,6.8679,6.7037,6.5385,6.3726,6.3108,6.2802,6.2802,6.2802,6.2802,6.2802,6.2802,6.2802,6.2802,6.2802,6.2802,6.2802,6.2802,6.2802,6.2802,6.2802,6.2802,6.2802,6.2802,6.2802,6.2802,6.2802,6.2802,6.2802,6.2802,6.2802,6.2802,6.2802,6.2802,6.2802,6.2802,6.2802,6.2802,6.2802,6.2802,6.2802,6.2802,6.2802,6.2802,6.2802,6.2802,6.2802,6.2802,6.2802,6.2802,6.2802,6.2802,6.272,6.2454,6.1944,6.1406,6.1091,6.059,6.0192,6.0192,6.0192,6.0072,5.9711,5.9952,6.0072,5.9711,5.9976,6.0192,6.0192,6.0192,6.0192,6.0192,6.0192,6.0192,6.0192,6.0192,6.0192,6.0192,6.0192,6.012,5.9952,5.9952,5.9245,5.7789,5.62,5.4741,5.3458,5.0984,4.9793,4.9771,4.917,4.8913,4.8933,4.9336,4.9683,4.998,4.998,4.998,4.9961,4.9848,4.9867,5.0019,5.0449,5.0879,5.1226,7.2584,7.2584,7.2584,7.2584,7.2584,7.2584,7.2584,7.2584,7.2584,7.2584,7.2584,7.1964,7.0386,6.8698,6.703,6.545,6.3766,6.2802,6.2802,6.2802,6.2802,6.2802,6.2802,6.2802,6.2802,6.2802,6.2802,6.2802,6.2802,6.2802,6.2802,6.2802,6.2802,6.2802,6.2781,6.2827,6.2827,6.2827,6.2827,6.2827,6.2802,6.2802,6.2802,6.2802,6.2802,6.2802,6.2802,6.2802,6.2802,6.2802,6.2802,6.2802,6.2802,6.2802,6.2802,6.2802,6.2802,6.2802,6.2802,6.2802,6.2802,6.2802,6.2802,6.2802,6.2802,6.215,6.151,6.151,6.0799,6.0192,6.0192,6.0192,6.0192,6.0192,6.0192,6.0192,6.0192,6.0192,6.0192,6.0192,6.0192,6.0192,6.0192,6.0192,6.0192,6.0192,6.0192,6.0192,6.0192,6.0192,5.9952,5.9422,5.9398,5.9137,5.8608,5.7808,5.7375,5.7332,5.3526,5.1712,5.1644,4.9774,4.894,4.8979,4.9363,4.9531,4.9531,4.9531,4.9508,4.9469,4.9046,4.9164,4.9566,5.0019,5.0449,5.0859,7.2584,7.2584,7.2584,7.2584,7.2584,7.2584,7.2584,7.2584,7.2584,7.2584,7.1621,7.0736,7.0229,6.7691,6.5818,6.5352,6.3766,6.2802,6.2802,6.245,6.2225,6.2225,6.2225,6.24,6.2802,6.2425,6.2425,6.2802,6.2802,6.2802,6.2802,6.2802,6.2802,6.2827,6.3229,6.3425,6.3425,6.3425,6.3425,6.34,6.2978,6.2802,6.2802,6.2802,6.2802,6.2802,6.2802,6.2802,6.2802,6.2802,6.2802,6.2802,6.2802,6.2802,6.2802,6.2802,6.2802,6.2802,6.2802,6.2802,6.2802,6.2802,6.2802,6.2802,6.2802,6.2372,6.1899,6.1589,6.1025,6.0528,6.0255,6.0192,6.0192,6.0192,6.0192,6.0192,6.0192,6.0192,6.0192,6.0192,6.0192,6.0192,6.0192,6.0192,6.0192,6.0192,6.0192,6.0192,6.0192,6.0192,5.9952,5.9422,5.9398,5.9137,5.8608,5.7043,5.6278,5.6256,5.3754,5.2539,5.2517,5.197,5.1898,5.2259,5.2385,5.2064,5.1451,5.1171,5.0426,4.9469,4.9046,4.9164,4.9566,5.0019,5.0449,5.0859,7.2584,7.2584,7.2584,7.2584,7.2584,7.2584,7.2584,7.2584,7.2584,7.2584,7.1747,7.09,7.0247,6.7825,6.5994,6.5371,6.3562,6.2375,6.2174,6.1868,6.1667,6.1667,6.1466,6.1592,6.2149,6.2069,6.2149,6.2476,6.2701,6.2802,6.2802,6.2802,6.2802,6.2827,6.3178,6.335,6.335,6.335,6.335,6.3324,6.2952,6.2802,6.2802,6.2802,6.2802,6.2802,6.2802,6.2802,6.2802,6.2802,6.2802,6.2802,6.2802,6.2802,6.2852,6.3078,6.3153,6.3203,6.3425,6.3475,6.3475,6.3475,6.3128,6.2802,6.2802,6.2475,6.2125,6.1858,6.1402,6.0945,6.0528,6.0444,6.0381,6.0234,6.0192,6.0192,6.0192,6.0192,6.0192,6.0192,6.0192,6.0192,6.0192,6.0192,6.0192,6.0192,6.0192,6.0192,6.0192,6.0,5.9639,5.9089,5.8872,5.8512,5.7962,5.6833,5.6487,5.6864,5.4954,5.4041,5.402,5.3251,5.3082,5.3408,5.3626,5.3382,5.2781,5.2022,5.117,5.0264,4.9269,4.9164,4.9566,5.0019,5.0449,5.0859,7.2584,7.2584,7.2584,7.2584,7.2584,7.2584,7.2584,7.2584,7.2584,7.2584,7.2584,7.2036,7.0504,6.8709,6.7026,6.5509,6.3254,6.1718,6.1235,6.116,6.1135,6.1135,6.0563,6.0487,6.1034,6.1617,6.1943,6.1994,6.2526,6.2802,6.2802,6.2802,6.2802,6.2802,6.2852,6.2877,6.2877,6.2877,6.2877,6.2877,6.2827,6.2802,6.2802,6.2802,6.2802,6.2802,6.2802,6.2802,6.2827,6.2877,6.2877,6.2877,6.2877,6.2877,6.2978,6.3525,6.3701,6.3822,6.435,6.4496,6.4496,6.4496,6.3726,6.2952,6.2902,6.2565,6.2228,6.2208,6.1858,6.1427,6.0903,6.0841,6.0737,6.0276,6.0234,6.0234,6.0213,6.0192,6.0192,6.0192,6.0192,6.0192,6.0192,6.0192,6.0192,6.0192,6.0192,6.0168,6.012,5.9663,5.9113,5.8536,5.8055,5.753,5.7001,5.7001,5.7482,5.8443,5.6726,5.5913,5.585,5.4101,5.3357,5.3444,5.3971,5.4148,5.391,5.2531,5.1868,5.1507,4.9633,4.9164,4.9566,5.0019,5.0449,5.0859,7.2584,7.2584,7.2584,7.2584,7.2584,7.2584,7.2584,7.2584,7.2584,7.2584,7.2584,7.2303,7.1462,6.879,6.6728,6.5864,6.3077,6.1316,6.121,6.0763,6.0512,6.0512,5.996,5.9734,5.9879,6.0858,6.1567,6.1994,6.2526,6.2802,6.2802,6.2802,6.2802,6.2827,6.3279,6.35,6.35,6.35,6.35,6.3475,6.2978,6.2802,6.2802,6.2802,6.2802,6.2802,6.2802,6.2802,6.2877,6.335,6.35,6.35,6.35,6.35,6.3525,6.3651,6.3701,6.3822,6.435,6.4496,6.4496,6.4496,6.43,6.4023,6.3601,6.3067,6.2577,6.2249,6.2105,6.1796,6.0966,6.1091,6.1091,6.0318,6.0465,6.0569,6.0234,6.0192,6.0192,6.0192,6.0192,6.0192,6.0192,6.0192,6.0192,6.0192,6.0192,6.0024,5.9591,5.947,5.8945,5.8007,5.7842,5.753,5.7001,5.7001,5.7121,5.7337,5.6932,5.6731,5.6755,5.6749,5.6967,5.7388,5.7927,5.7571,5.6461,5.4632,5.3035,5.1507,4.9633,4.9164,4.9566,5.0019,5.0449,5.0859,7.2584,7.2584,7.2584,7.2584,7.2584,7.2584,7.2584,7.2584,7.2584,7.2584,7.2584,7.22,7.1108,6.9195,6.7005,6.4586,6.2155,6.0663,6.0406,6.0085,5.9935,5.9935,5.9659,5.9483,5.9483,6.0337,6.104,6.1617,6.2169,6.2551,6.2802,6.2802,6.2802,6.2807,6.3128,6.3274,6.3274,6.3274,6.3274,6.3229,6.2927,6.2802,6.2802,6.2802,6.2802,6.2802,6.2802,6.2978,6.3299,6.3576,6.3873,6.4073,6.4073,6.3923,6.3751,6.3998,6.4073,6.4199,6.4726,6.5078,6.5279,6.5279,6.5078,6.4676,6.3877,6.345,6.3092,6.2586,6.2475,6.2269,6.1589,6.1672,6.1527,6.0632,6.0674,6.0674,6.0255,6.0192,6.0192,6.0192,6.0192,6.0192,6.0192,6.0192,6.0192,6.0192,6.0192,5.9976,5.9446,5.9182,5.8632,5.7838,5.7554,5.7265,5.7001,5.7001,5.7001,5.7001,5.7001,5.7001,5.7025,5.7574,5.7959,5.8247,5.8776,5.8763,5.8226,5.63,5.4522,5.2857,5.0984,5.0053,4.9863,5.0121,5.0566,5.1109,7.2584,7.2584,7.2584,7.2584,7.2584,7.2584,7.2584,7.2584,7.2584,7.2584,7.2584,7.2043,7.0612,6.937,6.7091,6.3187,6.1394,6.0261,5.9809,5.9784,5.9734,5.9633,5.9633,5.9583,5.9483,5.9935,6.0512,6.121,6.1743,6.2275,6.2802,6.2802,6.2802,6.2802,6.2802,6.2802,6.2802,6.2802,6.2802,6.2802,6.2802,6.2802,6.2802,6.2802,6.2802,6.2802,6.2802,6.3178,6.3701,6.3822,6.4199,6.4647,6.4647,6.4274,6.3923,6.435,6.4446,6.45,6.5128,6.5634,6.5986,6.6086,6.576,6.5183,6.4178,6.3827,6.355,6.3053,6.2877,6.2679,6.2269,6.2249,6.1981,6.0966,6.0883,6.0757,6.0276,6.0192,6.0192,6.0192,6.0192,6.0192,6.0192,6.0192,6.0192,6.0192,6.012,5.9831,5.9302,5.8752,5.8223,5.7674,5.7217,5.7001,5.7001,5.7001,5.7001,5.7001,5.7001,5.7001,5.7025,5.765,5.7935,5.7983,5.8512,5.8993,5.9232,5.7021,5.5431,5.4148,5.2051,5.0797,5.0219,5.0356,5.084,5.1401,7.2584,7.2584,7.2584,7.2584,7.2584,7.2584,7.2584,7.2584,7.2584,7.2584,7.2584,7.2309,7.1582,6.8405,6.5581,6.3648,6.202,6.1059,6.0984,6.0984,6.0738,6.0217,6.0191,5.9966,5.9508,5.9558,6.0136,6.121,6.1743,6.2275,6.2802,6.2802,6.2802,6.2802,6.2802,6.2802,6.2802,6.2802,6.2802,6.2802,6.2802,6.2802,6.2802,6.2802,6.2802,6.2802,6.2802,6.3178,6.3751,6.4224,6.4752,6.5204,6.5204,6.4827,6.4421,6.4496,6.4174,6.4048,6.5032,6.5333,6.5509,6.5965,6.6061,6.5835,6.5208,6.4375,6.3676,6.3601,6.3153,6.2679,6.2269,6.2475,6.231,6.1028,6.1133,6.1112,6.0318,6.0192,6.0192,6.0192,6.0192,6.0192,6.0192,6.0192,6.0192,6.0192,5.9759,5.9278,5.8728,5.8199,5.765,5.7121,5.7049,5.7001,5.7001,5.7001,5.7001,5.7001,5.7001,5.7001,5.7025,5.8031,5.8488,5.8512,5.9061,5.9329,5.9128,5.5549,5.3974,5.3516,5.0456,4.9674,5.0297,5.0972,5.1304,5.1401,7.2584,7.2584,7.2584,7.2584,7.2584,7.2584,7.2584,7.2584,7.2584,7.2584,7.2584,7.2497,7.2224,6.8769,6.5678,6.3709,6.2102,6.121,6.121,6.121,6.1085,6.0814,6.0788,6.0688,6.0457,6.0457,6.0839,6.1642,6.1567,6.1994,6.2802,6.2802,6.2802,6.2802,6.2802,6.2802,6.2802,6.2802,6.2802,6.2802,6.2802,6.2802,6.2802,6.2802,6.2802,6.2802,6.2802,6.3178,6.3776,6.4325,6.4852,6.5333,6.566,6.5383,6.4902,6.4597,6.4325,6.4249,6.4726,6.5078,6.5434,6.5986,6.609,6.5961,6.5409,6.4701,6.4073,6.3751,6.3203,6.2741,6.2556,6.2679,6.2536,6.1713,6.1527,6.1282,6.0632,6.0339,6.0192,6.0192,6.0192,6.0192,6.0192,6.0192,6.0072,5.9783,5.9543,5.9037,5.8199,5.7935,5.7554,5.7025,5.7001,5.7001,5.7001,5.7001,5.7001,5.7001,5.7001,5.7001,5.7049,5.8127,5.8608,5.8608,5.8848,5.9113,5.925,5.7269,5.6004,5.5101,5.2888,5.128,5.0297,5.1089,5.1401,5.1401]}]]